<?xml version="1.0" encoding="UTF-8" standalone="no" ?>
<gpx xmlns="http://www.topografix.com/GPX/1/1" xmlns:xsi="http://www.w3.org/2001/XMLSchema-instance" xsi:schemaLocation="http://www.topografix.com/GPX/1/1 http://www.topografix.com/GPX/1/1/gpx.xsd" version="1.1" creator="VisuGPX - https://www.visugpx.com">
  <metadata>
    <name>orientaix2011</name>
    <desc><![CDATA[orioentaix2011]]></desc>
  </metadata>
  <trk>
    <name><![CDATA[ORIENTAIX]]></name>
    <trkseg>
      <trkpt lat="45.67779" lon="6.03242">
        <ele>1191.69</ele>
        <time>2011-10-02T06:48:53Z</time>
      </trkpt>
      <trkpt lat="45.67781" lon="6.03243">
        <ele>1190.73</ele>
        <time>2011-10-02T06:48:54Z</time>
      </trkpt>
      <trkpt lat="45.67783" lon="6.03243">
        <ele>1195.54</ele>
        <time>2011-10-02T06:48:57Z</time>
      </trkpt>
      <trkpt lat="45.67783" lon="6.03242">
        <ele>1199.38</ele>
        <time>2011-10-02T06:48:58Z</time>
      </trkpt>
      <trkpt lat="45.67783" lon="6.03242">
        <ele>1202.75</ele>
        <time>2011-10-02T06:48:59Z</time>
      </trkpt>
      <trkpt lat="45.67783" lon="6.03242">
        <ele>1206.59</ele>
        <time>2011-10-02T06:49:00Z</time>
      </trkpt>
      <trkpt lat="45.67783" lon="6.03242">
        <ele>1210.44</ele>
        <time>2011-10-02T06:49:01Z</time>
      </trkpt>
      <trkpt lat="45.67782" lon="6.03242">
        <ele>1216.69</ele>
        <time>2011-10-02T06:49:03Z</time>
      </trkpt>
      <trkpt lat="45.67782" lon="6.03242">
        <ele>1220.05</ele>
        <time>2011-10-02T06:49:04Z</time>
      </trkpt>
      <trkpt lat="45.67782" lon="6.03242">
        <ele>1225.82</ele>
        <time>2011-10-02T06:49:06Z</time>
      </trkpt>
      <trkpt lat="45.67781" lon="6.03242">
        <ele>1231.11</ele>
        <time>2011-10-02T06:49:08Z</time>
      </trkpt>
      <trkpt lat="45.6778" lon="6.03243">
        <ele>1236.39</ele>
        <time>2011-10-02T06:49:10Z</time>
      </trkpt>
      <trkpt lat="45.67779" lon="6.03244">
        <ele>1241.2</ele>
        <time>2011-10-02T06:49:12Z</time>
      </trkpt>
      <trkpt lat="45.67779" lon="6.03243">
        <ele>1246.01</ele>
        <time>2011-10-02T06:49:14Z</time>
      </trkpt>
      <trkpt lat="45.67779" lon="6.03244">
        <ele>1250.81</ele>
        <time>2011-10-02T06:49:16Z</time>
      </trkpt>
      <trkpt lat="45.67779" lon="6.03244">
        <ele>1254.18</ele>
        <time>2011-10-02T06:49:18Z</time>
      </trkpt>
      <trkpt lat="45.67779" lon="6.03244">
        <ele>1258.02</ele>
        <time>2011-10-02T06:49:20Z</time>
      </trkpt>
      <trkpt lat="45.67779" lon="6.03244">
        <ele>1261.87</ele>
        <time>2011-10-02T06:49:22Z</time>
      </trkpt>
      <trkpt lat="45.67778" lon="6.03246">
        <ele>1265.71</ele>
        <time>2011-10-02T06:49:24Z</time>
      </trkpt>
      <trkpt lat="45.67778" lon="6.03248">
        <ele>1269.56</ele>
        <time>2011-10-02T06:49:27Z</time>
      </trkpt>
      <trkpt lat="45.67777" lon="6.03249">
        <ele>1272.92</ele>
        <time>2011-10-02T06:49:29Z</time>
      </trkpt>
      <trkpt lat="45.67777" lon="6.03249">
        <ele>1276.77</ele>
        <time>2011-10-02T06:49:32Z</time>
      </trkpt>
      <trkpt lat="45.67777" lon="6.03249">
        <ele>1280.61</ele>
        <time>2011-10-02T06:49:35Z</time>
      </trkpt>
      <trkpt lat="45.67778" lon="6.03249">
        <ele>1283.98</ele>
        <time>2011-10-02T06:49:38Z</time>
      </trkpt>
      <trkpt lat="45.67781" lon="6.03247">
        <ele>1287.82</ele>
        <time>2011-10-02T06:49:42Z</time>
      </trkpt>
      <trkpt lat="45.67785" lon="6.03243">
        <ele>1291.19</ele>
        <time>2011-10-02T06:49:47Z</time>
      </trkpt>
      <trkpt lat="45.67788" lon="6.0324">
        <ele>1293.59</ele>
        <time>2011-10-02T06:49:51Z</time>
      </trkpt>
      <trkpt lat="45.6779" lon="6.03237">
        <ele>1295.51</ele>
        <time>2011-10-02T06:49:55Z</time>
      </trkpt>
      <trkpt lat="45.67791" lon="6.03236">
        <ele>1296.96</ele>
        <time>2011-10-02T06:49:57Z</time>
      </trkpt>
      <trkpt lat="45.6779" lon="6.03236">
        <ele>1299.84</ele>
        <time>2011-10-02T06:50:09Z</time>
      </trkpt>
      <trkpt lat="45.67786" lon="6.03237">
        <ele>1303.2</ele>
        <time>2011-10-02T06:50:24Z</time>
      </trkpt>
      <trkpt lat="45.67786" lon="6.03239">
        <ele>1305.13</ele>
        <time>2011-10-02T06:50:48Z</time>
      </trkpt>
      <trkpt lat="45.67786" lon="6.03239">
        <ele>1307.05</ele>
        <time>2011-10-02T06:51:07Z</time>
      </trkpt>
      <trkpt lat="45.67786" lon="6.03239">
        <ele>1308.01</ele>
        <time>2011-10-02T06:51:42Z</time>
      </trkpt>
      <trkpt lat="45.67786" lon="6.03239">
        <ele>1308.01</ele>
        <time>2011-10-02T06:52:08Z</time>
      </trkpt>
      <trkpt lat="45.67786" lon="6.03239">
        <ele>1308.01</ele>
        <time>2011-10-02T06:52:28Z</time>
      </trkpt>
      <trkpt lat="45.67785" lon="6.0324">
        <ele>1308.01</ele>
        <time>2011-10-02T06:52:42Z</time>
      </trkpt>
      <trkpt lat="45.67784" lon="6.0324">
        <ele>1307.53</ele>
        <time>2011-10-02T06:53:01Z</time>
      </trkpt>
      <trkpt lat="45.67784" lon="6.0324">
        <ele>1307.53</ele>
        <time>2011-10-02T06:53:29Z</time>
      </trkpt>
      <trkpt lat="45.67786" lon="6.03244">
        <ele>1307.53</ele>
        <time>2011-10-02T06:53:41Z</time>
      </trkpt>
      <trkpt lat="45.67792" lon="6.03248">
        <ele>1308.01</ele>
        <time>2011-10-02T06:53:48Z</time>
      </trkpt>
      <trkpt lat="45.6778" lon="6.03243">
        <ele>1307.53</ele>
        <time>2011-10-02T06:54:00Z</time>
      </trkpt>
      <trkpt lat="45.6778" lon="6.03243">
        <ele>1308.01</ele>
        <time>2011-10-02T06:54:12Z</time>
      </trkpt>
      <trkpt lat="45.67781" lon="6.03243">
        <ele>1308.01</ele>
        <time>2011-10-02T06:54:17Z</time>
      </trkpt>
      <trkpt lat="45.67774" lon="6.03241">
        <ele>1307.53</ele>
        <time>2011-10-02T06:54:28Z</time>
      </trkpt>
      <trkpt lat="45.67776" lon="6.03239">
        <ele>1308.01</ele>
        <time>2011-10-02T06:54:32Z</time>
      </trkpt>
      <trkpt lat="45.6778" lon="6.03242">
        <ele>1308.01</ele>
        <time>2011-10-02T06:54:46Z</time>
      </trkpt>
      <trkpt lat="45.67781" lon="6.03243">
        <ele>1308.01</ele>
        <time>2011-10-02T06:55:04Z</time>
      </trkpt>
      <trkpt lat="45.67782" lon="6.03244">
        <ele>1308.01</ele>
        <time>2011-10-02T06:55:26Z</time>
      </trkpt>
      <trkpt lat="45.67782" lon="6.03244">
        <ele>1308.01</ele>
        <time>2011-10-02T06:55:50Z</time>
      </trkpt>
      <trkpt lat="45.67782" lon="6.03244">
        <ele>1308.01</ele>
        <time>2011-10-02T06:56:10Z</time>
      </trkpt>
      <trkpt lat="45.67782" lon="6.03244">
        <ele>1308.01</ele>
        <time>2011-10-02T06:56:33Z</time>
      </trkpt>
      <trkpt lat="45.67782" lon="6.03245">
        <ele>1308.01</ele>
        <time>2011-10-02T06:57:02Z</time>
      </trkpt>
      <trkpt lat="45.67782" lon="6.03245">
        <ele>1308.01</ele>
        <time>2011-10-02T06:57:25Z</time>
      </trkpt>
      <trkpt lat="45.67782" lon="6.03245">
        <ele>1308.01</ele>
        <time>2011-10-02T06:57:50Z</time>
      </trkpt>
      <trkpt lat="45.67784" lon="6.03246">
        <ele>1308.01</ele>
        <time>2011-10-02T06:58:05Z</time>
      </trkpt>
      <trkpt lat="45.67785" lon="6.03256">
        <ele>1308.01</ele>
        <time>2011-10-02T06:58:17Z</time>
      </trkpt>
      <trkpt lat="45.67785" lon="6.03257">
        <ele>1308.49</ele>
        <time>2011-10-02T06:58:43Z</time>
      </trkpt>
      <trkpt lat="45.67785" lon="6.03257">
        <ele>1308.49</ele>
        <time>2011-10-02T06:59:09Z</time>
      </trkpt>
      <trkpt lat="45.67784" lon="6.03257">
        <ele>1308.01</ele>
        <time>2011-10-02T06:59:25Z</time>
      </trkpt>
      <trkpt lat="45.67787" lon="6.03257">
        <ele>1308.01</ele>
        <time>2011-10-02T06:59:38Z</time>
      </trkpt>
      <trkpt lat="45.6779" lon="6.03257">
        <ele>1307.53</ele>
        <time>2011-10-02T06:59:45Z</time>
      </trkpt>
      <trkpt lat="45.678" lon="6.03259">
        <ele>1307.53</ele>
        <time>2011-10-02T06:59:57Z</time>
      </trkpt>
      <trkpt lat="45.67811" lon="6.0326">
        <ele>1307.53</ele>
        <time>2011-10-02T07:00:08Z</time>
      </trkpt>
      <trkpt lat="45.67818" lon="6.03264">
        <ele>1307.05</ele>
        <time>2011-10-02T07:00:14Z</time>
      </trkpt>
      <trkpt lat="45.67817" lon="6.03264">
        <ele>1307.53</ele>
        <time>2011-10-02T07:00:44Z</time>
      </trkpt>
      <trkpt lat="45.67817" lon="6.03264">
        <ele>1307.05</ele>
        <time>2011-10-02T07:01:12Z</time>
      </trkpt>
      <trkpt lat="45.67816" lon="6.03264">
        <ele>1307.05</ele>
        <time>2011-10-02T07:01:42Z</time>
      </trkpt>
      <trkpt lat="45.67816" lon="6.03264">
        <ele>1307.53</ele>
        <time>2011-10-02T07:02:18Z</time>
      </trkpt>
      <trkpt lat="45.67816" lon="6.03264">
        <ele>1306.57</ele>
        <time>2011-10-02T07:02:55Z</time>
      </trkpt>
      <trkpt lat="45.67816" lon="6.03264">
        <ele>1307.53</ele>
        <time>2011-10-02T07:03:33Z</time>
      </trkpt>
      <trkpt lat="45.67816" lon="6.03263">
        <ele>1307.53</ele>
        <time>2011-10-02T07:04:12Z</time>
      </trkpt>
      <trkpt lat="45.67817" lon="6.03263">
        <ele>1307.53</ele>
        <time>2011-10-02T07:04:44Z</time>
      </trkpt>
      <trkpt lat="45.67817" lon="6.03263">
        <ele>1307.53</ele>
        <time>2011-10-02T07:04:54Z</time>
      </trkpt>
      <trkpt lat="45.67827" lon="6.03278">
        <ele>1307.53</ele>
        <time>2011-10-02T07:05:08Z</time>
      </trkpt>
      <trkpt lat="45.67828" lon="6.03278">
        <ele>1307.53</ele>
        <time>2011-10-02T07:05:23Z</time>
      </trkpt>
      <trkpt lat="45.67828" lon="6.03278">
        <ele>1307.53</ele>
        <time>2011-10-02T07:05:47Z</time>
      </trkpt>
      <trkpt lat="45.67828" lon="6.03278">
        <ele>1307.53</ele>
        <time>2011-10-02T07:06:19Z</time>
      </trkpt>
      <trkpt lat="45.67862" lon="6.03284">
        <ele>1306.09</ele>
        <time>2011-10-02T07:06:31Z</time>
      </trkpt>
      <trkpt lat="45.67924" lon="6.03305">
        <ele>1306.09</ele>
        <time>2011-10-02T07:06:42Z</time>
      </trkpt>
      <trkpt lat="45.67936" lon="6.03306">
        <ele>1306.09</ele>
        <time>2011-10-02T07:06:44Z</time>
      </trkpt>
      <trkpt lat="45.67941" lon="6.03306">
        <ele>1306.57</ele>
        <time>2011-10-02T07:06:45Z</time>
      </trkpt>
      <trkpt lat="45.68019" lon="6.03337">
        <ele>1307.53</ele>
        <time>2011-10-02T07:06:58Z</time>
      </trkpt>
      <trkpt lat="45.68024" lon="6.03339">
        <ele>1307.53</ele>
        <time>2011-10-02T07:06:59Z</time>
      </trkpt>
      <trkpt lat="45.6803" lon="6.03341">
        <ele>1307.53</ele>
        <time>2011-10-02T07:07:00Z</time>
      </trkpt>
      <trkpt lat="45.68035" lon="6.0334">
        <ele>1307.53</ele>
        <time>2011-10-02T07:07:01Z</time>
      </trkpt>
      <trkpt lat="45.68044" lon="6.03338">
        <ele>1308.01</ele>
        <time>2011-10-02T07:07:03Z</time>
      </trkpt>
      <trkpt lat="45.68047" lon="6.03336">
        <ele>1308.01</ele>
        <time>2011-10-02T07:07:04Z</time>
      </trkpt>
      <trkpt lat="45.6805" lon="6.03332">
        <ele>1307.53</ele>
        <time>2011-10-02T07:07:05Z</time>
      </trkpt>
      <trkpt lat="45.68053" lon="6.03327">
        <ele>1308.01</ele>
        <time>2011-10-02T07:07:06Z</time>
      </trkpt>
      <trkpt lat="45.68055" lon="6.03322">
        <ele>1308.01</ele>
        <time>2011-10-02T07:07:07Z</time>
      </trkpt>
      <trkpt lat="45.68057" lon="6.03317">
        <ele>1308.01</ele>
        <time>2011-10-02T07:07:08Z</time>
      </trkpt>
      <trkpt lat="45.6806" lon="6.03305">
        <ele>1307.53</ele>
        <time>2011-10-02T07:07:17Z</time>
      </trkpt>
      <trkpt lat="45.6806" lon="6.03305">
        <ele>1308.01</ele>
        <time>2011-10-02T07:07:51Z</time>
      </trkpt>
      <trkpt lat="45.68061" lon="6.03306">
        <ele>1307.05</ele>
        <time>2011-10-02T07:08:24Z</time>
      </trkpt>
      <trkpt lat="45.68061" lon="6.03306">
        <ele>1308.49</ele>
        <time>2011-10-02T07:08:28Z</time>
      </trkpt>
      <trkpt lat="45.68062" lon="6.03308">
        <ele>1307.53</ele>
        <time>2011-10-02T07:08:31Z</time>
      </trkpt>
      <trkpt lat="45.68048" lon="6.03323">
        <ele>1307.53</ele>
        <time>2011-10-02T07:08:39Z</time>
      </trkpt>
      <trkpt lat="45.68038" lon="6.0334">
        <ele>1307.53</ele>
        <time>2011-10-02T07:08:44Z</time>
      </trkpt>
      <trkpt lat="45.68033" lon="6.03342">
        <ele>1307.05</ele>
        <time>2011-10-02T07:08:45Z</time>
      </trkpt>
      <trkpt lat="45.68029" lon="6.03343">
        <ele>1306.57</ele>
        <time>2011-10-02T07:08:46Z</time>
      </trkpt>
      <trkpt lat="45.68024" lon="6.03341">
        <ele>1307.53</ele>
        <time>2011-10-02T07:08:47Z</time>
      </trkpt>
      <trkpt lat="45.68019" lon="6.03338">
        <ele>1307.05</ele>
        <time>2011-10-02T07:08:48Z</time>
      </trkpt>
      <trkpt lat="45.68013" lon="6.03335">
        <ele>1307.05</ele>
        <time>2011-10-02T07:08:49Z</time>
      </trkpt>
      <trkpt lat="45.68008" lon="6.03331">
        <ele>1306.57</ele>
        <time>2011-10-02T07:08:50Z</time>
      </trkpt>
      <trkpt lat="45.67997" lon="6.0332">
        <ele>1306.57</ele>
        <time>2011-10-02T07:08:52Z</time>
      </trkpt>
      <trkpt lat="45.67991" lon="6.03315">
        <ele>1306.09</ele>
        <time>2011-10-02T07:08:53Z</time>
      </trkpt>
      <trkpt lat="45.67983" lon="6.03312">
        <ele>1305.61</ele>
        <time>2011-10-02T07:08:54Z</time>
      </trkpt>
      <trkpt lat="45.67917" lon="6.03278">
        <ele>1308.97</ele>
        <time>2011-10-02T07:09:04Z</time>
      </trkpt>
      <trkpt lat="45.67912" lon="6.03276">
        <ele>1309.45</ele>
        <time>2011-10-02T07:09:05Z</time>
      </trkpt>
      <trkpt lat="45.67908" lon="6.03273">
        <ele>1309.93</ele>
        <time>2011-10-02T07:09:06Z</time>
      </trkpt>
      <trkpt lat="45.67904" lon="6.0327">
        <ele>1309.93</ele>
        <time>2011-10-02T07:09:07Z</time>
      </trkpt>
      <trkpt lat="45.67899" lon="6.03267">
        <ele>1310.41</ele>
        <time>2011-10-02T07:09:08Z</time>
      </trkpt>
      <trkpt lat="45.67894" lon="6.03264">
        <ele>1310.41</ele>
        <time>2011-10-02T07:09:09Z</time>
      </trkpt>
      <trkpt lat="45.6789" lon="6.0326">
        <ele>1311.38</ele>
        <time>2011-10-02T07:09:10Z</time>
      </trkpt>
      <trkpt lat="45.67886" lon="6.03256">
        <ele>1311.38</ele>
        <time>2011-10-02T07:09:11Z</time>
      </trkpt>
      <trkpt lat="45.67882" lon="6.03251">
        <ele>1311.86</ele>
        <time>2011-10-02T07:09:12Z</time>
      </trkpt>
      <trkpt lat="45.67878" lon="6.03247">
        <ele>1312.34</ele>
        <time>2011-10-02T07:09:13Z</time>
      </trkpt>
      <trkpt lat="45.67873" lon="6.03242">
        <ele>1312.82</ele>
        <time>2011-10-02T07:09:14Z</time>
      </trkpt>
      <trkpt lat="45.67852" lon="6.03217">
        <ele>1312.82</ele>
        <time>2011-10-02T07:09:19Z</time>
      </trkpt>
      <trkpt lat="45.67845" lon="6.03215">
        <ele>1313.3</ele>
        <time>2011-10-02T07:09:20Z</time>
      </trkpt>
      <trkpt lat="45.67838" lon="6.03213">
        <ele>1312.34</ele>
        <time>2011-10-02T07:09:21Z</time>
      </trkpt>
      <trkpt lat="45.67831" lon="6.03212">
        <ele>1311.86</ele>
        <time>2011-10-02T07:09:22Z</time>
      </trkpt>
      <trkpt lat="45.67823" lon="6.03212">
        <ele>1312.34</ele>
        <time>2011-10-02T07:09:23Z</time>
      </trkpt>
      <trkpt lat="45.67816" lon="6.03213">
        <ele>1312.34</ele>
        <time>2011-10-02T07:09:24Z</time>
      </trkpt>
      <trkpt lat="45.67808" lon="6.03214">
        <ele>1311.86</ele>
        <time>2011-10-02T07:09:25Z</time>
      </trkpt>
      <trkpt lat="45.67801" lon="6.03214">
        <ele>1311.86</ele>
        <time>2011-10-02T07:09:26Z</time>
      </trkpt>
      <trkpt lat="45.67793" lon="6.03212">
        <ele>1310.9</ele>
        <time>2011-10-02T07:09:27Z</time>
      </trkpt>
      <trkpt lat="45.67785" lon="6.03208">
        <ele>1310.9</ele>
        <time>2011-10-02T07:09:28Z</time>
      </trkpt>
      <trkpt lat="45.67778" lon="6.03202">
        <ele>1310.41</ele>
        <time>2011-10-02T07:09:29Z</time>
      </trkpt>
      <trkpt lat="45.67771" lon="6.03194">
        <ele>1309.45</ele>
        <time>2011-10-02T07:09:30Z</time>
      </trkpt>
      <trkpt lat="45.67763" lon="6.03186">
        <ele>1308.97</ele>
        <time>2011-10-02T07:09:31Z</time>
      </trkpt>
      <trkpt lat="45.67756" lon="6.03179">
        <ele>1308.49</ele>
        <time>2011-10-02T07:09:32Z</time>
      </trkpt>
      <trkpt lat="45.67747" lon="6.03175">
        <ele>1308.01</ele>
        <time>2011-10-02T07:09:33Z</time>
      </trkpt>
      <trkpt lat="45.67718" lon="6.03161">
        <ele>1306.57</ele>
        <time>2011-10-02T07:09:36Z</time>
      </trkpt>
      <trkpt lat="45.67709" lon="6.03154">
        <ele>1306.09</ele>
        <time>2011-10-02T07:09:37Z</time>
      </trkpt>
      <trkpt lat="45.677" lon="6.03145">
        <ele>1305.13</ele>
        <time>2011-10-02T07:09:38Z</time>
      </trkpt>
      <trkpt lat="45.67693" lon="6.03133">
        <ele>1304.17</ele>
        <time>2011-10-02T07:09:39Z</time>
      </trkpt>
      <trkpt lat="45.67686" lon="6.03119">
        <ele>1303.2</ele>
        <time>2011-10-02T07:09:40Z</time>
      </trkpt>
      <trkpt lat="45.67682" lon="6.03104">
        <ele>1302.72</ele>
        <time>2011-10-02T07:09:41Z</time>
      </trkpt>
      <trkpt lat="45.67677" lon="6.0309">
        <ele>1302.24</ele>
        <time>2011-10-02T07:09:42Z</time>
      </trkpt>
      <trkpt lat="45.67672" lon="6.03078">
        <ele>1301.28</ele>
        <time>2011-10-02T07:09:43Z</time>
      </trkpt>
      <trkpt lat="45.67668" lon="6.03066">
        <ele>1300.8</ele>
        <time>2011-10-02T07:09:44Z</time>
      </trkpt>
      <trkpt lat="45.67661" lon="6.03049">
        <ele>1299.36</ele>
        <time>2011-10-02T07:09:46Z</time>
      </trkpt>
      <trkpt lat="45.67659" lon="6.03038">
        <ele>1298.88</ele>
        <time>2011-10-02T07:09:47Z</time>
      </trkpt>
      <trkpt lat="45.67659" lon="6.03029">
        <ele>1297.92</ele>
        <time>2011-10-02T07:09:48Z</time>
      </trkpt>
      <trkpt lat="45.67661" lon="6.03021">
        <ele>1298.4</ele>
        <time>2011-10-02T07:09:49Z</time>
      </trkpt>
      <trkpt lat="45.67662" lon="6.03015">
        <ele>1298.88</ele>
        <time>2011-10-02T07:09:50Z</time>
      </trkpt>
      <trkpt lat="45.67662" lon="6.03009">
        <ele>1300.32</ele>
        <time>2011-10-02T07:09:51Z</time>
      </trkpt>
      <trkpt lat="45.67662" lon="6.03004">
        <ele>1299.84</ele>
        <time>2011-10-02T07:09:52Z</time>
      </trkpt>
      <trkpt lat="45.6766" lon="6.02966">
        <ele>1302.24</ele>
        <time>2011-10-02T07:10:01Z</time>
      </trkpt>
      <trkpt lat="45.67668" lon="6.02936">
        <ele>1306.09</ele>
        <time>2011-10-02T07:10:12Z</time>
      </trkpt>
      <trkpt lat="45.67688" lon="6.02904">
        <ele>1308.97</ele>
        <time>2011-10-02T07:10:25Z</time>
      </trkpt>
      <trkpt lat="45.67695" lon="6.02877">
        <ele>1310.41</ele>
        <time>2011-10-02T07:10:34Z</time>
      </trkpt>
      <trkpt lat="45.67695" lon="6.02875">
        <ele>1310.9</ele>
        <time>2011-10-02T07:10:35Z</time>
      </trkpt>
      <trkpt lat="45.67696" lon="6.02872">
        <ele>1311.38</ele>
        <time>2011-10-02T07:10:36Z</time>
      </trkpt>
      <trkpt lat="45.67696" lon="6.0287">
        <ele>1311.38</ele>
        <time>2011-10-02T07:10:37Z</time>
      </trkpt>
      <trkpt lat="45.67696" lon="6.02867">
        <ele>1311.86</ele>
        <time>2011-10-02T07:10:38Z</time>
      </trkpt>
      <trkpt lat="45.67695" lon="6.02865">
        <ele>1311.86</ele>
        <time>2011-10-02T07:10:39Z</time>
      </trkpt>
      <trkpt lat="45.67695" lon="6.02862">
        <ele>1312.82</ele>
        <time>2011-10-02T07:10:40Z</time>
      </trkpt>
      <trkpt lat="45.67693" lon="6.02857">
        <ele>1312.82</ele>
        <time>2011-10-02T07:10:42Z</time>
      </trkpt>
      <trkpt lat="45.67691" lon="6.02855">
        <ele>1313.3</ele>
        <time>2011-10-02T07:10:43Z</time>
      </trkpt>
      <trkpt lat="45.6769" lon="6.02852">
        <ele>1313.3</ele>
        <time>2011-10-02T07:10:44Z</time>
      </trkpt>
      <trkpt lat="45.67679" lon="6.02823">
        <ele>1315.22</ele>
        <time>2011-10-02T07:10:56Z</time>
      </trkpt>
      <trkpt lat="45.67678" lon="6.0282">
        <ele>1315.7</ele>
        <time>2011-10-02T07:10:57Z</time>
      </trkpt>
      <trkpt lat="45.67677" lon="6.02817">
        <ele>1315.22</ele>
        <time>2011-10-02T07:10:58Z</time>
      </trkpt>
      <trkpt lat="45.67676" lon="6.02814">
        <ele>1316.18</ele>
        <time>2011-10-02T07:10:59Z</time>
      </trkpt>
      <trkpt lat="45.67676" lon="6.0281">
        <ele>1316.18</ele>
        <time>2011-10-02T07:11:00Z</time>
      </trkpt>
      <trkpt lat="45.67676" lon="6.02807">
        <ele>1316.18</ele>
        <time>2011-10-02T07:11:01Z</time>
      </trkpt>
      <trkpt lat="45.6766" lon="6.02741">
        <ele>1316.18</ele>
        <time>2011-10-02T07:11:15Z</time>
      </trkpt>
      <trkpt lat="45.67633" lon="6.02659">
        <ele>1317.62</ele>
        <time>2011-10-02T07:11:31Z</time>
      </trkpt>
      <trkpt lat="45.67617" lon="6.02621">
        <ele>1320.99</ele>
        <time>2011-10-02T07:11:43Z</time>
      </trkpt>
      <trkpt lat="45.67604" lon="6.02568">
        <ele>1323.39</ele>
        <time>2011-10-02T07:11:59Z</time>
      </trkpt>
      <trkpt lat="45.67599" lon="6.02528">
        <ele>1326.76</ele>
        <time>2011-10-02T07:12:12Z</time>
      </trkpt>
      <trkpt lat="45.67594" lon="6.02499">
        <ele>1329.16</ele>
        <time>2011-10-02T07:12:24Z</time>
      </trkpt>
      <trkpt lat="45.67585" lon="6.02467">
        <ele>1331.56</ele>
        <time>2011-10-02T07:12:37Z</time>
      </trkpt>
      <trkpt lat="45.67575" lon="6.0243">
        <ele>1334.45</ele>
        <time>2011-10-02T07:12:51Z</time>
      </trkpt>
      <trkpt lat="45.67563" lon="6.02387">
        <ele>1337.81</ele>
        <time>2011-10-02T07:13:07Z</time>
      </trkpt>
      <trkpt lat="45.6755" lon="6.02351">
        <ele>1339.73</ele>
        <time>2011-10-02T07:13:21Z</time>
      </trkpt>
      <trkpt lat="45.67532" lon="6.02307">
        <ele>1341.66</ele>
        <time>2011-10-02T07:13:37Z</time>
      </trkpt>
      <trkpt lat="45.67516" lon="6.02264">
        <ele>1344.06</ele>
        <time>2011-10-02T07:13:51Z</time>
      </trkpt>
      <trkpt lat="45.67496" lon="6.0222">
        <ele>1344.06</ele>
        <time>2011-10-02T07:14:04Z</time>
      </trkpt>
      <trkpt lat="45.67491" lon="6.02166">
        <ele>1345.98</ele>
        <time>2011-10-02T07:14:18Z</time>
      </trkpt>
      <trkpt lat="45.675" lon="6.02142">
        <ele>1349.35</ele>
        <time>2011-10-02T07:14:28Z</time>
      </trkpt>
      <trkpt lat="45.67501" lon="6.02138">
        <ele>1350.31</ele>
        <time>2011-10-02T07:14:30Z</time>
      </trkpt>
      <trkpt lat="45.67501" lon="6.02136">
        <ele>1349.83</ele>
        <time>2011-10-02T07:14:31Z</time>
      </trkpt>
      <trkpt lat="45.67501" lon="6.02133">
        <ele>1350.31</ele>
        <time>2011-10-02T07:14:32Z</time>
      </trkpt>
      <trkpt lat="45.67501" lon="6.02126">
        <ele>1351.75</ele>
        <time>2011-10-02T07:14:35Z</time>
      </trkpt>
      <trkpt lat="45.675" lon="6.02095">
        <ele>1354.15</ele>
        <time>2011-10-02T07:14:47Z</time>
      </trkpt>
      <trkpt lat="45.67489" lon="6.02059">
        <ele>1357.04</ele>
        <time>2011-10-02T07:15:01Z</time>
      </trkpt>
      <trkpt lat="45.67483" lon="6.02044">
        <ele>1358</ele>
        <time>2011-10-02T07:15:08Z</time>
      </trkpt>
      <trkpt lat="45.67482" lon="6.02042">
        <ele>1358.48</ele>
        <time>2011-10-02T07:15:09Z</time>
      </trkpt>
      <trkpt lat="45.67482" lon="6.0204">
        <ele>1358.48</ele>
        <time>2011-10-02T07:15:10Z</time>
      </trkpt>
      <trkpt lat="45.67481" lon="6.02038">
        <ele>1359.44</ele>
        <time>2011-10-02T07:15:11Z</time>
      </trkpt>
      <trkpt lat="45.67481" lon="6.02035">
        <ele>1359.44</ele>
        <time>2011-10-02T07:15:12Z</time>
      </trkpt>
      <trkpt lat="45.67467" lon="6.0199">
        <ele>1358.96</ele>
        <time>2011-10-02T07:15:26Z</time>
      </trkpt>
      <trkpt lat="45.67471" lon="6.01981">
        <ele>1359.44</ele>
        <time>2011-10-02T07:15:36Z</time>
      </trkpt>
      <trkpt lat="45.67489" lon="6.01981">
        <ele>1362.81</ele>
        <time>2011-10-02T07:15:48Z</time>
      </trkpt>
      <trkpt lat="45.6749" lon="6.01982">
        <ele>1362.81</ele>
        <time>2011-10-02T07:15:49Z</time>
      </trkpt>
      <trkpt lat="45.67491" lon="6.01984">
        <ele>1362.81</ele>
        <time>2011-10-02T07:15:50Z</time>
      </trkpt>
      <trkpt lat="45.67492" lon="6.01985">
        <ele>1363.29</ele>
        <time>2011-10-02T07:15:51Z</time>
      </trkpt>
      <trkpt lat="45.67495" lon="6.01993">
        <ele>1363.29</ele>
        <time>2011-10-02T07:15:56Z</time>
      </trkpt>
      <trkpt lat="45.67496" lon="6.01995">
        <ele>1363.77</ele>
        <time>2011-10-02T07:15:57Z</time>
      </trkpt>
      <trkpt lat="45.67497" lon="6.01998">
        <ele>1363.29</ele>
        <time>2011-10-02T07:15:58Z</time>
      </trkpt>
      <trkpt lat="45.67499" lon="6.02002">
        <ele>1363.77</ele>
        <time>2011-10-02T07:15:59Z</time>
      </trkpt>
      <trkpt lat="45.67501" lon="6.02005">
        <ele>1364.25</ele>
        <time>2011-10-02T07:16:00Z</time>
      </trkpt>
      <trkpt lat="45.67503" lon="6.02008">
        <ele>1363.77</ele>
        <time>2011-10-02T07:16:01Z</time>
      </trkpt>
      <trkpt lat="45.67532" lon="6.0203">
        <ele>1365.21</ele>
        <time>2011-10-02T07:16:12Z</time>
      </trkpt>
      <trkpt lat="45.67574" lon="6.02064">
        <ele>1366.17</ele>
        <time>2011-10-02T07:16:26Z</time>
      </trkpt>
      <trkpt lat="45.67588" lon="6.02072">
        <ele>1366.65</ele>
        <time>2011-10-02T07:16:37Z</time>
      </trkpt>
      <trkpt lat="45.67588" lon="6.02072">
        <ele>1366.65</ele>
        <time>2011-10-02T07:17:01Z</time>
      </trkpt>
      <trkpt lat="45.67587" lon="6.02072">
        <ele>1367.61</ele>
        <time>2011-10-02T07:17:18Z</time>
      </trkpt>
      <trkpt lat="45.67586" lon="6.0207">
        <ele>1367.13</ele>
        <time>2011-10-02T07:17:21Z</time>
      </trkpt>
      <trkpt lat="45.67584" lon="6.02068">
        <ele>1367.61</ele>
        <time>2011-10-02T07:17:22Z</time>
      </trkpt>
      <trkpt lat="45.67582" lon="6.02065">
        <ele>1366.65</ele>
        <time>2011-10-02T07:17:23Z</time>
      </trkpt>
      <trkpt lat="45.67578" lon="6.02059">
        <ele>1367.61</ele>
        <time>2011-10-02T07:17:24Z</time>
      </trkpt>
      <trkpt lat="45.67574" lon="6.02054">
        <ele>1366.65</ele>
        <time>2011-10-02T07:17:25Z</time>
      </trkpt>
      <trkpt lat="45.6757" lon="6.02049">
        <ele>1366.65</ele>
        <time>2011-10-02T07:17:26Z</time>
      </trkpt>
      <trkpt lat="45.67566" lon="6.02045">
        <ele>1366.17</ele>
        <time>2011-10-02T07:17:27Z</time>
      </trkpt>
      <trkpt lat="45.6756" lon="6.02041">
        <ele>1366.65</ele>
        <time>2011-10-02T07:17:28Z</time>
      </trkpt>
      <trkpt lat="45.67545" lon="6.02031">
        <ele>1366.17</ele>
        <time>2011-10-02T07:17:31Z</time>
      </trkpt>
      <trkpt lat="45.67541" lon="6.02028">
        <ele>1366.17</ele>
        <time>2011-10-02T07:17:32Z</time>
      </trkpt>
      <trkpt lat="45.67536" lon="6.02025">
        <ele>1365.69</ele>
        <time>2011-10-02T07:17:33Z</time>
      </trkpt>
      <trkpt lat="45.67526" lon="6.0202">
        <ele>1365.69</ele>
        <time>2011-10-02T07:17:35Z</time>
      </trkpt>
      <trkpt lat="45.67522" lon="6.02017">
        <ele>1366.17</ele>
        <time>2011-10-02T07:17:36Z</time>
      </trkpt>
      <trkpt lat="45.67505" lon="6.02007">
        <ele>1364.73</ele>
        <time>2011-10-02T07:17:39Z</time>
      </trkpt>
      <trkpt lat="45.67484" lon="6.01981">
        <ele>1362.33</ele>
        <time>2011-10-02T07:17:44Z</time>
      </trkpt>
      <trkpt lat="45.67469" lon="6.01971">
        <ele>1358.96</ele>
        <time>2011-10-02T07:17:47Z</time>
      </trkpt>
      <trkpt lat="45.67464" lon="6.01966">
        <ele>1358</ele>
        <time>2011-10-02T07:17:48Z</time>
      </trkpt>
      <trkpt lat="45.6746" lon="6.01961">
        <ele>1357.52</ele>
        <time>2011-10-02T07:17:49Z</time>
      </trkpt>
      <trkpt lat="45.67458" lon="6.01955">
        <ele>1357.04</ele>
        <time>2011-10-02T07:17:50Z</time>
      </trkpt>
      <trkpt lat="45.67453" lon="6.01936">
        <ele>1357.04</ele>
        <time>2011-10-02T07:17:53Z</time>
      </trkpt>
      <trkpt lat="45.67444" lon="6.01866">
        <ele>1359.92</ele>
        <time>2011-10-02T07:18:03Z</time>
      </trkpt>
      <trkpt lat="45.67441" lon="6.0184">
        <ele>1358</ele>
        <time>2011-10-02T07:18:06Z</time>
      </trkpt>
      <trkpt lat="45.67441" lon="6.01831">
        <ele>1357.04</ele>
        <time>2011-10-02T07:18:07Z</time>
      </trkpt>
      <trkpt lat="45.67441" lon="6.01812">
        <ele>1357.52</ele>
        <time>2011-10-02T07:18:09Z</time>
      </trkpt>
      <trkpt lat="45.6744" lon="6.01804">
        <ele>1357.04</ele>
        <time>2011-10-02T07:18:10Z</time>
      </trkpt>
      <trkpt lat="45.67439" lon="6.01789">
        <ele>1358.48</ele>
        <time>2011-10-02T07:18:12Z</time>
      </trkpt>
      <trkpt lat="45.67439" lon="6.01775">
        <ele>1358.48</ele>
        <time>2011-10-02T07:18:14Z</time>
      </trkpt>
      <trkpt lat="45.6744" lon="6.01767">
        <ele>1357.52</ele>
        <time>2011-10-02T07:18:15Z</time>
      </trkpt>
      <trkpt lat="45.67443" lon="6.01744">
        <ele>1358.96</ele>
        <time>2011-10-02T07:18:18Z</time>
      </trkpt>
      <trkpt lat="45.67444" lon="6.01738">
        <ele>1359.44</ele>
        <time>2011-10-02T07:18:19Z</time>
      </trkpt>
      <trkpt lat="45.67444" lon="6.01732">
        <ele>1359.44</ele>
        <time>2011-10-02T07:18:20Z</time>
      </trkpt>
      <trkpt lat="45.67444" lon="6.01726">
        <ele>1359.92</ele>
        <time>2011-10-02T07:18:21Z</time>
      </trkpt>
      <trkpt lat="45.67444" lon="6.01719">
        <ele>1359.44</ele>
        <time>2011-10-02T07:18:22Z</time>
      </trkpt>
      <trkpt lat="45.67443" lon="6.01682">
        <ele>1357.52</ele>
        <time>2011-10-02T07:18:27Z</time>
      </trkpt>
      <trkpt lat="45.67442" lon="6.01665">
        <ele>1358</ele>
        <time>2011-10-02T07:18:29Z</time>
      </trkpt>
      <trkpt lat="45.67442" lon="6.01657">
        <ele>1357.52</ele>
        <time>2011-10-02T07:18:30Z</time>
      </trkpt>
      <trkpt lat="45.67442" lon="6.0165">
        <ele>1358.48</ele>
        <time>2011-10-02T07:18:31Z</time>
      </trkpt>
      <trkpt lat="45.6744" lon="6.0163">
        <ele>1359.92</ele>
        <time>2011-10-02T07:18:35Z</time>
      </trkpt>
      <trkpt lat="45.67433" lon="6.01589">
        <ele>1362.33</ele>
        <time>2011-10-02T07:18:46Z</time>
      </trkpt>
      <trkpt lat="45.6743" lon="6.01578">
        <ele>1362.81</ele>
        <time>2011-10-02T07:18:49Z</time>
      </trkpt>
      <trkpt lat="45.67428" lon="6.01574">
        <ele>1362.33</ele>
        <time>2011-10-02T07:18:50Z</time>
      </trkpt>
      <trkpt lat="45.67427" lon="6.0157">
        <ele>1362.33</ele>
        <time>2011-10-02T07:18:51Z</time>
      </trkpt>
      <trkpt lat="45.67424" lon="6.01566">
        <ele>1361.84</ele>
        <time>2011-10-02T07:18:52Z</time>
      </trkpt>
      <trkpt lat="45.67421" lon="6.01561">
        <ele>1362.33</ele>
        <time>2011-10-02T07:18:53Z</time>
      </trkpt>
      <trkpt lat="45.67419" lon="6.01555">
        <ele>1362.33</ele>
        <time>2011-10-02T07:18:54Z</time>
      </trkpt>
      <trkpt lat="45.67418" lon="6.0155">
        <ele>1362.81</ele>
        <time>2011-10-02T07:18:55Z</time>
      </trkpt>
      <trkpt lat="45.67418" lon="6.01544">
        <ele>1362.81</ele>
        <time>2011-10-02T07:18:56Z</time>
      </trkpt>
      <trkpt lat="45.67419" lon="6.01539">
        <ele>1362.81</ele>
        <time>2011-10-02T07:18:57Z</time>
      </trkpt>
      <trkpt lat="45.6742" lon="6.01535">
        <ele>1363.77</ele>
        <time>2011-10-02T07:18:58Z</time>
      </trkpt>
      <trkpt lat="45.67432" lon="6.01508">
        <ele>1366.65</ele>
        <time>2011-10-02T07:19:07Z</time>
      </trkpt>
      <trkpt lat="45.67433" lon="6.01506">
        <ele>1366.65</ele>
        <time>2011-10-02T07:19:08Z</time>
      </trkpt>
      <trkpt lat="45.67448" lon="6.0148">
        <ele>1369.05</ele>
        <time>2011-10-02T07:19:19Z</time>
      </trkpt>
      <trkpt lat="45.6744" lon="6.01428">
        <ele>1370.5</ele>
        <time>2011-10-02T07:19:32Z</time>
      </trkpt>
      <trkpt lat="45.67439" lon="6.014">
        <ele>1368.09</ele>
        <time>2011-10-02T07:19:36Z</time>
      </trkpt>
      <trkpt lat="45.67439" lon="6.01392">
        <ele>1367.61</ele>
        <time>2011-10-02T07:19:37Z</time>
      </trkpt>
      <trkpt lat="45.6744" lon="6.01366">
        <ele>1367.13</ele>
        <time>2011-10-02T07:19:40Z</time>
      </trkpt>
      <trkpt lat="45.67442" lon="6.01358">
        <ele>1366.65</ele>
        <time>2011-10-02T07:19:41Z</time>
      </trkpt>
      <trkpt lat="45.67444" lon="6.01351">
        <ele>1366.65</ele>
        <time>2011-10-02T07:19:42Z</time>
      </trkpt>
      <trkpt lat="45.67448" lon="6.01343">
        <ele>1366.65</ele>
        <time>2011-10-02T07:19:43Z</time>
      </trkpt>
      <trkpt lat="45.6745" lon="6.01337">
        <ele>1365.69</ele>
        <time>2011-10-02T07:19:44Z</time>
      </trkpt>
      <trkpt lat="45.67451" lon="6.01323">
        <ele>1365.21</ele>
        <time>2011-10-02T07:19:47Z</time>
      </trkpt>
      <trkpt lat="45.67448" lon="6.01321">
        <ele>1365.69</ele>
        <time>2011-10-02T07:19:48Z</time>
      </trkpt>
      <trkpt lat="45.67445" lon="6.0132">
        <ele>1365.21</ele>
        <time>2011-10-02T07:19:49Z</time>
      </trkpt>
      <trkpt lat="45.67443" lon="6.01321">
        <ele>1365.69</ele>
        <time>2011-10-02T07:19:50Z</time>
      </trkpt>
      <trkpt lat="45.67441" lon="6.01322">
        <ele>1365.69</ele>
        <time>2011-10-02T07:19:51Z</time>
      </trkpt>
      <trkpt lat="45.67439" lon="6.01323">
        <ele>1365.69</ele>
        <time>2011-10-02T07:19:52Z</time>
      </trkpt>
      <trkpt lat="45.67437" lon="6.01324">
        <ele>1366.17</ele>
        <time>2011-10-02T07:19:53Z</time>
      </trkpt>
      <trkpt lat="45.67434" lon="6.01325">
        <ele>1365.69</ele>
        <time>2011-10-02T07:19:54Z</time>
      </trkpt>
      <trkpt lat="45.67432" lon="6.01325">
        <ele>1365.69</ele>
        <time>2011-10-02T07:19:55Z</time>
      </trkpt>
      <trkpt lat="45.67429" lon="6.01325">
        <ele>1366.65</ele>
        <time>2011-10-02T07:19:56Z</time>
      </trkpt>
      <trkpt lat="45.67426" lon="6.01325">
        <ele>1366.65</ele>
        <time>2011-10-02T07:19:57Z</time>
      </trkpt>
      <trkpt lat="45.67399" lon="6.01314">
        <ele>1366.65</ele>
        <time>2011-10-02T07:20:05Z</time>
      </trkpt>
      <trkpt lat="45.67396" lon="6.0131">
        <ele>1366.65</ele>
        <time>2011-10-02T07:20:06Z</time>
      </trkpt>
      <trkpt lat="45.6739" lon="6.013">
        <ele>1365.69</ele>
        <time>2011-10-02T07:20:08Z</time>
      </trkpt>
      <trkpt lat="45.67374" lon="6.01276">
        <ele>1362.33</ele>
        <time>2011-10-02T07:20:12Z</time>
      </trkpt>
      <trkpt lat="45.67362" lon="6.01261">
        <ele>1360.4</ele>
        <time>2011-10-02T07:20:15Z</time>
      </trkpt>
      <trkpt lat="45.67336" lon="6.01232">
        <ele>1357.52</ele>
        <time>2011-10-02T07:20:20Z</time>
      </trkpt>
      <trkpt lat="45.67332" lon="6.01225">
        <ele>1358</ele>
        <time>2011-10-02T07:20:21Z</time>
      </trkpt>
      <trkpt lat="45.67326" lon="6.0121">
        <ele>1359.44</ele>
        <time>2011-10-02T07:20:23Z</time>
      </trkpt>
      <trkpt lat="45.67323" lon="6.01204">
        <ele>1358.96</ele>
        <time>2011-10-02T07:20:24Z</time>
      </trkpt>
      <trkpt lat="45.67321" lon="6.012">
        <ele>1359.44</ele>
        <time>2011-10-02T07:20:25Z</time>
      </trkpt>
      <trkpt lat="45.67318" lon="6.01197">
        <ele>1359.44</ele>
        <time>2011-10-02T07:20:26Z</time>
      </trkpt>
      <trkpt lat="45.67315" lon="6.01196">
        <ele>1358.96</ele>
        <time>2011-10-02T07:20:29Z</time>
      </trkpt>
      <trkpt lat="45.67315" lon="6.01196">
        <ele>1358.96</ele>
        <time>2011-10-02T07:20:59Z</time>
      </trkpt>
      <trkpt lat="45.67315" lon="6.01196">
        <ele>1358.96</ele>
        <time>2011-10-02T07:21:08Z</time>
      </trkpt>
      <trkpt lat="45.67312" lon="6.01195">
        <ele>1358.96</ele>
        <time>2011-10-02T07:21:09Z</time>
      </trkpt>
      <trkpt lat="45.67308" lon="6.01196">
        <ele>1358</ele>
        <time>2011-10-02T07:21:10Z</time>
      </trkpt>
      <trkpt lat="45.67304" lon="6.01197">
        <ele>1358.48</ele>
        <time>2011-10-02T07:21:11Z</time>
      </trkpt>
      <trkpt lat="45.673" lon="6.01199">
        <ele>1357.52</ele>
        <time>2011-10-02T07:21:12Z</time>
      </trkpt>
      <trkpt lat="45.67295" lon="6.01202">
        <ele>1357.04</ele>
        <time>2011-10-02T07:21:13Z</time>
      </trkpt>
      <trkpt lat="45.67291" lon="6.01206">
        <ele>1357.52</ele>
        <time>2011-10-02T07:21:14Z</time>
      </trkpt>
      <trkpt lat="45.67285" lon="6.0121">
        <ele>1356.08</ele>
        <time>2011-10-02T07:21:15Z</time>
      </trkpt>
      <trkpt lat="45.6728" lon="6.01213">
        <ele>1356.08</ele>
        <time>2011-10-02T07:21:16Z</time>
      </trkpt>
      <trkpt lat="45.6727" lon="6.0122">
        <ele>1355.6</ele>
        <time>2011-10-02T07:21:18Z</time>
      </trkpt>
      <trkpt lat="45.67257" lon="6.01233">
        <ele>1352.71</ele>
        <time>2011-10-02T07:21:21Z</time>
      </trkpt>
      <trkpt lat="45.67232" lon="6.01251">
        <ele>1355.12</ele>
        <time>2011-10-02T07:21:25Z</time>
      </trkpt>
      <trkpt lat="45.67228" lon="6.01253">
        <ele>1355.12</ele>
        <time>2011-10-02T07:21:26Z</time>
      </trkpt>
      <trkpt lat="45.67224" lon="6.01253">
        <ele>1357.04</ele>
        <time>2011-10-02T07:21:27Z</time>
      </trkpt>
      <trkpt lat="45.67206" lon="6.01246">
        <ele>1354.63</ele>
        <time>2011-10-02T07:21:34Z</time>
      </trkpt>
      <trkpt lat="45.67203" lon="6.01246">
        <ele>1354.15</ele>
        <time>2011-10-02T07:21:36Z</time>
      </trkpt>
      <trkpt lat="45.67202" lon="6.01248">
        <ele>1354.63</ele>
        <time>2011-10-02T07:21:37Z</time>
      </trkpt>
      <trkpt lat="45.67201" lon="6.0125">
        <ele>1354.63</ele>
        <time>2011-10-02T07:21:38Z</time>
      </trkpt>
      <trkpt lat="45.67201" lon="6.01253">
        <ele>1354.63</ele>
        <time>2011-10-02T07:21:40Z</time>
      </trkpt>
      <trkpt lat="45.67202" lon="6.01253">
        <ele>1354.63</ele>
        <time>2011-10-02T07:21:41Z</time>
      </trkpt>
      <trkpt lat="45.67204" lon="6.01252">
        <ele>1355.12</ele>
        <time>2011-10-02T07:21:42Z</time>
      </trkpt>
      <trkpt lat="45.67204" lon="6.01249">
        <ele>1354.63</ele>
        <time>2011-10-02T07:21:43Z</time>
      </trkpt>
      <trkpt lat="45.67205" lon="6.01245">
        <ele>1354.15</ele>
        <time>2011-10-02T07:21:44Z</time>
      </trkpt>
      <trkpt lat="45.67209" lon="6.01233">
        <ele>1354.63</ele>
        <time>2011-10-02T07:21:46Z</time>
      </trkpt>
      <trkpt lat="45.67212" lon="6.01228">
        <ele>1354.15</ele>
        <time>2011-10-02T07:21:47Z</time>
      </trkpt>
      <trkpt lat="45.67219" lon="6.0121">
        <ele>1353.19</ele>
        <time>2011-10-02T07:21:50Z</time>
      </trkpt>
      <trkpt lat="45.67223" lon="6.01197">
        <ele>1354.63</ele>
        <time>2011-10-02T07:21:52Z</time>
      </trkpt>
      <trkpt lat="45.67224" lon="6.01192">
        <ele>1355.6</ele>
        <time>2011-10-02T07:21:53Z</time>
      </trkpt>
      <trkpt lat="45.67224" lon="6.01188">
        <ele>1356.08</ele>
        <time>2011-10-02T07:21:54Z</time>
      </trkpt>
      <trkpt lat="45.67227" lon="6.01168">
        <ele>1356.56</ele>
        <time>2011-10-02T07:22:04Z</time>
      </trkpt>
      <trkpt lat="45.67238" lon="6.01141">
        <ele>1356.08</ele>
        <time>2011-10-02T07:22:10Z</time>
      </trkpt>
      <trkpt lat="45.67241" lon="6.01136">
        <ele>1357.04</ele>
        <time>2011-10-02T07:22:11Z</time>
      </trkpt>
      <trkpt lat="45.67243" lon="6.01132">
        <ele>1358</ele>
        <time>2011-10-02T07:22:12Z</time>
      </trkpt>
      <trkpt lat="45.67244" lon="6.01129">
        <ele>1358.48</ele>
        <time>2011-10-02T07:22:13Z</time>
      </trkpt>
      <trkpt lat="45.67245" lon="6.01126">
        <ele>1358.48</ele>
        <time>2011-10-02T07:22:14Z</time>
      </trkpt>
      <trkpt lat="45.67246" lon="6.01123">
        <ele>1358.48</ele>
        <time>2011-10-02T07:22:15Z</time>
      </trkpt>
      <trkpt lat="45.67252" lon="6.01081">
        <ele>1359.44</ele>
        <time>2011-10-02T07:22:26Z</time>
      </trkpt>
      <trkpt lat="45.67252" lon="6.01045">
        <ele>1362.81</ele>
        <time>2011-10-02T07:22:36Z</time>
      </trkpt>
      <trkpt lat="45.67254" lon="6.01014">
        <ele>1362.33</ele>
        <time>2011-10-02T07:22:44Z</time>
      </trkpt>
      <trkpt lat="45.67254" lon="6.01008">
        <ele>1361.84</ele>
        <time>2011-10-02T07:22:45Z</time>
      </trkpt>
      <trkpt lat="45.67254" lon="6.01002">
        <ele>1361.84</ele>
        <time>2011-10-02T07:22:46Z</time>
      </trkpt>
      <trkpt lat="45.67255" lon="6.00988">
        <ele>1363.77</ele>
        <time>2011-10-02T07:22:49Z</time>
      </trkpt>
      <trkpt lat="45.67256" lon="6.00972">
        <ele>1362.33</ele>
        <time>2011-10-02T07:22:52Z</time>
      </trkpt>
      <trkpt lat="45.67257" lon="6.00964">
        <ele>1361.84</ele>
        <time>2011-10-02T07:22:53Z</time>
      </trkpt>
      <trkpt lat="45.6726" lon="6.00958">
        <ele>1361.36</ele>
        <time>2011-10-02T07:22:54Z</time>
      </trkpt>
      <trkpt lat="45.67262" lon="6.00952">
        <ele>1359.92</ele>
        <time>2011-10-02T07:22:55Z</time>
      </trkpt>
      <trkpt lat="45.67265" lon="6.00947">
        <ele>1360.4</ele>
        <time>2011-10-02T07:22:56Z</time>
      </trkpt>
      <trkpt lat="45.6727" lon="6.00917">
        <ele>1357.04</ele>
        <time>2011-10-02T07:23:03Z</time>
      </trkpt>
      <trkpt lat="45.67268" lon="6.00912">
        <ele>1357.04</ele>
        <time>2011-10-02T07:23:04Z</time>
      </trkpt>
      <trkpt lat="45.67265" lon="6.00906">
        <ele>1355.6</ele>
        <time>2011-10-02T07:23:05Z</time>
      </trkpt>
      <trkpt lat="45.67261" lon="6.00903">
        <ele>1356.08</ele>
        <time>2011-10-02T07:23:06Z</time>
      </trkpt>
      <trkpt lat="45.67259" lon="6.009">
        <ele>1355.6</ele>
        <time>2011-10-02T07:23:07Z</time>
      </trkpt>
      <trkpt lat="45.67256" lon="6.00897">
        <ele>1356.08</ele>
        <time>2011-10-02T07:23:08Z</time>
      </trkpt>
      <trkpt lat="45.67255" lon="6.00894">
        <ele>1356.56</ele>
        <time>2011-10-02T07:23:09Z</time>
      </trkpt>
      <trkpt lat="45.67254" lon="6.00891">
        <ele>1356.56</ele>
        <time>2011-10-02T07:23:10Z</time>
      </trkpt>
      <trkpt lat="45.67254" lon="6.00887">
        <ele>1356.56</ele>
        <time>2011-10-02T07:23:11Z</time>
      </trkpt>
      <trkpt lat="45.67254" lon="6.00884">
        <ele>1357.04</ele>
        <time>2011-10-02T07:23:12Z</time>
      </trkpt>
      <trkpt lat="45.67254" lon="6.00881">
        <ele>1357.52</ele>
        <time>2011-10-02T07:23:13Z</time>
      </trkpt>
      <trkpt lat="45.67254" lon="6.00878">
        <ele>1358</ele>
        <time>2011-10-02T07:23:14Z</time>
      </trkpt>
      <trkpt lat="45.67253" lon="6.00875">
        <ele>1358</ele>
        <time>2011-10-02T07:23:15Z</time>
      </trkpt>
      <trkpt lat="45.67253" lon="6.00872">
        <ele>1357.52</ele>
        <time>2011-10-02T07:23:16Z</time>
      </trkpt>
      <trkpt lat="45.67253" lon="6.00868">
        <ele>1358</ele>
        <time>2011-10-02T07:23:17Z</time>
      </trkpt>
      <trkpt lat="45.67253" lon="6.00864">
        <ele>1357.52</ele>
        <time>2011-10-02T07:23:18Z</time>
      </trkpt>
      <trkpt lat="45.67252" lon="6.00861">
        <ele>1357.04</ele>
        <time>2011-10-02T07:23:19Z</time>
      </trkpt>
      <trkpt lat="45.67251" lon="6.00856">
        <ele>1357.52</ele>
        <time>2011-10-02T07:23:20Z</time>
      </trkpt>
      <trkpt lat="45.6725" lon="6.00853">
        <ele>1358.48</ele>
        <time>2011-10-02T07:23:21Z</time>
      </trkpt>
      <trkpt lat="45.6725" lon="6.0085">
        <ele>1358.48</ele>
        <time>2011-10-02T07:23:22Z</time>
      </trkpt>
      <trkpt lat="45.67249" lon="6.00847">
        <ele>1358.48</ele>
        <time>2011-10-02T07:23:23Z</time>
      </trkpt>
      <trkpt lat="45.67249" lon="6.00845">
        <ele>1358.48</ele>
        <time>2011-10-02T07:23:24Z</time>
      </trkpt>
      <trkpt lat="45.67248" lon="6.00841">
        <ele>1358.96</ele>
        <time>2011-10-02T07:23:25Z</time>
      </trkpt>
      <trkpt lat="45.67248" lon="6.00838">
        <ele>1358.96</ele>
        <time>2011-10-02T07:23:26Z</time>
      </trkpt>
      <trkpt lat="45.67244" lon="6.00814">
        <ele>1362.33</ele>
        <time>2011-10-02T07:23:35Z</time>
      </trkpt>
      <trkpt lat="45.67241" lon="6.008">
        <ele>1365.69</ele>
        <time>2011-10-02T07:23:42Z</time>
      </trkpt>
      <trkpt lat="45.67238" lon="6.00775">
        <ele>1367.61</ele>
        <time>2011-10-02T07:23:53Z</time>
      </trkpt>
      <trkpt lat="45.67238" lon="6.00773">
        <ele>1367.61</ele>
        <time>2011-10-02T07:23:54Z</time>
      </trkpt>
      <trkpt lat="45.67238" lon="6.0077">
        <ele>1368.57</ele>
        <time>2011-10-02T07:23:55Z</time>
      </trkpt>
      <trkpt lat="45.67238" lon="6.00768">
        <ele>1369.54</ele>
        <time>2011-10-02T07:23:56Z</time>
      </trkpt>
      <trkpt lat="45.67238" lon="6.00766">
        <ele>1369.54</ele>
        <time>2011-10-02T07:23:57Z</time>
      </trkpt>
      <trkpt lat="45.67237" lon="6.00764">
        <ele>1369.05</ele>
        <time>2011-10-02T07:23:58Z</time>
      </trkpt>
      <trkpt lat="45.67238" lon="6.00762">
        <ele>1369.05</ele>
        <time>2011-10-02T07:23:59Z</time>
      </trkpt>
      <trkpt lat="45.67237" lon="6.0076">
        <ele>1369.54</ele>
        <time>2011-10-02T07:24:00Z</time>
      </trkpt>
      <trkpt lat="45.67237" lon="6.00758">
        <ele>1369.54</ele>
        <time>2011-10-02T07:24:01Z</time>
      </trkpt>
      <trkpt lat="45.67237" lon="6.00755">
        <ele>1369.05</ele>
        <time>2011-10-02T07:24:02Z</time>
      </trkpt>
      <trkpt lat="45.67236" lon="6.00752">
        <ele>1369.54</ele>
        <time>2011-10-02T07:24:03Z</time>
      </trkpt>
      <trkpt lat="45.67236" lon="6.0075">
        <ele>1369.05</ele>
        <time>2011-10-02T07:24:04Z</time>
      </trkpt>
      <trkpt lat="45.67236" lon="6.00747">
        <ele>1369.54</ele>
        <time>2011-10-02T07:24:05Z</time>
      </trkpt>
      <trkpt lat="45.67236" lon="6.00743">
        <ele>1369.05</ele>
        <time>2011-10-02T07:24:06Z</time>
      </trkpt>
      <trkpt lat="45.67235" lon="6.00739">
        <ele>1367.61</ele>
        <time>2011-10-02T07:24:07Z</time>
      </trkpt>
      <trkpt lat="45.67234" lon="6.00734">
        <ele>1367.61</ele>
        <time>2011-10-02T07:24:08Z</time>
      </trkpt>
      <trkpt lat="45.67233" lon="6.00729">
        <ele>1367.61</ele>
        <time>2011-10-02T07:24:09Z</time>
      </trkpt>
      <trkpt lat="45.67233" lon="6.00723">
        <ele>1367.13</ele>
        <time>2011-10-02T07:24:10Z</time>
      </trkpt>
      <trkpt lat="45.67231" lon="6.00702">
        <ele>1365.69</ele>
        <time>2011-10-02T07:24:13Z</time>
      </trkpt>
      <trkpt lat="45.67212" lon="6.00662">
        <ele>1362.81</ele>
        <time>2011-10-02T07:24:24Z</time>
      </trkpt>
      <trkpt lat="45.67209" lon="6.00659">
        <ele>1362.81</ele>
        <time>2011-10-02T07:24:25Z</time>
      </trkpt>
      <trkpt lat="45.67172" lon="6.0064">
        <ele>1359.44</ele>
        <time>2011-10-02T07:24:37Z</time>
      </trkpt>
      <trkpt lat="45.67115" lon="6.00582">
        <ele>1360.88</ele>
        <time>2011-10-02T07:24:50Z</time>
      </trkpt>
      <trkpt lat="45.67099" lon="6.00626">
        <ele>1358.48</ele>
        <time>2011-10-02T07:25:04Z</time>
      </trkpt>
      <trkpt lat="45.67094" lon="6.00691">
        <ele>1358.48</ele>
        <time>2011-10-02T07:25:12Z</time>
      </trkpt>
      <trkpt lat="45.67091" lon="6.00744">
        <ele>1360.4</ele>
        <time>2011-10-02T07:25:20Z</time>
      </trkpt>
      <trkpt lat="45.67071" lon="6.00796">
        <ele>1361.84</ele>
        <time>2011-10-02T07:25:34Z</time>
      </trkpt>
      <trkpt lat="45.67064" lon="6.00799">
        <ele>1363.77</ele>
        <time>2011-10-02T07:25:37Z</time>
      </trkpt>
      <trkpt lat="45.67057" lon="6.008">
        <ele>1364.73</ele>
        <time>2011-10-02T07:25:40Z</time>
      </trkpt>
      <trkpt lat="45.67028" lon="6.00768">
        <ele>1365.21</ele>
        <time>2011-10-02T07:25:52Z</time>
      </trkpt>
      <trkpt lat="45.67025" lon="6.00756">
        <ele>1367.13</ele>
        <time>2011-10-02T07:25:56Z</time>
      </trkpt>
      <trkpt lat="45.67007" lon="6.00725">
        <ele>1366.17</ele>
        <time>2011-10-02T07:26:08Z</time>
      </trkpt>
      <trkpt lat="45.6699" lon="6.00687">
        <ele>1364.73</ele>
        <time>2011-10-02T07:26:14Z</time>
      </trkpt>
      <trkpt lat="45.66989" lon="6.0068">
        <ele>1364.73</ele>
        <time>2011-10-02T07:26:15Z</time>
      </trkpt>
      <trkpt lat="45.66948" lon="6.00631">
        <ele>1363.77</ele>
        <time>2011-10-02T07:26:29Z</time>
      </trkpt>
      <trkpt lat="45.66886" lon="6.00603">
        <ele>1362.81</ele>
        <time>2011-10-02T07:26:42Z</time>
      </trkpt>
      <trkpt lat="45.66881" lon="6.006">
        <ele>1362.81</ele>
        <time>2011-10-02T07:26:43Z</time>
      </trkpt>
      <trkpt lat="45.66876" lon="6.00598">
        <ele>1363.29</ele>
        <time>2011-10-02T07:26:44Z</time>
      </trkpt>
      <trkpt lat="45.66866" lon="6.00592">
        <ele>1363.77</ele>
        <time>2011-10-02T07:26:46Z</time>
      </trkpt>
      <trkpt lat="45.66862" lon="6.00588">
        <ele>1362.81</ele>
        <time>2011-10-02T07:26:47Z</time>
      </trkpt>
      <trkpt lat="45.66857" lon="6.00585">
        <ele>1362.33</ele>
        <time>2011-10-02T07:26:48Z</time>
      </trkpt>
      <trkpt lat="45.66853" lon="6.00582">
        <ele>1363.29</ele>
        <time>2011-10-02T07:26:49Z</time>
      </trkpt>
      <trkpt lat="45.66849" lon="6.00579">
        <ele>1362.81</ele>
        <time>2011-10-02T07:26:50Z</time>
      </trkpt>
      <trkpt lat="45.66845" lon="6.00575">
        <ele>1362.33</ele>
        <time>2011-10-02T07:26:51Z</time>
      </trkpt>
      <trkpt lat="45.6684" lon="6.00573">
        <ele>1362.33</ele>
        <time>2011-10-02T07:26:52Z</time>
      </trkpt>
      <trkpt lat="45.66835" lon="6.00569">
        <ele>1362.33</ele>
        <time>2011-10-02T07:26:53Z</time>
      </trkpt>
      <trkpt lat="45.66826" lon="6.00559">
        <ele>1362.81</ele>
        <time>2011-10-02T07:26:55Z</time>
      </trkpt>
      <trkpt lat="45.66822" lon="6.00553">
        <ele>1362.33</ele>
        <time>2011-10-02T07:26:56Z</time>
      </trkpt>
      <trkpt lat="45.66819" lon="6.00547">
        <ele>1361.84</ele>
        <time>2011-10-02T07:26:57Z</time>
      </trkpt>
      <trkpt lat="45.66815" lon="6.00541">
        <ele>1361.36</ele>
        <time>2011-10-02T07:26:58Z</time>
      </trkpt>
      <trkpt lat="45.6681" lon="6.00536">
        <ele>1361.36</ele>
        <time>2011-10-02T07:26:59Z</time>
      </trkpt>
      <trkpt lat="45.66806" lon="6.00531">
        <ele>1361.36</ele>
        <time>2011-10-02T07:27:00Z</time>
      </trkpt>
      <trkpt lat="45.66802" lon="6.00528">
        <ele>1360.88</ele>
        <time>2011-10-02T07:27:01Z</time>
      </trkpt>
      <trkpt lat="45.66798" lon="6.00524">
        <ele>1361.36</ele>
        <time>2011-10-02T07:27:02Z</time>
      </trkpt>
      <trkpt lat="45.66795" lon="6.0052">
        <ele>1360.88</ele>
        <time>2011-10-02T07:27:03Z</time>
      </trkpt>
      <trkpt lat="45.66787" lon="6.0051">
        <ele>1360.4</ele>
        <time>2011-10-02T07:27:05Z</time>
      </trkpt>
      <trkpt lat="45.66784" lon="6.00503">
        <ele>1359.92</ele>
        <time>2011-10-02T07:27:06Z</time>
      </trkpt>
      <trkpt lat="45.66761" lon="6.00443">
        <ele>1361.84</ele>
        <time>2011-10-02T07:27:18Z</time>
      </trkpt>
      <trkpt lat="45.66756" lon="6.00433">
        <ele>1361.36</ele>
        <time>2011-10-02T07:27:21Z</time>
      </trkpt>
      <trkpt lat="45.66718" lon="6.00401">
        <ele>1359.92</ele>
        <time>2011-10-02T07:27:32Z</time>
      </trkpt>
      <trkpt lat="45.667" lon="6.00388">
        <ele>1360.4</ele>
        <time>2011-10-02T07:27:36Z</time>
      </trkpt>
      <trkpt lat="45.66695" lon="6.00384">
        <ele>1360.4</ele>
        <time>2011-10-02T07:27:37Z</time>
      </trkpt>
      <trkpt lat="45.66665" lon="6.00358">
        <ele>1359.44</ele>
        <time>2011-10-02T07:27:45Z</time>
      </trkpt>
      <trkpt lat="45.66645" lon="6.00316">
        <ele>1362.81</ele>
        <time>2011-10-02T07:27:55Z</time>
      </trkpt>
      <trkpt lat="45.66613" lon="6.00252">
        <ele>1364.73</ele>
        <time>2011-10-02T07:28:10Z</time>
      </trkpt>
      <trkpt lat="45.66602" lon="6.00243">
        <ele>1365.21</ele>
        <time>2011-10-02T07:28:21Z</time>
      </trkpt>
      <trkpt lat="45.66602" lon="6.00243">
        <ele>1365.69</ele>
        <time>2011-10-02T07:28:50Z</time>
      </trkpt>
      <trkpt lat="45.66586" lon="6.0023">
        <ele>1363.77</ele>
        <time>2011-10-02T07:29:02Z</time>
      </trkpt>
      <trkpt lat="45.66581" lon="6.00226">
        <ele>1364.25</ele>
        <time>2011-10-02T07:29:13Z</time>
      </trkpt>
      <trkpt lat="45.66581" lon="6.00226">
        <ele>1363.77</ele>
        <time>2011-10-02T07:29:39Z</time>
      </trkpt>
      <trkpt lat="45.66584" lon="6.00223">
        <ele>1364.25</ele>
        <time>2011-10-02T07:29:52Z</time>
      </trkpt>
      <trkpt lat="45.66585" lon="6.00225">
        <ele>1364.25</ele>
        <time>2011-10-02T07:29:53Z</time>
      </trkpt>
      <trkpt lat="45.66587" lon="6.00227">
        <ele>1364.25</ele>
        <time>2011-10-02T07:29:54Z</time>
      </trkpt>
      <trkpt lat="45.66611" lon="6.0025">
        <ele>1364.73</ele>
        <time>2011-10-02T07:30:05Z</time>
      </trkpt>
      <trkpt lat="45.66633" lon="6.00293">
        <ele>1363.77</ele>
        <time>2011-10-02T07:30:18Z</time>
      </trkpt>
      <trkpt lat="45.66646" lon="6.00325">
        <ele>1362.33</ele>
        <time>2011-10-02T07:30:30Z</time>
      </trkpt>
      <trkpt lat="45.66656" lon="6.00346">
        <ele>1361.36</ele>
        <time>2011-10-02T07:30:42Z</time>
      </trkpt>
      <trkpt lat="45.66668" lon="6.00374">
        <ele>1359.92</ele>
        <time>2011-10-02T07:30:55Z</time>
      </trkpt>
      <trkpt lat="45.66671" lon="6.00376">
        <ele>1360.4</ele>
        <time>2011-10-02T07:30:57Z</time>
      </trkpt>
      <trkpt lat="45.66672" lon="6.00375">
        <ele>1359.92</ele>
        <time>2011-10-02T07:31:14Z</time>
      </trkpt>
      <trkpt lat="45.66672" lon="6.00375">
        <ele>1358.96</ele>
        <time>2011-10-02T07:31:47Z</time>
      </trkpt>
      <trkpt lat="45.66672" lon="6.00375">
        <ele>1359.92</ele>
        <time>2011-10-02T07:32:14Z</time>
      </trkpt>
      <trkpt lat="45.66672" lon="6.00375">
        <ele>1360.4</ele>
        <time>2011-10-02T07:32:18Z</time>
      </trkpt>
      <trkpt lat="45.66652" lon="6.00338">
        <ele>1362.33</ele>
        <time>2011-10-02T07:32:30Z</time>
      </trkpt>
      <trkpt lat="45.6663" lon="6.00282">
        <ele>1364.73</ele>
        <time>2011-10-02T07:32:42Z</time>
      </trkpt>
      <trkpt lat="45.66596" lon="6.00236">
        <ele>1365.21</ele>
        <time>2011-10-02T07:32:55Z</time>
      </trkpt>
      <trkpt lat="45.66584" lon="6.00228">
        <ele>1364.73</ele>
        <time>2011-10-02T07:32:58Z</time>
      </trkpt>
      <trkpt lat="45.6658" lon="6.00223">
        <ele>1364.25</ele>
        <time>2011-10-02T07:32:59Z</time>
      </trkpt>
      <trkpt lat="45.6657" lon="6.00211">
        <ele>1364.25</ele>
        <time>2011-10-02T07:33:01Z</time>
      </trkpt>
      <trkpt lat="45.66554" lon="6.00189">
        <ele>1364.25</ele>
        <time>2011-10-02T07:33:05Z</time>
      </trkpt>
      <trkpt lat="45.66541" lon="6.00178">
        <ele>1365.69</ele>
        <time>2011-10-02T07:33:08Z</time>
      </trkpt>
      <trkpt lat="45.66538" lon="6.00174">
        <ele>1365.21</ele>
        <time>2011-10-02T07:33:09Z</time>
      </trkpt>
      <trkpt lat="45.66534" lon="6.00169">
        <ele>1365.69</ele>
        <time>2011-10-02T07:33:10Z</time>
      </trkpt>
      <trkpt lat="45.6652" lon="6.00153">
        <ele>1365.69</ele>
        <time>2011-10-02T07:33:14Z</time>
      </trkpt>
      <trkpt lat="45.6651" lon="6.00147">
        <ele>1365.69</ele>
        <time>2011-10-02T07:33:17Z</time>
      </trkpt>
      <trkpt lat="45.66505" lon="6.00146">
        <ele>1365.69</ele>
        <time>2011-10-02T07:33:18Z</time>
      </trkpt>
      <trkpt lat="45.66484" lon="6.00138">
        <ele>1365.69</ele>
        <time>2011-10-02T07:33:23Z</time>
      </trkpt>
      <trkpt lat="45.66476" lon="6.00132">
        <ele>1366.17</ele>
        <time>2011-10-02T07:33:25Z</time>
      </trkpt>
      <trkpt lat="45.66452" lon="6.00097">
        <ele>1367.61</ele>
        <time>2011-10-02T07:33:34Z</time>
      </trkpt>
      <trkpt lat="45.6645" lon="6.00092">
        <ele>1367.61</ele>
        <time>2011-10-02T07:33:35Z</time>
      </trkpt>
      <trkpt lat="45.66448" lon="6.00088">
        <ele>1367.13</ele>
        <time>2011-10-02T07:33:36Z</time>
      </trkpt>
      <trkpt lat="45.66446" lon="6.00083">
        <ele>1367.61</ele>
        <time>2011-10-02T07:33:37Z</time>
      </trkpt>
      <trkpt lat="45.66444" lon="6.00079">
        <ele>1368.09</ele>
        <time>2011-10-02T07:33:38Z</time>
      </trkpt>
      <trkpt lat="45.66423" lon="6.00052">
        <ele>1369.54</ele>
        <time>2011-10-02T07:33:49Z</time>
      </trkpt>
      <trkpt lat="45.66418" lon="6.00049">
        <ele>1369.05</ele>
        <time>2011-10-02T07:33:57Z</time>
      </trkpt>
      <trkpt lat="45.66417" lon="6.00047">
        <ele>1369.05</ele>
        <time>2011-10-02T07:33:58Z</time>
      </trkpt>
      <trkpt lat="45.66415" lon="6.00044">
        <ele>1370.02</ele>
        <time>2011-10-02T07:33:59Z</time>
      </trkpt>
      <trkpt lat="45.66396" lon="6.00018">
        <ele>1371.46</ele>
        <time>2011-10-02T07:34:09Z</time>
      </trkpt>
      <trkpt lat="45.66369" lon="5.99981">
        <ele>1371.94</ele>
        <time>2011-10-02T07:34:21Z</time>
      </trkpt>
      <trkpt lat="45.66355" lon="5.99944">
        <ele>1372.42</ele>
        <time>2011-10-02T07:34:32Z</time>
      </trkpt>
      <trkpt lat="45.66354" lon="5.99914">
        <ele>1372.42</ele>
        <time>2011-10-02T07:34:41Z</time>
      </trkpt>
      <trkpt lat="45.66354" lon="5.99914">
        <ele>1373.38</ele>
        <time>2011-10-02T07:34:56Z</time>
      </trkpt>
      <trkpt lat="45.66354" lon="5.99867">
        <ele>1374.34</ele>
        <time>2011-10-02T07:35:11Z</time>
      </trkpt>
      <trkpt lat="45.66324" lon="5.99829">
        <ele>1371.46</ele>
        <time>2011-10-02T07:35:24Z</time>
      </trkpt>
      <trkpt lat="45.66306" lon="5.99791">
        <ele>1370.02</ele>
        <time>2011-10-02T07:35:32Z</time>
      </trkpt>
      <trkpt lat="45.6628" lon="5.99757">
        <ele>1371.46</ele>
        <time>2011-10-02T07:35:43Z</time>
      </trkpt>
      <trkpt lat="45.66251" lon="5.99726">
        <ele>1371.94</ele>
        <time>2011-10-02T07:35:52Z</time>
      </trkpt>
      <trkpt lat="45.66209" lon="5.99702">
        <ele>1368.57</ele>
        <time>2011-10-02T07:36:02Z</time>
      </trkpt>
      <trkpt lat="45.66204" lon="5.99699">
        <ele>1368.57</ele>
        <time>2011-10-02T07:36:03Z</time>
      </trkpt>
      <trkpt lat="45.66194" lon="5.99687">
        <ele>1368.09</ele>
        <time>2011-10-02T07:36:05Z</time>
      </trkpt>
      <trkpt lat="45.6619" lon="5.99677">
        <ele>1368.09</ele>
        <time>2011-10-02T07:36:06Z</time>
      </trkpt>
      <trkpt lat="45.66184" lon="5.99662">
        <ele>1367.61</ele>
        <time>2011-10-02T07:36:08Z</time>
      </trkpt>
      <trkpt lat="45.66181" lon="5.99657">
        <ele>1367.61</ele>
        <time>2011-10-02T07:36:09Z</time>
      </trkpt>
      <trkpt lat="45.66177" lon="5.99654">
        <ele>1367.61</ele>
        <time>2011-10-02T07:36:10Z</time>
      </trkpt>
      <trkpt lat="45.66171" lon="5.99652">
        <ele>1367.13</ele>
        <time>2011-10-02T07:36:11Z</time>
      </trkpt>
      <trkpt lat="45.66167" lon="5.99652">
        <ele>1367.13</ele>
        <time>2011-10-02T07:36:12Z</time>
      </trkpt>
      <trkpt lat="45.66162" lon="5.99653">
        <ele>1366.17</ele>
        <time>2011-10-02T07:36:13Z</time>
      </trkpt>
      <trkpt lat="45.66158" lon="5.99653">
        <ele>1366.17</ele>
        <time>2011-10-02T07:36:14Z</time>
      </trkpt>
      <trkpt lat="45.66152" lon="5.99654">
        <ele>1365.69</ele>
        <time>2011-10-02T07:36:15Z</time>
      </trkpt>
      <trkpt lat="45.66146" lon="5.99656">
        <ele>1364.73</ele>
        <time>2011-10-02T07:36:16Z</time>
      </trkpt>
      <trkpt lat="45.66133" lon="5.99657">
        <ele>1362.81</ele>
        <time>2011-10-02T07:36:18Z</time>
      </trkpt>
      <trkpt lat="45.66126" lon="5.99658">
        <ele>1361.84</ele>
        <time>2011-10-02T07:36:19Z</time>
      </trkpt>
      <trkpt lat="45.66119" lon="5.99658">
        <ele>1361.36</ele>
        <time>2011-10-02T07:36:20Z</time>
      </trkpt>
      <trkpt lat="45.66098" lon="5.99663">
        <ele>1360.88</ele>
        <time>2011-10-02T07:36:23Z</time>
      </trkpt>
      <trkpt lat="45.66087" lon="5.99667">
        <ele>1361.84</ele>
        <time>2011-10-02T07:36:25Z</time>
      </trkpt>
      <trkpt lat="45.66082" lon="5.99666">
        <ele>1361.84</ele>
        <time>2011-10-02T07:36:26Z</time>
      </trkpt>
      <trkpt lat="45.66071" lon="5.9966">
        <ele>1359.92</ele>
        <time>2011-10-02T07:36:28Z</time>
      </trkpt>
      <trkpt lat="45.66066" lon="5.99656">
        <ele>1359.92</ele>
        <time>2011-10-02T07:36:29Z</time>
      </trkpt>
      <trkpt lat="45.66061" lon="5.99651">
        <ele>1359.44</ele>
        <time>2011-10-02T07:36:30Z</time>
      </trkpt>
      <trkpt lat="45.66056" lon="5.99647">
        <ele>1358.96</ele>
        <time>2011-10-02T07:36:31Z</time>
      </trkpt>
      <trkpt lat="45.66052" lon="5.99644">
        <ele>1358.48</ele>
        <time>2011-10-02T07:36:32Z</time>
      </trkpt>
      <trkpt lat="45.66049" lon="5.99642">
        <ele>1358.96</ele>
        <time>2011-10-02T07:36:33Z</time>
      </trkpt>
      <trkpt lat="45.66049" lon="5.9964">
        <ele>1358.48</ele>
        <time>2011-10-02T07:36:41Z</time>
      </trkpt>
      <trkpt lat="45.66049" lon="5.99639">
        <ele>1358.96</ele>
        <time>2011-10-02T07:36:57Z</time>
      </trkpt>
      <trkpt lat="45.6605" lon="5.99639">
        <ele>1358.96</ele>
        <time>2011-10-02T07:37:22Z</time>
      </trkpt>
      <trkpt lat="45.66047" lon="5.99639">
        <ele>1358.96</ele>
        <time>2011-10-02T07:37:37Z</time>
      </trkpt>
      <trkpt lat="45.66046" lon="5.99638">
        <ele>1358.96</ele>
        <time>2011-10-02T07:37:38Z</time>
      </trkpt>
      <trkpt lat="45.66045" lon="5.99637">
        <ele>1359.44</ele>
        <time>2011-10-02T07:37:39Z</time>
      </trkpt>
      <trkpt lat="45.66043" lon="5.99635">
        <ele>1358.96</ele>
        <time>2011-10-02T07:37:40Z</time>
      </trkpt>
      <trkpt lat="45.6604" lon="5.99631">
        <ele>1358.96</ele>
        <time>2011-10-02T07:37:41Z</time>
      </trkpt>
      <trkpt lat="45.66039" lon="5.99627">
        <ele>1359.44</ele>
        <time>2011-10-02T07:37:42Z</time>
      </trkpt>
      <trkpt lat="45.66038" lon="5.99622">
        <ele>1359.44</ele>
        <time>2011-10-02T07:37:43Z</time>
      </trkpt>
      <trkpt lat="45.66029" lon="5.99574">
        <ele>1360.88</ele>
        <time>2011-10-02T07:37:53Z</time>
      </trkpt>
      <trkpt lat="45.66007" lon="5.99538">
        <ele>1361.36</ele>
        <time>2011-10-02T07:38:04Z</time>
      </trkpt>
      <trkpt lat="45.66006" lon="5.99539">
        <ele>1361.84</ele>
        <time>2011-10-02T07:38:05Z</time>
      </trkpt>
      <trkpt lat="45.66005" lon="5.99538">
        <ele>1361.84</ele>
        <time>2011-10-02T07:38:06Z</time>
      </trkpt>
      <trkpt lat="45.66002" lon="5.99537">
        <ele>1361.84</ele>
        <time>2011-10-02T07:38:07Z</time>
      </trkpt>
      <trkpt lat="45.66" lon="5.99535">
        <ele>1362.81</ele>
        <time>2011-10-02T07:38:08Z</time>
      </trkpt>
      <trkpt lat="45.65999" lon="5.99533">
        <ele>1362.33</ele>
        <time>2011-10-02T07:38:09Z</time>
      </trkpt>
      <trkpt lat="45.65997" lon="5.9953">
        <ele>1363.29</ele>
        <time>2011-10-02T07:38:10Z</time>
      </trkpt>
      <trkpt lat="45.65998" lon="5.99528">
        <ele>1363.29</ele>
        <time>2011-10-02T07:38:11Z</time>
      </trkpt>
      <trkpt lat="45.65998" lon="5.99525">
        <ele>1363.29</ele>
        <time>2011-10-02T07:38:12Z</time>
      </trkpt>
      <trkpt lat="45.65998" lon="5.99523">
        <ele>1362.81</ele>
        <time>2011-10-02T07:38:13Z</time>
      </trkpt>
      <trkpt lat="45.65998" lon="5.9952">
        <ele>1362.81</ele>
        <time>2011-10-02T07:38:14Z</time>
      </trkpt>
      <trkpt lat="45.66001" lon="5.99489">
        <ele>1364.73</ele>
        <time>2011-10-02T07:38:24Z</time>
      </trkpt>
      <trkpt lat="45.66" lon="5.99487">
        <ele>1364.73</ele>
        <time>2011-10-02T07:38:25Z</time>
      </trkpt>
      <trkpt lat="45.65999" lon="5.99484">
        <ele>1365.21</ele>
        <time>2011-10-02T07:38:26Z</time>
      </trkpt>
      <trkpt lat="45.65998" lon="5.99482">
        <ele>1365.21</ele>
        <time>2011-10-02T07:38:27Z</time>
      </trkpt>
      <trkpt lat="45.65997" lon="5.9948">
        <ele>1365.69</ele>
        <time>2011-10-02T07:38:28Z</time>
      </trkpt>
      <trkpt lat="45.65996" lon="5.99478">
        <ele>1364.73</ele>
        <time>2011-10-02T07:38:29Z</time>
      </trkpt>
      <trkpt lat="45.65995" lon="5.99476">
        <ele>1365.21</ele>
        <time>2011-10-02T07:38:30Z</time>
      </trkpt>
      <trkpt lat="45.65995" lon="5.99473">
        <ele>1365.21</ele>
        <time>2011-10-02T07:38:31Z</time>
      </trkpt>
      <trkpt lat="45.65993" lon="5.99459">
        <ele>1363.77</ele>
        <time>2011-10-02T07:38:35Z</time>
      </trkpt>
      <trkpt lat="45.65989" lon="5.99393">
        <ele>1362.33</ele>
        <time>2011-10-02T07:38:49Z</time>
      </trkpt>
      <trkpt lat="45.65965" lon="5.99332">
        <ele>1359.92</ele>
        <time>2011-10-02T07:39:02Z</time>
      </trkpt>
      <trkpt lat="45.65946" lon="5.9928">
        <ele>1359.44</ele>
        <time>2011-10-02T07:39:15Z</time>
      </trkpt>
      <trkpt lat="45.65915" lon="5.99234">
        <ele>1358.96</ele>
        <time>2011-10-02T07:39:28Z</time>
      </trkpt>
      <trkpt lat="45.65883" lon="5.99194">
        <ele>1359.44</ele>
        <time>2011-10-02T07:39:41Z</time>
      </trkpt>
      <trkpt lat="45.65879" lon="5.99194">
        <ele>1359.44</ele>
        <time>2011-10-02T07:39:52Z</time>
      </trkpt>
      <trkpt lat="45.65878" lon="5.99198">
        <ele>1360.4</ele>
        <time>2011-10-02T07:40:08Z</time>
      </trkpt>
      <trkpt lat="45.65877" lon="5.99201">
        <ele>1359.92</ele>
        <time>2011-10-02T07:40:09Z</time>
      </trkpt>
      <trkpt lat="45.65876" lon="5.99204">
        <ele>1360.4</ele>
        <time>2011-10-02T07:40:10Z</time>
      </trkpt>
      <trkpt lat="45.65875" lon="5.99207">
        <ele>1360.4</ele>
        <time>2011-10-02T07:40:11Z</time>
      </trkpt>
      <trkpt lat="45.65875" lon="5.99211">
        <ele>1359.92</ele>
        <time>2011-10-02T07:40:12Z</time>
      </trkpt>
      <trkpt lat="45.65874" lon="5.99215">
        <ele>1359.92</ele>
        <time>2011-10-02T07:40:13Z</time>
      </trkpt>
      <trkpt lat="45.65857" lon="5.99256">
        <ele>1361.36</ele>
        <time>2011-10-02T07:40:25Z</time>
      </trkpt>
      <trkpt lat="45.65852" lon="5.99257">
        <ele>1362.81</ele>
        <time>2011-10-02T07:40:30Z</time>
      </trkpt>
      <trkpt lat="45.65851" lon="5.99256">
        <ele>1362.33</ele>
        <time>2011-10-02T07:40:31Z</time>
      </trkpt>
      <trkpt lat="45.65825" lon="5.99253">
        <ele>1363.29</ele>
        <time>2011-10-02T07:40:44Z</time>
      </trkpt>
      <trkpt lat="45.65794" lon="5.99268">
        <ele>1363.29</ele>
        <time>2011-10-02T07:40:56Z</time>
      </trkpt>
      <trkpt lat="45.6577" lon="5.99263">
        <ele>1363.29</ele>
        <time>2011-10-02T07:41:07Z</time>
      </trkpt>
      <trkpt lat="45.65764" lon="5.99263">
        <ele>1362.33</ele>
        <time>2011-10-02T07:41:11Z</time>
      </trkpt>
      <trkpt lat="45.65757" lon="5.99253">
        <ele>1360.4</ele>
        <time>2011-10-02T07:41:16Z</time>
      </trkpt>
      <trkpt lat="45.65753" lon="5.99243">
        <ele>1359.92</ele>
        <time>2011-10-02T07:41:20Z</time>
      </trkpt>
      <trkpt lat="45.65752" lon="5.99242">
        <ele>1359.92</ele>
        <time>2011-10-02T07:41:21Z</time>
      </trkpt>
      <trkpt lat="45.65748" lon="5.99243">
        <ele>1359.92</ele>
        <time>2011-10-02T07:41:24Z</time>
      </trkpt>
      <trkpt lat="45.65747" lon="5.99244">
        <ele>1359.92</ele>
        <time>2011-10-02T07:41:25Z</time>
      </trkpt>
      <trkpt lat="45.65739" lon="5.99242">
        <ele>1360.88</ele>
        <time>2011-10-02T07:41:32Z</time>
      </trkpt>
      <trkpt lat="45.65737" lon="5.99242">
        <ele>1360.88</ele>
        <time>2011-10-02T07:41:33Z</time>
      </trkpt>
      <trkpt lat="45.65736" lon="5.99241">
        <ele>1361.36</ele>
        <time>2011-10-02T07:41:34Z</time>
      </trkpt>
      <trkpt lat="45.6573" lon="5.99241">
        <ele>1362.81</ele>
        <time>2011-10-02T07:41:47Z</time>
      </trkpt>
      <trkpt lat="45.65726" lon="5.99244">
        <ele>1361.36</ele>
        <time>2011-10-02T07:41:54Z</time>
      </trkpt>
      <trkpt lat="45.65711" lon="5.9925">
        <ele>1361.84</ele>
        <time>2011-10-02T07:42:02Z</time>
      </trkpt>
      <trkpt lat="45.65696" lon="5.99241">
        <ele>1362.33</ele>
        <time>2011-10-02T07:42:12Z</time>
      </trkpt>
      <trkpt lat="45.65694" lon="5.99241">
        <ele>1362.33</ele>
        <time>2011-10-02T07:42:13Z</time>
      </trkpt>
      <trkpt lat="45.65693" lon="5.9924">
        <ele>1362.33</ele>
        <time>2011-10-02T07:42:14Z</time>
      </trkpt>
      <trkpt lat="45.65691" lon="5.99239">
        <ele>1362.33</ele>
        <time>2011-10-02T07:42:15Z</time>
      </trkpt>
      <trkpt lat="45.6569" lon="5.99239">
        <ele>1362.33</ele>
        <time>2011-10-02T07:42:16Z</time>
      </trkpt>
      <trkpt lat="45.65662" lon="5.99246">
        <ele>1360.4</ele>
        <time>2011-10-02T07:42:29Z</time>
      </trkpt>
      <trkpt lat="45.65661" lon="5.99247">
        <ele>1360.4</ele>
        <time>2011-10-02T07:42:30Z</time>
      </trkpt>
      <trkpt lat="45.65633" lon="5.99259">
        <ele>1360.4</ele>
        <time>2011-10-02T07:42:41Z</time>
      </trkpt>
      <trkpt lat="45.65616" lon="5.99269">
        <ele>1358</ele>
        <time>2011-10-02T07:42:53Z</time>
      </trkpt>
      <trkpt lat="45.65612" lon="5.99269">
        <ele>1356.56</ele>
        <time>2011-10-02T07:42:56Z</time>
      </trkpt>
      <trkpt lat="45.65609" lon="5.99268">
        <ele>1356.08</ele>
        <time>2011-10-02T07:42:58Z</time>
      </trkpt>
      <trkpt lat="45.65579" lon="5.99285">
        <ele>1354.63</ele>
        <time>2011-10-02T07:43:12Z</time>
      </trkpt>
      <trkpt lat="45.65542" lon="5.99268">
        <ele>1353.67</ele>
        <time>2011-10-02T07:43:25Z</time>
      </trkpt>
      <trkpt lat="45.65526" lon="5.99256">
        <ele>1354.15</ele>
        <time>2011-10-02T07:43:31Z</time>
      </trkpt>
      <trkpt lat="45.65502" lon="5.99256">
        <ele>1350.79</ele>
        <time>2011-10-02T07:43:40Z</time>
      </trkpt>
      <trkpt lat="45.65486" lon="5.99238">
        <ele>1346.94</ele>
        <time>2011-10-02T07:43:46Z</time>
      </trkpt>
      <trkpt lat="45.65458" lon="5.99185">
        <ele>1345.98</ele>
        <time>2011-10-02T07:43:58Z</time>
      </trkpt>
      <trkpt lat="45.65451" lon="5.99177">
        <ele>1347.43</ele>
        <time>2011-10-02T07:44:01Z</time>
      </trkpt>
      <trkpt lat="45.65447" lon="5.99174">
        <ele>1346.94</ele>
        <time>2011-10-02T07:44:12Z</time>
      </trkpt>
      <trkpt lat="45.65443" lon="5.99172">
        <ele>1345.98</ele>
        <time>2011-10-02T07:44:16Z</time>
      </trkpt>
      <trkpt lat="45.6544" lon="5.9917">
        <ele>1345.5</ele>
        <time>2011-10-02T07:44:17Z</time>
      </trkpt>
      <trkpt lat="45.65431" lon="5.99165">
        <ele>1344.54</ele>
        <time>2011-10-02T07:44:19Z</time>
      </trkpt>
      <trkpt lat="45.65411" lon="5.99162">
        <ele>1342.14</ele>
        <time>2011-10-02T07:44:22Z</time>
      </trkpt>
      <trkpt lat="45.65397" lon="5.99159">
        <ele>1340.7</ele>
        <time>2011-10-02T07:44:24Z</time>
      </trkpt>
      <trkpt lat="45.6539" lon="5.99156">
        <ele>1340.7</ele>
        <time>2011-10-02T07:44:25Z</time>
      </trkpt>
      <trkpt lat="45.65384" lon="5.99152">
        <ele>1340.22</ele>
        <time>2011-10-02T07:44:26Z</time>
      </trkpt>
      <trkpt lat="45.65377" lon="5.99149">
        <ele>1340.7</ele>
        <time>2011-10-02T07:44:27Z</time>
      </trkpt>
      <trkpt lat="45.65372" lon="5.99148">
        <ele>1340.7</ele>
        <time>2011-10-02T07:44:28Z</time>
      </trkpt>
      <trkpt lat="45.65367" lon="5.99149">
        <ele>1341.66</ele>
        <time>2011-10-02T07:44:29Z</time>
      </trkpt>
      <trkpt lat="45.65361" lon="5.99147">
        <ele>1341.66</ele>
        <time>2011-10-02T07:44:31Z</time>
      </trkpt>
      <trkpt lat="45.65358" lon="5.99145">
        <ele>1340.7</ele>
        <time>2011-10-02T07:44:32Z</time>
      </trkpt>
      <trkpt lat="45.65355" lon="5.99141">
        <ele>1340.7</ele>
        <time>2011-10-02T07:44:33Z</time>
      </trkpt>
      <trkpt lat="45.65353" lon="5.99135">
        <ele>1340.22</ele>
        <time>2011-10-02T07:44:34Z</time>
      </trkpt>
      <trkpt lat="45.6535" lon="5.99129">
        <ele>1340.7</ele>
        <time>2011-10-02T07:44:35Z</time>
      </trkpt>
      <trkpt lat="45.65347" lon="5.99122">
        <ele>1339.25</ele>
        <time>2011-10-02T07:44:36Z</time>
      </trkpt>
      <trkpt lat="45.65343" lon="5.99116">
        <ele>1339.25</ele>
        <time>2011-10-02T07:44:37Z</time>
      </trkpt>
      <trkpt lat="45.65339" lon="5.9911">
        <ele>1338.77</ele>
        <time>2011-10-02T07:44:38Z</time>
      </trkpt>
      <trkpt lat="45.65334" lon="5.99104">
        <ele>1338.29</ele>
        <time>2011-10-02T07:44:39Z</time>
      </trkpt>
      <trkpt lat="45.65328" lon="5.99099">
        <ele>1336.85</ele>
        <time>2011-10-02T07:44:40Z</time>
      </trkpt>
      <trkpt lat="45.65314" lon="5.9909">
        <ele>1335.41</ele>
        <time>2011-10-02T07:44:42Z</time>
      </trkpt>
      <trkpt lat="45.65307" lon="5.99084">
        <ele>1333.97</ele>
        <time>2011-10-02T07:44:43Z</time>
      </trkpt>
      <trkpt lat="45.653" lon="5.99077">
        <ele>1333.97</ele>
        <time>2011-10-02T07:44:44Z</time>
      </trkpt>
      <trkpt lat="45.65283" lon="5.99053">
        <ele>1333.01</ele>
        <time>2011-10-02T07:44:47Z</time>
      </trkpt>
      <trkpt lat="45.65279" lon="5.99044">
        <ele>1332.04</ele>
        <time>2011-10-02T07:44:48Z</time>
      </trkpt>
      <trkpt lat="45.65268" lon="5.9901">
        <ele>1332.52</ele>
        <time>2011-10-02T07:44:51Z</time>
      </trkpt>
      <trkpt lat="45.65259" lon="5.98972">
        <ele>1334.93</ele>
        <time>2011-10-02T07:44:55Z</time>
      </trkpt>
      <trkpt lat="45.65255" lon="5.98965">
        <ele>1335.41</ele>
        <time>2011-10-02T07:44:56Z</time>
      </trkpt>
      <trkpt lat="45.65251" lon="5.98958">
        <ele>1334.93</ele>
        <time>2011-10-02T07:44:57Z</time>
      </trkpt>
      <trkpt lat="45.65246" lon="5.98953">
        <ele>1334.93</ele>
        <time>2011-10-02T07:44:58Z</time>
      </trkpt>
      <trkpt lat="45.65241" lon="5.98948">
        <ele>1334.93</ele>
        <time>2011-10-02T07:44:59Z</time>
      </trkpt>
      <trkpt lat="45.65234" lon="5.98943">
        <ele>1333.49</ele>
        <time>2011-10-02T07:45:00Z</time>
      </trkpt>
      <trkpt lat="45.65227" lon="5.98939">
        <ele>1333.49</ele>
        <time>2011-10-02T07:45:01Z</time>
      </trkpt>
      <trkpt lat="45.65206" lon="5.98921">
        <ele>1332.04</ele>
        <time>2011-10-02T07:45:04Z</time>
      </trkpt>
      <trkpt lat="45.65181" lon="5.98892">
        <ele>1332.52</ele>
        <time>2011-10-02T07:45:08Z</time>
      </trkpt>
      <trkpt lat="45.65175" lon="5.98887">
        <ele>1333.01</ele>
        <time>2011-10-02T07:45:09Z</time>
      </trkpt>
      <trkpt lat="45.65168" lon="5.98883">
        <ele>1333.49</ele>
        <time>2011-10-02T07:45:10Z</time>
      </trkpt>
      <trkpt lat="45.65161" lon="5.9888">
        <ele>1333.49</ele>
        <time>2011-10-02T07:45:11Z</time>
      </trkpt>
      <trkpt lat="45.65154" lon="5.98879">
        <ele>1333.97</ele>
        <time>2011-10-02T07:45:12Z</time>
      </trkpt>
      <trkpt lat="45.65148" lon="5.98878">
        <ele>1333.97</ele>
        <time>2011-10-02T07:45:13Z</time>
      </trkpt>
      <trkpt lat="45.65142" lon="5.9888">
        <ele>1333.97</ele>
        <time>2011-10-02T07:45:14Z</time>
      </trkpt>
      <trkpt lat="45.65138" lon="5.98883">
        <ele>1333.49</ele>
        <time>2011-10-02T07:45:15Z</time>
      </trkpt>
      <trkpt lat="45.65133" lon="5.98885">
        <ele>1333.01</ele>
        <time>2011-10-02T07:45:16Z</time>
      </trkpt>
      <trkpt lat="45.65128" lon="5.98887">
        <ele>1332.04</ele>
        <time>2011-10-02T07:45:17Z</time>
      </trkpt>
      <trkpt lat="45.65124" lon="5.98888">
        <ele>1331.08</ele>
        <time>2011-10-02T07:45:18Z</time>
      </trkpt>
      <trkpt lat="45.65104" lon="5.98891">
        <ele>1327.72</ele>
        <time>2011-10-02T07:45:22Z</time>
      </trkpt>
      <trkpt lat="45.65096" lon="5.98888">
        <ele>1327.24</ele>
        <time>2011-10-02T07:45:29Z</time>
      </trkpt>
      <trkpt lat="45.65096" lon="5.98888">
        <ele>1327.24</ele>
        <time>2011-10-02T07:46:00Z</time>
      </trkpt>
      <trkpt lat="45.65097" lon="5.98889">
        <ele>1326.76</ele>
        <time>2011-10-02T07:46:28Z</time>
      </trkpt>
      <trkpt lat="45.65097" lon="5.98889">
        <ele>1326.28</ele>
        <time>2011-10-02T07:47:04Z</time>
      </trkpt>
      <trkpt lat="45.65097" lon="5.98889">
        <ele>1326.28</ele>
        <time>2011-10-02T07:47:40Z</time>
      </trkpt>
      <trkpt lat="45.65097" lon="5.98889">
        <ele>1326.76</ele>
        <time>2011-10-02T07:48:18Z</time>
      </trkpt>
      <trkpt lat="45.65098" lon="5.98889">
        <ele>1325.8</ele>
        <time>2011-10-02T07:49:02Z</time>
      </trkpt>
      <trkpt lat="45.65098" lon="5.98889">
        <ele>1326.76</ele>
        <time>2011-10-02T07:49:38Z</time>
      </trkpt>
      <trkpt lat="45.65099" lon="5.98889">
        <ele>1326.28</ele>
        <time>2011-10-02T07:50:10Z</time>
      </trkpt>
      <trkpt lat="45.65099" lon="5.9889">
        <ele>1326.76</ele>
        <time>2011-10-02T07:50:47Z</time>
      </trkpt>
      <trkpt lat="45.65099" lon="5.9889">
        <ele>1327.24</ele>
        <time>2011-10-02T07:51:31Z</time>
      </trkpt>
      <trkpt lat="45.65099" lon="5.98889">
        <ele>1327.24</ele>
        <time>2011-10-02T07:52:05Z</time>
      </trkpt>
      <trkpt lat="45.651" lon="5.98889">
        <ele>1327.24</ele>
        <time>2011-10-02T07:52:51Z</time>
      </trkpt>
      <trkpt lat="45.651" lon="5.9889">
        <ele>1327.24</ele>
        <time>2011-10-02T07:53:30Z</time>
      </trkpt>
      <trkpt lat="45.65099" lon="5.98889">
        <ele>1327.24</ele>
        <time>2011-10-02T07:54:04Z</time>
      </trkpt>
      <trkpt lat="45.65099" lon="5.9889">
        <ele>1328.2</ele>
        <time>2011-10-02T07:54:41Z</time>
      </trkpt>
      <trkpt lat="45.651" lon="5.98889">
        <ele>1328.2</ele>
        <time>2011-10-02T07:55:18Z</time>
      </trkpt>
      <trkpt lat="45.651" lon="5.98891">
        <ele>1328.68</ele>
        <time>2011-10-02T07:55:50Z</time>
      </trkpt>
      <trkpt lat="45.65101" lon="5.98893">
        <ele>1329.16</ele>
        <time>2011-10-02T07:55:56Z</time>
      </trkpt>
      <trkpt lat="45.65103" lon="5.98893">
        <ele>1329.16</ele>
        <time>2011-10-02T07:56:00Z</time>
      </trkpt>
      <trkpt lat="45.65105" lon="5.98893">
        <ele>1329.16</ele>
        <time>2011-10-02T07:56:01Z</time>
      </trkpt>
      <trkpt lat="45.65106" lon="5.98892">
        <ele>1329.16</ele>
        <time>2011-10-02T07:56:02Z</time>
      </trkpt>
      <trkpt lat="45.65108" lon="5.98893">
        <ele>1328.68</ele>
        <time>2011-10-02T07:56:03Z</time>
      </trkpt>
      <trkpt lat="45.6511" lon="5.98893">
        <ele>1328.68</ele>
        <time>2011-10-02T07:56:04Z</time>
      </trkpt>
      <trkpt lat="45.65113" lon="5.98893">
        <ele>1329.16</ele>
        <time>2011-10-02T07:56:05Z</time>
      </trkpt>
      <trkpt lat="45.65115" lon="5.98893">
        <ele>1329.64</ele>
        <time>2011-10-02T07:56:06Z</time>
      </trkpt>
      <trkpt lat="45.65131" lon="5.98889">
        <ele>1332.52</ele>
        <time>2011-10-02T07:56:13Z</time>
      </trkpt>
      <trkpt lat="45.6514" lon="5.98888">
        <ele>1334.93</ele>
        <time>2011-10-02T07:56:18Z</time>
      </trkpt>
      <trkpt lat="45.65168" lon="5.9888">
        <ele>1335.89</ele>
        <time>2011-10-02T07:56:29Z</time>
      </trkpt>
      <trkpt lat="45.65171" lon="5.98883">
        <ele>1335.89</ele>
        <time>2011-10-02T07:56:30Z</time>
      </trkpt>
      <trkpt lat="45.65175" lon="5.98887">
        <ele>1335.89</ele>
        <time>2011-10-02T07:56:31Z</time>
      </trkpt>
      <trkpt lat="45.65203" lon="5.98915">
        <ele>1335.41</ele>
        <time>2011-10-02T07:56:38Z</time>
      </trkpt>
      <trkpt lat="45.65206" lon="5.9892">
        <ele>1334.93</ele>
        <time>2011-10-02T07:56:39Z</time>
      </trkpt>
      <trkpt lat="45.6521" lon="5.98925">
        <ele>1335.41</ele>
        <time>2011-10-02T07:56:40Z</time>
      </trkpt>
      <trkpt lat="45.65213" lon="5.98926">
        <ele>1334.93</ele>
        <time>2011-10-02T07:56:41Z</time>
      </trkpt>
      <trkpt lat="45.65216" lon="5.98924">
        <ele>1334.93</ele>
        <time>2011-10-02T07:56:42Z</time>
      </trkpt>
      <trkpt lat="45.65218" lon="5.98921">
        <ele>1334.93</ele>
        <time>2011-10-02T07:56:43Z</time>
      </trkpt>
      <trkpt lat="45.65218" lon="5.98916">
        <ele>1334.45</ele>
        <time>2011-10-02T07:56:44Z</time>
      </trkpt>
      <trkpt lat="45.65219" lon="5.9891">
        <ele>1333.97</ele>
        <time>2011-10-02T07:56:45Z</time>
      </trkpt>
      <trkpt lat="45.6522" lon="5.98904">
        <ele>1333.49</ele>
        <time>2011-10-02T07:56:46Z</time>
      </trkpt>
      <trkpt lat="45.65221" lon="5.98897">
        <ele>1333.97</ele>
        <time>2011-10-02T07:56:47Z</time>
      </trkpt>
      <trkpt lat="45.65223" lon="5.9889">
        <ele>1333.49</ele>
        <time>2011-10-02T07:56:48Z</time>
      </trkpt>
      <trkpt lat="45.65227" lon="5.98833">
        <ele>1333.97</ele>
        <time>2011-10-02T07:56:59Z</time>
      </trkpt>
      <trkpt lat="45.65223" lon="5.98814">
        <ele>1333.97</ele>
        <time>2011-10-02T07:57:03Z</time>
      </trkpt>
      <trkpt lat="45.6522" lon="5.9881">
        <ele>1333.49</ele>
        <time>2011-10-02T07:57:04Z</time>
      </trkpt>
      <trkpt lat="45.65216" lon="5.98806">
        <ele>1333.49</ele>
        <time>2011-10-02T07:57:05Z</time>
      </trkpt>
      <trkpt lat="45.65193" lon="5.98781">
        <ele>1334.45</ele>
        <time>2011-10-02T07:57:11Z</time>
      </trkpt>
      <trkpt lat="45.6519" lon="5.98776">
        <ele>1333.97</ele>
        <time>2011-10-02T07:57:12Z</time>
      </trkpt>
      <trkpt lat="45.65189" lon="5.98771">
        <ele>1334.45</ele>
        <time>2011-10-02T07:57:13Z</time>
      </trkpt>
      <trkpt lat="45.65186" lon="5.9876">
        <ele>1334.45</ele>
        <time>2011-10-02T07:57:15Z</time>
      </trkpt>
      <trkpt lat="45.6518" lon="5.98711">
        <ele>1335.41</ele>
        <time>2011-10-02T07:57:24Z</time>
      </trkpt>
      <trkpt lat="45.65173" lon="5.98674">
        <ele>1335.89</ele>
        <time>2011-10-02T07:57:34Z</time>
      </trkpt>
      <trkpt lat="45.65171" lon="5.98673">
        <ele>1336.37</ele>
        <time>2011-10-02T07:57:37Z</time>
      </trkpt>
      <trkpt lat="45.6517" lon="5.98671">
        <ele>1335.89</ele>
        <time>2011-10-02T07:57:38Z</time>
      </trkpt>
      <trkpt lat="45.65168" lon="5.98668">
        <ele>1336.37</ele>
        <time>2011-10-02T07:57:39Z</time>
      </trkpt>
      <trkpt lat="45.65166" lon="5.98665">
        <ele>1335.89</ele>
        <time>2011-10-02T07:57:40Z</time>
      </trkpt>
      <trkpt lat="45.65164" lon="5.9866">
        <ele>1336.85</ele>
        <time>2011-10-02T07:57:41Z</time>
      </trkpt>
      <trkpt lat="45.65163" lon="5.98656">
        <ele>1336.85</ele>
        <time>2011-10-02T07:57:42Z</time>
      </trkpt>
      <trkpt lat="45.65152" lon="5.98636">
        <ele>1337.81</ele>
        <time>2011-10-02T07:57:47Z</time>
      </trkpt>
      <trkpt lat="45.65145" lon="5.98628">
        <ele>1337.33</ele>
        <time>2011-10-02T07:57:49Z</time>
      </trkpt>
      <trkpt lat="45.65141" lon="5.98624">
        <ele>1337.81</ele>
        <time>2011-10-02T07:57:50Z</time>
      </trkpt>
      <trkpt lat="45.65137" lon="5.98622">
        <ele>1337.33</ele>
        <time>2011-10-02T07:57:51Z</time>
      </trkpt>
      <trkpt lat="45.65132" lon="5.98619">
        <ele>1337.81</ele>
        <time>2011-10-02T07:57:52Z</time>
      </trkpt>
      <trkpt lat="45.65128" lon="5.98618">
        <ele>1337.33</ele>
        <time>2011-10-02T07:57:53Z</time>
      </trkpt>
      <trkpt lat="45.65124" lon="5.98616">
        <ele>1337.81</ele>
        <time>2011-10-02T07:57:54Z</time>
      </trkpt>
      <trkpt lat="45.6512" lon="5.98614">
        <ele>1337.81</ele>
        <time>2011-10-02T07:57:55Z</time>
      </trkpt>
      <trkpt lat="45.65093" lon="5.98588">
        <ele>1340.7</ele>
        <time>2011-10-02T07:58:05Z</time>
      </trkpt>
      <trkpt lat="45.65089" lon="5.98583">
        <ele>1340.22</ele>
        <time>2011-10-02T07:58:07Z</time>
      </trkpt>
      <trkpt lat="45.65089" lon="5.9858">
        <ele>1340.22</ele>
        <time>2011-10-02T07:58:08Z</time>
      </trkpt>
      <trkpt lat="45.65089" lon="5.98578">
        <ele>1340.7</ele>
        <time>2011-10-02T07:58:09Z</time>
      </trkpt>
      <trkpt lat="45.65089" lon="5.98576">
        <ele>1340.7</ele>
        <time>2011-10-02T07:58:10Z</time>
      </trkpt>
      <trkpt lat="45.6509" lon="5.98575">
        <ele>1340.7</ele>
        <time>2011-10-02T07:58:11Z</time>
      </trkpt>
      <trkpt lat="45.65091" lon="5.98574">
        <ele>1340.7</ele>
        <time>2011-10-02T07:58:12Z</time>
      </trkpt>
      <trkpt lat="45.65098" lon="5.98579">
        <ele>1341.66</ele>
        <time>2011-10-02T07:58:15Z</time>
      </trkpt>
      <trkpt lat="45.651" lon="5.98581">
        <ele>1341.18</ele>
        <time>2011-10-02T07:58:16Z</time>
      </trkpt>
      <trkpt lat="45.65103" lon="5.98583">
        <ele>1341.66</ele>
        <time>2011-10-02T07:58:17Z</time>
      </trkpt>
      <trkpt lat="45.65105" lon="5.98584">
        <ele>1341.66</ele>
        <time>2011-10-02T07:58:18Z</time>
      </trkpt>
      <trkpt lat="45.65109" lon="5.98584">
        <ele>1341.66</ele>
        <time>2011-10-02T07:58:19Z</time>
      </trkpt>
      <trkpt lat="45.65151" lon="5.98571">
        <ele>1342.14</ele>
        <time>2011-10-02T07:58:31Z</time>
      </trkpt>
      <trkpt lat="45.6518" lon="5.98562">
        <ele>1345.02</ele>
        <time>2011-10-02T07:58:45Z</time>
      </trkpt>
      <trkpt lat="45.65188" lon="5.98562">
        <ele>1345.02</ele>
        <time>2011-10-02T07:58:59Z</time>
      </trkpt>
      <trkpt lat="45.65223" lon="5.98532">
        <ele>1345.98</ele>
        <time>2011-10-02T07:59:11Z</time>
      </trkpt>
      <trkpt lat="45.65245" lon="5.98508">
        <ele>1348.39</ele>
        <time>2011-10-02T07:59:22Z</time>
      </trkpt>
      <trkpt lat="45.65257" lon="5.98481">
        <ele>1351.75</ele>
        <time>2011-10-02T07:59:34Z</time>
      </trkpt>
      <trkpt lat="45.65267" lon="5.98456">
        <ele>1354.63</ele>
        <time>2011-10-02T07:59:45Z</time>
      </trkpt>
      <trkpt lat="45.65273" lon="5.98428">
        <ele>1357.52</ele>
        <time>2011-10-02T07:59:56Z</time>
      </trkpt>
      <trkpt lat="45.6526" lon="5.98394">
        <ele>1358.48</ele>
        <time>2011-10-02T08:00:09Z</time>
      </trkpt>
      <trkpt lat="45.65249" lon="5.98358">
        <ele>1361.36</ele>
        <time>2011-10-02T08:00:23Z</time>
      </trkpt>
      <trkpt lat="45.65247" lon="5.98331">
        <ele>1363.77</ele>
        <time>2011-10-02T08:00:34Z</time>
      </trkpt>
      <trkpt lat="45.65247" lon="5.98328">
        <ele>1364.25</ele>
        <time>2011-10-02T08:00:35Z</time>
      </trkpt>
      <trkpt lat="45.65247" lon="5.98326">
        <ele>1364.25</ele>
        <time>2011-10-02T08:00:36Z</time>
      </trkpt>
      <trkpt lat="45.65247" lon="5.98323">
        <ele>1364.25</ele>
        <time>2011-10-02T08:00:37Z</time>
      </trkpt>
      <trkpt lat="45.65247" lon="5.98321">
        <ele>1364.73</ele>
        <time>2011-10-02T08:00:38Z</time>
      </trkpt>
      <trkpt lat="45.65247" lon="5.98319">
        <ele>1365.21</ele>
        <time>2011-10-02T08:00:39Z</time>
      </trkpt>
      <trkpt lat="45.6524" lon="5.98288">
        <ele>1366.65</ele>
        <time>2011-10-02T08:00:52Z</time>
      </trkpt>
      <trkpt lat="45.65232" lon="5.9826">
        <ele>1368.57</ele>
        <time>2011-10-02T08:01:06Z</time>
      </trkpt>
      <trkpt lat="45.65233" lon="5.98258">
        <ele>1369.54</ele>
        <time>2011-10-02T08:01:07Z</time>
      </trkpt>
      <trkpt lat="45.65233" lon="5.98256">
        <ele>1368.57</ele>
        <time>2011-10-02T08:01:08Z</time>
      </trkpt>
      <trkpt lat="45.65238" lon="5.98246">
        <ele>1369.54</ele>
        <time>2011-10-02T08:01:20Z</time>
      </trkpt>
      <trkpt lat="45.6524" lon="5.98244">
        <ele>1369.54</ele>
        <time>2011-10-02T08:01:21Z</time>
      </trkpt>
      <trkpt lat="45.65241" lon="5.98241">
        <ele>1369.54</ele>
        <time>2011-10-02T08:01:22Z</time>
      </trkpt>
      <trkpt lat="45.65242" lon="5.98238">
        <ele>1370.02</ele>
        <time>2011-10-02T08:01:23Z</time>
      </trkpt>
      <trkpt lat="45.65244" lon="5.98235">
        <ele>1370.5</ele>
        <time>2011-10-02T08:01:24Z</time>
      </trkpt>
      <trkpt lat="45.65246" lon="5.98233">
        <ele>1370.5</ele>
        <time>2011-10-02T08:01:25Z</time>
      </trkpt>
      <trkpt lat="45.65251" lon="5.98225">
        <ele>1370.98</ele>
        <time>2011-10-02T08:01:36Z</time>
      </trkpt>
      <trkpt lat="45.65251" lon="5.98225">
        <ele>1370.5</ele>
        <time>2011-10-02T08:02:04Z</time>
      </trkpt>
      <trkpt lat="45.6525" lon="5.98225">
        <ele>1370.5</ele>
        <time>2011-10-02T08:02:30Z</time>
      </trkpt>
      <trkpt lat="45.6525" lon="5.98225">
        <ele>1370.5</ele>
        <time>2011-10-02T08:02:51Z</time>
      </trkpt>
      <trkpt lat="45.6525" lon="5.98225">
        <ele>1370.5</ele>
        <time>2011-10-02T08:03:22Z</time>
      </trkpt>
      <trkpt lat="45.65245" lon="5.98226">
        <ele>1370.5</ele>
        <time>2011-10-02T08:03:40Z</time>
      </trkpt>
      <trkpt lat="45.65243" lon="5.98225">
        <ele>1370.98</ele>
        <time>2011-10-02T08:03:41Z</time>
      </trkpt>
      <trkpt lat="45.65241" lon="5.98224">
        <ele>1370.98</ele>
        <time>2011-10-02T08:03:42Z</time>
      </trkpt>
      <trkpt lat="45.65237" lon="5.98221">
        <ele>1370.5</ele>
        <time>2011-10-02T08:03:43Z</time>
      </trkpt>
      <trkpt lat="45.65234" lon="5.98218">
        <ele>1370.98</ele>
        <time>2011-10-02T08:03:44Z</time>
      </trkpt>
      <trkpt lat="45.65231" lon="5.98216">
        <ele>1370.98</ele>
        <time>2011-10-02T08:03:45Z</time>
      </trkpt>
      <trkpt lat="45.65228" lon="5.98215">
        <ele>1370.98</ele>
        <time>2011-10-02T08:03:46Z</time>
      </trkpt>
      <trkpt lat="45.65225" lon="5.98214">
        <ele>1371.46</ele>
        <time>2011-10-02T08:03:47Z</time>
      </trkpt>
      <trkpt lat="45.65221" lon="5.98213">
        <ele>1371.46</ele>
        <time>2011-10-02T08:03:48Z</time>
      </trkpt>
      <trkpt lat="45.65211" lon="5.98209">
        <ele>1370.98</ele>
        <time>2011-10-02T08:04:00Z</time>
      </trkpt>
      <trkpt lat="45.6521" lon="5.98208">
        <ele>1370.5</ele>
        <time>2011-10-02T08:04:28Z</time>
      </trkpt>
      <trkpt lat="45.65188" lon="5.98163">
        <ele>1369.05</ele>
        <time>2011-10-02T08:04:39Z</time>
      </trkpt>
      <trkpt lat="45.65161" lon="5.98106">
        <ele>1370.98</ele>
        <time>2011-10-02T08:04:52Z</time>
      </trkpt>
      <trkpt lat="45.65158" lon="5.98101">
        <ele>1370.98</ele>
        <time>2011-10-02T08:04:53Z</time>
      </trkpt>
      <trkpt lat="45.6515" lon="5.98086">
        <ele>1371.46</ele>
        <time>2011-10-02T08:04:56Z</time>
      </trkpt>
      <trkpt lat="45.65146" lon="5.98082">
        <ele>1370.98</ele>
        <time>2011-10-02T08:04:57Z</time>
      </trkpt>
      <trkpt lat="45.65143" lon="5.98079">
        <ele>1371.46</ele>
        <time>2011-10-02T08:04:58Z</time>
      </trkpt>
      <trkpt lat="45.65164" lon="5.98076">
        <ele>1372.42</ele>
        <time>2011-10-02T08:05:14Z</time>
      </trkpt>
      <trkpt lat="45.65173" lon="5.98081">
        <ele>1372.9</ele>
        <time>2011-10-02T08:05:16Z</time>
      </trkpt>
      <trkpt lat="45.65178" lon="5.98083">
        <ele>1372.9</ele>
        <time>2011-10-02T08:05:17Z</time>
      </trkpt>
      <trkpt lat="45.65184" lon="5.98087">
        <ele>1373.38</ele>
        <time>2011-10-02T08:05:18Z</time>
      </trkpt>
      <trkpt lat="45.65226" lon="5.98106">
        <ele>1375.3</ele>
        <time>2011-10-02T08:05:26Z</time>
      </trkpt>
      <trkpt lat="45.65281" lon="5.98123">
        <ele>1377.71</ele>
        <time>2011-10-02T08:05:40Z</time>
      </trkpt>
      <trkpt lat="45.65331" lon="5.98134">
        <ele>1379.63</ele>
        <time>2011-10-02T08:05:53Z</time>
      </trkpt>
      <trkpt lat="45.65372" lon="5.98122">
        <ele>1381.55</ele>
        <time>2011-10-02T08:06:06Z</time>
      </trkpt>
      <trkpt lat="45.65409" lon="5.9809">
        <ele>1383.47</ele>
        <time>2011-10-02T08:06:19Z</time>
      </trkpt>
      <trkpt lat="45.65452" lon="5.98053">
        <ele>1386.84</ele>
        <time>2011-10-02T08:06:33Z</time>
      </trkpt>
      <trkpt lat="45.65508" lon="5.98016">
        <ele>1388.28</ele>
        <time>2011-10-02T08:06:49Z</time>
      </trkpt>
      <trkpt lat="45.65547" lon="5.98001">
        <ele>1389.72</ele>
        <time>2011-10-02T08:06:58Z</time>
      </trkpt>
      <trkpt lat="45.65551" lon="5.98">
        <ele>1389.72</ele>
        <time>2011-10-02T08:06:59Z</time>
      </trkpt>
      <trkpt lat="45.65556" lon="5.98">
        <ele>1389.72</ele>
        <time>2011-10-02T08:07:00Z</time>
      </trkpt>
      <trkpt lat="45.6556" lon="5.97999">
        <ele>1389.72</ele>
        <time>2011-10-02T08:07:01Z</time>
      </trkpt>
      <trkpt lat="45.65564" lon="5.97998">
        <ele>1390.2</ele>
        <time>2011-10-02T08:07:02Z</time>
      </trkpt>
      <trkpt lat="45.65569" lon="5.97997">
        <ele>1389.72</ele>
        <time>2011-10-02T08:07:03Z</time>
      </trkpt>
      <trkpt lat="45.65574" lon="5.97996">
        <ele>1390.2</ele>
        <time>2011-10-02T08:07:04Z</time>
      </trkpt>
      <trkpt lat="45.65641" lon="5.97982">
        <ele>1392.13</ele>
        <time>2011-10-02T08:07:18Z</time>
      </trkpt>
      <trkpt lat="45.6566" lon="5.97977">
        <ele>1391.65</ele>
        <time>2011-10-02T08:07:22Z</time>
      </trkpt>
      <trkpt lat="45.65696" lon="5.97961">
        <ele>1393.09</ele>
        <time>2011-10-02T08:07:30Z</time>
      </trkpt>
      <trkpt lat="45.65706" lon="5.97957">
        <ele>1394.05</ele>
        <time>2011-10-02T08:07:32Z</time>
      </trkpt>
      <trkpt lat="45.65711" lon="5.97954">
        <ele>1393.57</ele>
        <time>2011-10-02T08:07:33Z</time>
      </trkpt>
      <trkpt lat="45.65717" lon="5.97952">
        <ele>1393.57</ele>
        <time>2011-10-02T08:07:34Z</time>
      </trkpt>
      <trkpt lat="45.65731" lon="5.97947">
        <ele>1394.05</ele>
        <time>2011-10-02T08:07:37Z</time>
      </trkpt>
      <trkpt lat="45.65736" lon="5.97945">
        <ele>1394.05</ele>
        <time>2011-10-02T08:07:38Z</time>
      </trkpt>
      <trkpt lat="45.65741" lon="5.97943">
        <ele>1394.05</ele>
        <time>2011-10-02T08:07:39Z</time>
      </trkpt>
      <trkpt lat="45.65747" lon="5.97941">
        <ele>1394.05</ele>
        <time>2011-10-02T08:07:40Z</time>
      </trkpt>
      <trkpt lat="45.65752" lon="5.97939">
        <ele>1394.05</ele>
        <time>2011-10-02T08:07:41Z</time>
      </trkpt>
      <trkpt lat="45.65758" lon="5.97937">
        <ele>1394.05</ele>
        <time>2011-10-02T08:07:42Z</time>
      </trkpt>
      <trkpt lat="45.65764" lon="5.97936">
        <ele>1394.05</ele>
        <time>2011-10-02T08:07:43Z</time>
      </trkpt>
      <trkpt lat="45.65769" lon="5.97935">
        <ele>1394.53</ele>
        <time>2011-10-02T08:07:44Z</time>
      </trkpt>
      <trkpt lat="45.65791" lon="5.97933">
        <ele>1395.01</ele>
        <time>2011-10-02T08:07:48Z</time>
      </trkpt>
      <trkpt lat="45.6582" lon="5.9793">
        <ele>1395.01</ele>
        <time>2011-10-02T08:07:54Z</time>
      </trkpt>
      <trkpt lat="45.65862" lon="5.97925">
        <ele>1396.45</ele>
        <time>2011-10-02T08:08:02Z</time>
      </trkpt>
      <trkpt lat="45.65867" lon="5.97924">
        <ele>1396.45</ele>
        <time>2011-10-02T08:08:03Z</time>
      </trkpt>
      <trkpt lat="45.65876" lon="5.97922">
        <ele>1396.93</ele>
        <time>2011-10-02T08:08:05Z</time>
      </trkpt>
      <trkpt lat="45.65881" lon="5.97921">
        <ele>1396.93</ele>
        <time>2011-10-02T08:08:06Z</time>
      </trkpt>
      <trkpt lat="45.65899" lon="5.97918">
        <ele>1395.97</ele>
        <time>2011-10-02T08:08:10Z</time>
      </trkpt>
      <trkpt lat="45.65964" lon="5.97893">
        <ele>1394.53</ele>
        <time>2011-10-02T08:08:22Z</time>
      </trkpt>
      <trkpt lat="45.65969" lon="5.97891">
        <ele>1394.53</ele>
        <time>2011-10-02T08:08:23Z</time>
      </trkpt>
      <trkpt lat="45.65975" lon="5.9789">
        <ele>1394.53</ele>
        <time>2011-10-02T08:08:24Z</time>
      </trkpt>
      <trkpt lat="45.66001" lon="5.97885">
        <ele>1394.05</ele>
        <time>2011-10-02T08:08:28Z</time>
      </trkpt>
      <trkpt lat="45.66008" lon="5.97887">
        <ele>1393.09</ele>
        <time>2011-10-02T08:08:29Z</time>
      </trkpt>
      <trkpt lat="45.66054" lon="5.97899">
        <ele>1391.17</ele>
        <time>2011-10-02T08:08:35Z</time>
      </trkpt>
      <trkpt lat="45.66061" lon="5.97899">
        <ele>1391.17</ele>
        <time>2011-10-02T08:08:36Z</time>
      </trkpt>
      <trkpt lat="45.66162" lon="5.9792">
        <ele>1390.2</ele>
        <time>2011-10-02T08:08:49Z</time>
      </trkpt>
      <trkpt lat="45.66175" lon="5.97925">
        <ele>1389.72</ele>
        <time>2011-10-02T08:08:51Z</time>
      </trkpt>
      <trkpt lat="45.66181" lon="5.97929">
        <ele>1389.24</ele>
        <time>2011-10-02T08:08:52Z</time>
      </trkpt>
      <trkpt lat="45.662" lon="5.97943">
        <ele>1387.8</ele>
        <time>2011-10-02T08:08:55Z</time>
      </trkpt>
      <trkpt lat="45.66206" lon="5.97949">
        <ele>1387.8</ele>
        <time>2011-10-02T08:08:56Z</time>
      </trkpt>
      <trkpt lat="45.66227" lon="5.97967">
        <ele>1387.8</ele>
        <time>2011-10-02T08:09:00Z</time>
      </trkpt>
      <trkpt lat="45.66238" lon="5.97974">
        <ele>1387.32</ele>
        <time>2011-10-02T08:09:02Z</time>
      </trkpt>
      <trkpt lat="45.66262" lon="5.97996">
        <ele>1383.96</ele>
        <time>2011-10-02T08:09:06Z</time>
      </trkpt>
      <trkpt lat="45.6628" lon="5.98012">
        <ele>1383.47</ele>
        <time>2011-10-02T08:09:09Z</time>
      </trkpt>
      <trkpt lat="45.66296" lon="5.98019">
        <ele>1382.51</ele>
        <time>2011-10-02T08:09:12Z</time>
      </trkpt>
      <trkpt lat="45.66303" lon="5.9802">
        <ele>1381.55</ele>
        <time>2011-10-02T08:09:13Z</time>
      </trkpt>
      <trkpt lat="45.66309" lon="5.98019">
        <ele>1381.55</ele>
        <time>2011-10-02T08:09:14Z</time>
      </trkpt>
      <trkpt lat="45.66353" lon="5.98018">
        <ele>1382.51</ele>
        <time>2011-10-02T08:09:20Z</time>
      </trkpt>
      <trkpt lat="45.6636" lon="5.98018">
        <ele>1382.51</ele>
        <time>2011-10-02T08:09:21Z</time>
      </trkpt>
      <trkpt lat="45.66366" lon="5.98018">
        <ele>1382.99</ele>
        <time>2011-10-02T08:09:22Z</time>
      </trkpt>
      <trkpt lat="45.66382" lon="5.98024">
        <ele>1382.51</ele>
        <time>2011-10-02T08:09:25Z</time>
      </trkpt>
      <trkpt lat="45.66388" lon="5.98029">
        <ele>1382.03</ele>
        <time>2011-10-02T08:09:26Z</time>
      </trkpt>
      <trkpt lat="45.66392" lon="5.98034">
        <ele>1381.55</ele>
        <time>2011-10-02T08:09:27Z</time>
      </trkpt>
      <trkpt lat="45.66396" lon="5.98041">
        <ele>1381.55</ele>
        <time>2011-10-02T08:09:28Z</time>
      </trkpt>
      <trkpt lat="45.66399" lon="5.98049">
        <ele>1380.59</ele>
        <time>2011-10-02T08:09:29Z</time>
      </trkpt>
      <trkpt lat="45.66402" lon="5.98056">
        <ele>1381.07</ele>
        <time>2011-10-02T08:09:30Z</time>
      </trkpt>
      <trkpt lat="45.66404" lon="5.98062">
        <ele>1381.07</ele>
        <time>2011-10-02T08:09:31Z</time>
      </trkpt>
      <trkpt lat="45.66406" lon="5.98068">
        <ele>1381.07</ele>
        <time>2011-10-02T08:09:32Z</time>
      </trkpt>
      <trkpt lat="45.66406" lon="5.98073">
        <ele>1381.55</ele>
        <time>2011-10-02T08:09:33Z</time>
      </trkpt>
      <trkpt lat="45.66404" lon="5.98076">
        <ele>1381.55</ele>
        <time>2011-10-02T08:09:35Z</time>
      </trkpt>
      <trkpt lat="45.66399" lon="5.98082">
        <ele>1381.55</ele>
        <time>2011-10-02T08:09:52Z</time>
      </trkpt>
      <trkpt lat="45.66391" lon="5.98093">
        <ele>1381.55</ele>
        <time>2011-10-02T08:09:55Z</time>
      </trkpt>
      <trkpt lat="45.66388" lon="5.98098">
        <ele>1381.07</ele>
        <time>2011-10-02T08:09:56Z</time>
      </trkpt>
      <trkpt lat="45.66368" lon="5.98164">
        <ele>1378.19</ele>
        <time>2011-10-02T08:10:05Z</time>
      </trkpt>
      <trkpt lat="45.66368" lon="5.98173">
        <ele>1377.23</ele>
        <time>2011-10-02T08:10:06Z</time>
      </trkpt>
      <trkpt lat="45.66369" lon="5.9818">
        <ele>1377.23</ele>
        <time>2011-10-02T08:10:07Z</time>
      </trkpt>
      <trkpt lat="45.66371" lon="5.98187">
        <ele>1376.75</ele>
        <time>2011-10-02T08:10:08Z</time>
      </trkpt>
      <trkpt lat="45.66374" lon="5.98193">
        <ele>1377.23</ele>
        <time>2011-10-02T08:10:09Z</time>
      </trkpt>
      <trkpt lat="45.66396" lon="5.98211">
        <ele>1374.82</ele>
        <time>2011-10-02T08:10:14Z</time>
      </trkpt>
      <trkpt lat="45.66403" lon="5.98218">
        <ele>1374.34</ele>
        <time>2011-10-02T08:10:15Z</time>
      </trkpt>
      <trkpt lat="45.66419" lon="5.9823">
        <ele>1374.34</ele>
        <time>2011-10-02T08:10:17Z</time>
      </trkpt>
      <trkpt lat="45.66436" lon="5.98254">
        <ele>1376.26</ele>
        <time>2011-10-02T08:10:20Z</time>
      </trkpt>
      <trkpt lat="45.66439" lon="5.98264">
        <ele>1376.26</ele>
        <time>2011-10-02T08:10:21Z</time>
      </trkpt>
      <trkpt lat="45.66441" lon="5.98273">
        <ele>1376.26</ele>
        <time>2011-10-02T08:10:22Z</time>
      </trkpt>
      <trkpt lat="45.66443" lon="5.98284">
        <ele>1375.78</ele>
        <time>2011-10-02T08:10:23Z</time>
      </trkpt>
      <trkpt lat="45.66443" lon="5.98294">
        <ele>1375.3</ele>
        <time>2011-10-02T08:10:24Z</time>
      </trkpt>
      <trkpt lat="45.66444" lon="5.98306">
        <ele>1374.82</ele>
        <time>2011-10-02T08:10:25Z</time>
      </trkpt>
      <trkpt lat="45.66446" lon="5.98317">
        <ele>1374.34</ele>
        <time>2011-10-02T08:10:26Z</time>
      </trkpt>
      <trkpt lat="45.66449" lon="5.98328">
        <ele>1373.38</ele>
        <time>2011-10-02T08:10:27Z</time>
      </trkpt>
      <trkpt lat="45.66451" lon="5.98338">
        <ele>1373.38</ele>
        <time>2011-10-02T08:10:28Z</time>
      </trkpt>
      <trkpt lat="45.66456" lon="5.98348">
        <ele>1372.42</ele>
        <time>2011-10-02T08:10:29Z</time>
      </trkpt>
      <trkpt lat="45.6646" lon="5.98357">
        <ele>1371.94</ele>
        <time>2011-10-02T08:10:30Z</time>
      </trkpt>
      <trkpt lat="45.66466" lon="5.98365">
        <ele>1371.46</ele>
        <time>2011-10-02T08:10:31Z</time>
      </trkpt>
      <trkpt lat="45.66473" lon="5.98373">
        <ele>1370.5</ele>
        <time>2011-10-02T08:10:32Z</time>
      </trkpt>
      <trkpt lat="45.66481" lon="5.98379">
        <ele>1370.5</ele>
        <time>2011-10-02T08:10:33Z</time>
      </trkpt>
      <trkpt lat="45.6649" lon="5.98384">
        <ele>1370.5</ele>
        <time>2011-10-02T08:10:34Z</time>
      </trkpt>
      <trkpt lat="45.66586" lon="5.98465">
        <ele>1370.98</ele>
        <time>2011-10-02T08:10:47Z</time>
      </trkpt>
      <trkpt lat="45.66592" lon="5.9847">
        <ele>1370.98</ele>
        <time>2011-10-02T08:10:48Z</time>
      </trkpt>
      <trkpt lat="45.66637" lon="5.98527">
        <ele>1372.42</ele>
        <time>2011-10-02T08:10:56Z</time>
      </trkpt>
      <trkpt lat="45.66655" lon="5.98559">
        <ele>1371.46</ele>
        <time>2011-10-02T08:11:00Z</time>
      </trkpt>
      <trkpt lat="45.66659" lon="5.98567">
        <ele>1371.46</ele>
        <time>2011-10-02T08:11:01Z</time>
      </trkpt>
      <trkpt lat="45.66661" lon="5.98577">
        <ele>1371.94</ele>
        <time>2011-10-02T08:11:02Z</time>
      </trkpt>
      <trkpt lat="45.66687" lon="5.98712">
        <ele>1373.86</ele>
        <time>2011-10-02T08:11:17Z</time>
      </trkpt>
      <trkpt lat="45.66692" lon="5.98743">
        <ele>1374.82</ele>
        <time>2011-10-02T08:11:21Z</time>
      </trkpt>
      <trkpt lat="45.66707" lon="5.98783">
        <ele>1376.26</ele>
        <time>2011-10-02T08:11:27Z</time>
      </trkpt>
      <trkpt lat="45.66751" lon="5.98867">
        <ele>1377.71</ele>
        <time>2011-10-02T08:11:41Z</time>
      </trkpt>
      <trkpt lat="45.66754" lon="5.98873">
        <ele>1377.71</ele>
        <time>2011-10-02T08:11:42Z</time>
      </trkpt>
      <trkpt lat="45.6677" lon="5.98899">
        <ele>1377.23</ele>
        <time>2011-10-02T08:11:47Z</time>
      </trkpt>
      <trkpt lat="45.66774" lon="5.98902">
        <ele>1377.23</ele>
        <time>2011-10-02T08:11:48Z</time>
      </trkpt>
      <trkpt lat="45.66792" lon="5.98921">
        <ele>1377.71</ele>
        <time>2011-10-02T08:11:53Z</time>
      </trkpt>
      <trkpt lat="45.66832" lon="5.98959">
        <ele>1378.67</ele>
        <time>2011-10-02T08:12:05Z</time>
      </trkpt>
      <trkpt lat="45.66833" lon="5.9896">
        <ele>1378.67</ele>
        <time>2011-10-02T08:12:22Z</time>
      </trkpt>
      <trkpt lat="45.66833" lon="5.9896">
        <ele>1378.19</ele>
        <time>2011-10-02T08:12:48Z</time>
      </trkpt>
      <trkpt lat="45.66831" lon="5.9896">
        <ele>1378.67</ele>
        <time>2011-10-02T08:12:49Z</time>
      </trkpt>
      <trkpt lat="45.6683" lon="5.98958">
        <ele>1378.19</ele>
        <time>2011-10-02T08:12:50Z</time>
      </trkpt>
      <trkpt lat="45.66821" lon="5.98946">
        <ele>1377.23</ele>
        <time>2011-10-02T08:12:54Z</time>
      </trkpt>
      <trkpt lat="45.66768" lon="5.98894">
        <ele>1378.67</ele>
        <time>2011-10-02T08:13:06Z</time>
      </trkpt>
      <trkpt lat="45.66724" lon="5.98815">
        <ele>1376.75</ele>
        <time>2011-10-02T08:13:17Z</time>
      </trkpt>
      <trkpt lat="45.66702" lon="5.98772">
        <ele>1375.78</ele>
        <time>2011-10-02T08:13:22Z</time>
      </trkpt>
      <trkpt lat="45.66698" lon="5.98762">
        <ele>1375.3</ele>
        <time>2011-10-02T08:13:23Z</time>
      </trkpt>
      <trkpt lat="45.66695" lon="5.98752">
        <ele>1374.82</ele>
        <time>2011-10-02T08:13:24Z</time>
      </trkpt>
      <trkpt lat="45.66692" lon="5.98741">
        <ele>1374.34</ele>
        <time>2011-10-02T08:13:25Z</time>
      </trkpt>
      <trkpt lat="45.6669" lon="5.9873">
        <ele>1373.86</ele>
        <time>2011-10-02T08:13:26Z</time>
      </trkpt>
      <trkpt lat="45.66682" lon="5.98683">
        <ele>1371.94</ele>
        <time>2011-10-02T08:13:30Z</time>
      </trkpt>
      <trkpt lat="45.66655" lon="5.98552">
        <ele>1373.38</ele>
        <time>2011-10-02T08:13:43Z</time>
      </trkpt>
      <trkpt lat="45.66654" lon="5.98548">
        <ele>1374.82</ele>
        <time>2011-10-02T08:13:44Z</time>
      </trkpt>
      <trkpt lat="45.66653" lon="5.98545">
        <ele>1374.34</ele>
        <time>2011-10-02T08:13:45Z</time>
      </trkpt>
      <trkpt lat="45.66651" lon="5.98542">
        <ele>1374.34</ele>
        <time>2011-10-02T08:13:46Z</time>
      </trkpt>
      <trkpt lat="45.66651" lon="5.98539">
        <ele>1374.34</ele>
        <time>2011-10-02T08:13:47Z</time>
      </trkpt>
      <trkpt lat="45.6665" lon="5.98537">
        <ele>1374.82</ele>
        <time>2011-10-02T08:13:48Z</time>
      </trkpt>
      <trkpt lat="45.6665" lon="5.98534">
        <ele>1374.82</ele>
        <time>2011-10-02T08:13:49Z</time>
      </trkpt>
      <trkpt lat="45.6665" lon="5.98531">
        <ele>1374.34</ele>
        <time>2011-10-02T08:13:50Z</time>
      </trkpt>
      <trkpt lat="45.6665" lon="5.98528">
        <ele>1374.82</ele>
        <time>2011-10-02T08:13:51Z</time>
      </trkpt>
      <trkpt lat="45.66649" lon="5.98525">
        <ele>1375.3</ele>
        <time>2011-10-02T08:13:52Z</time>
      </trkpt>
      <trkpt lat="45.6665" lon="5.98521">
        <ele>1375.78</ele>
        <time>2011-10-02T08:13:53Z</time>
      </trkpt>
      <trkpt lat="45.66656" lon="5.98487">
        <ele>1376.75</ele>
        <time>2011-10-02T08:14:05Z</time>
      </trkpt>
      <trkpt lat="45.66665" lon="5.98458">
        <ele>1376.75</ele>
        <time>2011-10-02T08:14:15Z</time>
      </trkpt>
      <trkpt lat="45.66686" lon="5.98426">
        <ele>1377.71</ele>
        <time>2011-10-02T08:14:25Z</time>
      </trkpt>
      <trkpt lat="45.66707" lon="5.98394">
        <ele>1379.15</ele>
        <time>2011-10-02T08:14:37Z</time>
      </trkpt>
      <trkpt lat="45.66707" lon="5.98391">
        <ele>1379.63</ele>
        <time>2011-10-02T08:14:38Z</time>
      </trkpt>
      <trkpt lat="45.66708" lon="5.98389">
        <ele>1380.11</ele>
        <time>2011-10-02T08:14:39Z</time>
      </trkpt>
      <trkpt lat="45.66709" lon="5.98387">
        <ele>1380.11</ele>
        <time>2011-10-02T08:14:40Z</time>
      </trkpt>
      <trkpt lat="45.6671" lon="5.98385">
        <ele>1380.59</ele>
        <time>2011-10-02T08:14:41Z</time>
      </trkpt>
      <trkpt lat="45.66711" lon="5.98383">
        <ele>1380.59</ele>
        <time>2011-10-02T08:14:42Z</time>
      </trkpt>
      <trkpt lat="45.66712" lon="5.9838">
        <ele>1380.11</ele>
        <time>2011-10-02T08:14:43Z</time>
      </trkpt>
      <trkpt lat="45.66713" lon="5.98377">
        <ele>1380.59</ele>
        <time>2011-10-02T08:14:44Z</time>
      </trkpt>
      <trkpt lat="45.66714" lon="5.98375">
        <ele>1380.59</ele>
        <time>2011-10-02T08:14:45Z</time>
      </trkpt>
      <trkpt lat="45.66715" lon="5.98372">
        <ele>1381.07</ele>
        <time>2011-10-02T08:14:46Z</time>
      </trkpt>
      <trkpt lat="45.66716" lon="5.9837">
        <ele>1381.55</ele>
        <time>2011-10-02T08:14:47Z</time>
      </trkpt>
      <trkpt lat="45.66718" lon="5.98368">
        <ele>1382.03</ele>
        <time>2011-10-02T08:14:48Z</time>
      </trkpt>
      <trkpt lat="45.6672" lon="5.98367">
        <ele>1381.55</ele>
        <time>2011-10-02T08:14:49Z</time>
      </trkpt>
      <trkpt lat="45.66721" lon="5.98366">
        <ele>1382.03</ele>
        <time>2011-10-02T08:14:50Z</time>
      </trkpt>
      <trkpt lat="45.66723" lon="5.98364">
        <ele>1381.55</ele>
        <time>2011-10-02T08:14:51Z</time>
      </trkpt>
      <trkpt lat="45.66724" lon="5.98363">
        <ele>1382.03</ele>
        <time>2011-10-02T08:14:52Z</time>
      </trkpt>
      <trkpt lat="45.66727" lon="5.98361">
        <ele>1381.55</ele>
        <time>2011-10-02T08:14:53Z</time>
      </trkpt>
      <trkpt lat="45.66741" lon="5.98334">
        <ele>1381.07</ele>
        <time>2011-10-02T08:15:04Z</time>
      </trkpt>
      <trkpt lat="45.66744" lon="5.98316">
        <ele>1380.59</ele>
        <time>2011-10-02T08:15:15Z</time>
      </trkpt>
      <trkpt lat="45.66745" lon="5.98311">
        <ele>1380.11</ele>
        <time>2011-10-02T08:15:19Z</time>
      </trkpt>
      <trkpt lat="45.66745" lon="5.98305">
        <ele>1380.11</ele>
        <time>2011-10-02T08:15:31Z</time>
      </trkpt>
      <trkpt lat="45.66749" lon="5.98302">
        <ele>1380.11</ele>
        <time>2011-10-02T08:15:38Z</time>
      </trkpt>
      <trkpt lat="45.66751" lon="5.98301">
        <ele>1379.63</ele>
        <time>2011-10-02T08:15:39Z</time>
      </trkpt>
      <trkpt lat="45.66752" lon="5.983">
        <ele>1379.63</ele>
        <time>2011-10-02T08:15:40Z</time>
      </trkpt>
      <trkpt lat="45.66753" lon="5.98298">
        <ele>1379.63</ele>
        <time>2011-10-02T08:15:41Z</time>
      </trkpt>
      <trkpt lat="45.66755" lon="5.98297">
        <ele>1379.63</ele>
        <time>2011-10-02T08:15:42Z</time>
      </trkpt>
      <trkpt lat="45.66762" lon="5.98277">
        <ele>1379.63</ele>
        <time>2011-10-02T08:15:55Z</time>
      </trkpt>
      <trkpt lat="45.66763" lon="5.98272">
        <ele>1379.63</ele>
        <time>2011-10-02T08:15:57Z</time>
      </trkpt>
      <trkpt lat="45.66763" lon="5.98269">
        <ele>1379.63</ele>
        <time>2011-10-02T08:15:58Z</time>
      </trkpt>
      <trkpt lat="45.66764" lon="5.98266">
        <ele>1379.63</ele>
        <time>2011-10-02T08:15:59Z</time>
      </trkpt>
      <trkpt lat="45.66763" lon="5.98264">
        <ele>1379.63</ele>
        <time>2011-10-02T08:16:00Z</time>
      </trkpt>
      <trkpt lat="45.66764" lon="5.98261">
        <ele>1379.63</ele>
        <time>2011-10-02T08:16:01Z</time>
      </trkpt>
      <trkpt lat="45.66764" lon="5.98259">
        <ele>1379.63</ele>
        <time>2011-10-02T08:16:02Z</time>
      </trkpt>
      <trkpt lat="45.66764" lon="5.98258">
        <ele>1380.11</ele>
        <time>2011-10-02T08:16:03Z</time>
      </trkpt>
      <trkpt lat="45.66765" lon="5.98256">
        <ele>1380.11</ele>
        <time>2011-10-02T08:16:04Z</time>
      </trkpt>
      <trkpt lat="45.66765" lon="5.98253">
        <ele>1380.11</ele>
        <time>2011-10-02T08:16:08Z</time>
      </trkpt>
      <trkpt lat="45.66774" lon="5.9822">
        <ele>1381.07</ele>
        <time>2011-10-02T08:16:19Z</time>
      </trkpt>
      <trkpt lat="45.6678" lon="5.98196">
        <ele>1382.51</ele>
        <time>2011-10-02T08:16:32Z</time>
      </trkpt>
      <trkpt lat="45.66779" lon="5.98193">
        <ele>1382.99</ele>
        <time>2011-10-02T08:16:35Z</time>
      </trkpt>
      <trkpt lat="45.66779" lon="5.98191">
        <ele>1382.99</ele>
        <time>2011-10-02T08:16:36Z</time>
      </trkpt>
      <trkpt lat="45.66777" lon="5.98189">
        <ele>1382.99</ele>
        <time>2011-10-02T08:16:37Z</time>
      </trkpt>
      <trkpt lat="45.66777" lon="5.98187">
        <ele>1382.99</ele>
        <time>2011-10-02T08:16:38Z</time>
      </trkpt>
      <trkpt lat="45.66777" lon="5.98183">
        <ele>1383.47</ele>
        <time>2011-10-02T08:16:41Z</time>
      </trkpt>
      <trkpt lat="45.66778" lon="5.98181">
        <ele>1383.47</ele>
        <time>2011-10-02T08:16:42Z</time>
      </trkpt>
      <trkpt lat="45.66778" lon="5.98179">
        <ele>1382.99</ele>
        <time>2011-10-02T08:16:43Z</time>
      </trkpt>
      <trkpt lat="45.66778" lon="5.98177">
        <ele>1383.47</ele>
        <time>2011-10-02T08:16:44Z</time>
      </trkpt>
      <trkpt lat="45.66779" lon="5.98175">
        <ele>1383.47</ele>
        <time>2011-10-02T08:16:45Z</time>
      </trkpt>
      <trkpt lat="45.66777" lon="5.98163">
        <ele>1383.96</ele>
        <time>2011-10-02T08:16:54Z</time>
      </trkpt>
      <trkpt lat="45.66789" lon="5.98135">
        <ele>1384.44</ele>
        <time>2011-10-02T08:17:05Z</time>
      </trkpt>
      <trkpt lat="45.66804" lon="5.98125">
        <ele>1384.44</ele>
        <time>2011-10-02T08:17:17Z</time>
      </trkpt>
      <trkpt lat="45.66805" lon="5.98125">
        <ele>1384.92</ele>
        <time>2011-10-02T08:17:23Z</time>
      </trkpt>
      <trkpt lat="45.66806" lon="5.98126">
        <ele>1384.92</ele>
        <time>2011-10-02T08:17:25Z</time>
      </trkpt>
      <trkpt lat="45.66843" lon="5.98143">
        <ele>1383.47</ele>
        <time>2011-10-02T08:17:38Z</time>
      </trkpt>
      <trkpt lat="45.66884" lon="5.98187">
        <ele>1385.4</ele>
        <time>2011-10-02T08:17:50Z</time>
      </trkpt>
      <trkpt lat="45.66888" lon="5.98191">
        <ele>1385.4</ele>
        <time>2011-10-02T08:17:51Z</time>
      </trkpt>
      <trkpt lat="45.66892" lon="5.98195">
        <ele>1385.4</ele>
        <time>2011-10-02T08:17:52Z</time>
      </trkpt>
      <trkpt lat="45.66896" lon="5.98198">
        <ele>1384.44</ele>
        <time>2011-10-02T08:17:53Z</time>
      </trkpt>
      <trkpt lat="45.66901" lon="5.982">
        <ele>1385.88</ele>
        <time>2011-10-02T08:17:54Z</time>
      </trkpt>
      <trkpt lat="45.66906" lon="5.98202">
        <ele>1385.4</ele>
        <time>2011-10-02T08:17:55Z</time>
      </trkpt>
      <trkpt lat="45.66911" lon="5.98204">
        <ele>1384.92</ele>
        <time>2011-10-02T08:17:56Z</time>
      </trkpt>
      <trkpt lat="45.66921" lon="5.9821">
        <ele>1384.92</ele>
        <time>2011-10-02T08:17:58Z</time>
      </trkpt>
      <trkpt lat="45.66961" lon="5.98257">
        <ele>1384.44</ele>
        <time>2011-10-02T08:18:06Z</time>
      </trkpt>
      <trkpt lat="45.66987" lon="5.9828">
        <ele>1385.4</ele>
        <time>2011-10-02T08:18:11Z</time>
      </trkpt>
      <trkpt lat="45.66997" lon="5.98286">
        <ele>1386.36</ele>
        <time>2011-10-02T08:18:13Z</time>
      </trkpt>
      <trkpt lat="45.67014" lon="5.983">
        <ele>1387.8</ele>
        <time>2011-10-02T08:18:17Z</time>
      </trkpt>
      <trkpt lat="45.67017" lon="5.98304">
        <ele>1388.28</ele>
        <time>2011-10-02T08:18:18Z</time>
      </trkpt>
      <trkpt lat="45.67038" lon="5.98347">
        <ele>1391.17</ele>
        <time>2011-10-02T08:18:28Z</time>
      </trkpt>
      <trkpt lat="45.67052" lon="5.98405">
        <ele>1394.05</ele>
        <time>2011-10-02T08:18:42Z</time>
      </trkpt>
      <trkpt lat="45.6706" lon="5.98444">
        <ele>1395.97</ele>
        <time>2011-10-02T08:18:52Z</time>
      </trkpt>
      <trkpt lat="45.67061" lon="5.98448">
        <ele>1395.97</ele>
        <time>2011-10-02T08:18:53Z</time>
      </trkpt>
      <trkpt lat="45.67062" lon="5.98452">
        <ele>1396.45</ele>
        <time>2011-10-02T08:18:54Z</time>
      </trkpt>
      <trkpt lat="45.67069" lon="5.98493">
        <ele>1398.37</ele>
        <time>2011-10-02T08:19:04Z</time>
      </trkpt>
      <trkpt lat="45.67093" lon="5.9852">
        <ele>1401.26</ele>
        <time>2011-10-02T08:19:17Z</time>
      </trkpt>
      <trkpt lat="45.67132" lon="5.98499">
        <ele>1404.14</ele>
        <time>2011-10-02T08:19:31Z</time>
      </trkpt>
      <trkpt lat="45.67183" lon="5.98508">
        <ele>1402.7</ele>
        <time>2011-10-02T08:19:45Z</time>
      </trkpt>
      <trkpt lat="45.67193" lon="5.98522">
        <ele>1401.26</ele>
        <time>2011-10-02T08:19:56Z</time>
      </trkpt>
      <trkpt lat="45.67204" lon="5.98536">
        <ele>1399.34</ele>
        <time>2011-10-02T08:20:05Z</time>
      </trkpt>
      <trkpt lat="45.67206" lon="5.98534">
        <ele>1399.34</ele>
        <time>2011-10-02T08:20:06Z</time>
      </trkpt>
      <trkpt lat="45.67219" lon="5.9851">
        <ele>1398.86</ele>
        <time>2011-10-02T08:20:15Z</time>
      </trkpt>
      <trkpt lat="45.67219" lon="5.98511">
        <ele>1398.37</ele>
        <time>2011-10-02T08:20:30Z</time>
      </trkpt>
      <trkpt lat="45.67218" lon="5.98511">
        <ele>1397.89</ele>
        <time>2011-10-02T08:21:07Z</time>
      </trkpt>
      <trkpt lat="45.67217" lon="5.98515">
        <ele>1398.86</ele>
        <time>2011-10-02T08:21:17Z</time>
      </trkpt>
      <trkpt lat="45.67216" lon="5.98519">
        <ele>1398.86</ele>
        <time>2011-10-02T08:21:18Z</time>
      </trkpt>
      <trkpt lat="45.67215" lon="5.98522">
        <ele>1398.86</ele>
        <time>2011-10-02T08:21:19Z</time>
      </trkpt>
      <trkpt lat="45.67215" lon="5.98525">
        <ele>1398.86</ele>
        <time>2011-10-02T08:21:20Z</time>
      </trkpt>
      <trkpt lat="45.67215" lon="5.98529">
        <ele>1399.34</ele>
        <time>2011-10-02T08:21:21Z</time>
      </trkpt>
      <trkpt lat="45.67213" lon="5.98531">
        <ele>1399.34</ele>
        <time>2011-10-02T08:21:22Z</time>
      </trkpt>
      <trkpt lat="45.67212" lon="5.98533">
        <ele>1399.34</ele>
        <time>2011-10-02T08:21:23Z</time>
      </trkpt>
      <trkpt lat="45.6721" lon="5.98535">
        <ele>1399.34</ele>
        <time>2011-10-02T08:21:24Z</time>
      </trkpt>
      <trkpt lat="45.67208" lon="5.98538">
        <ele>1399.82</ele>
        <time>2011-10-02T08:21:25Z</time>
      </trkpt>
      <trkpt lat="45.67207" lon="5.98541">
        <ele>1400.3</ele>
        <time>2011-10-02T08:21:26Z</time>
      </trkpt>
      <trkpt lat="45.67206" lon="5.98543">
        <ele>1399.82</ele>
        <time>2011-10-02T08:21:27Z</time>
      </trkpt>
      <trkpt lat="45.67205" lon="5.98545">
        <ele>1400.78</ele>
        <time>2011-10-02T08:21:28Z</time>
      </trkpt>
      <trkpt lat="45.67207" lon="5.98551">
        <ele>1400.78</ele>
        <time>2011-10-02T08:21:37Z</time>
      </trkpt>
      <trkpt lat="45.67208" lon="5.98553">
        <ele>1400.78</ele>
        <time>2011-10-02T08:21:38Z</time>
      </trkpt>
      <trkpt lat="45.6721" lon="5.98555">
        <ele>1400.78</ele>
        <time>2011-10-02T08:21:39Z</time>
      </trkpt>
      <trkpt lat="45.67256" lon="5.98581">
        <ele>1400.78</ele>
        <time>2011-10-02T08:21:50Z</time>
      </trkpt>
      <trkpt lat="45.67286" lon="5.98589">
        <ele>1402.22</ele>
        <time>2011-10-02T08:22:00Z</time>
      </trkpt>
      <trkpt lat="45.67283" lon="5.98592">
        <ele>1402.22</ele>
        <time>2011-10-02T08:22:02Z</time>
      </trkpt>
      <trkpt lat="45.67281" lon="5.98595">
        <ele>1402.22</ele>
        <time>2011-10-02T08:22:03Z</time>
      </trkpt>
      <trkpt lat="45.6728" lon="5.98597">
        <ele>1401.74</ele>
        <time>2011-10-02T08:22:04Z</time>
      </trkpt>
      <trkpt lat="45.67281" lon="5.98599">
        <ele>1402.22</ele>
        <time>2011-10-02T08:22:05Z</time>
      </trkpt>
      <trkpt lat="45.67282" lon="5.98604">
        <ele>1402.22</ele>
        <time>2011-10-02T08:22:06Z</time>
      </trkpt>
      <trkpt lat="45.67281" lon="5.98612">
        <ele>1402.22</ele>
        <time>2011-10-02T08:22:07Z</time>
      </trkpt>
      <trkpt lat="45.67284" lon="5.98656">
        <ele>1402.7</ele>
        <time>2011-10-02T08:22:14Z</time>
      </trkpt>
      <trkpt lat="45.67297" lon="5.98672">
        <ele>1405.1</ele>
        <time>2011-10-02T08:22:25Z</time>
      </trkpt>
      <trkpt lat="45.67299" lon="5.9867">
        <ele>1405.1</ele>
        <time>2011-10-02T08:22:26Z</time>
      </trkpt>
      <trkpt lat="45.67303" lon="5.98666">
        <ele>1405.58</ele>
        <time>2011-10-02T08:22:27Z</time>
      </trkpt>
      <trkpt lat="45.67352" lon="5.98633">
        <ele>1407.03</ele>
        <time>2011-10-02T08:22:37Z</time>
      </trkpt>
      <trkpt lat="45.67356" lon="5.98629">
        <ele>1407.51</ele>
        <time>2011-10-02T08:22:38Z</time>
      </trkpt>
      <trkpt lat="45.67368" lon="5.98614">
        <ele>1407.03</ele>
        <time>2011-10-02T08:22:41Z</time>
      </trkpt>
      <trkpt lat="45.67371" lon="5.98609">
        <ele>1407.51</ele>
        <time>2011-10-02T08:22:42Z</time>
      </trkpt>
      <trkpt lat="45.67374" lon="5.98604">
        <ele>1407.03</ele>
        <time>2011-10-02T08:22:43Z</time>
      </trkpt>
      <trkpt lat="45.67395" lon="5.98583">
        <ele>1407.51</ele>
        <time>2011-10-02T08:22:49Z</time>
      </trkpt>
      <trkpt lat="45.67389" lon="5.98565">
        <ele>1409.91</ele>
        <time>2011-10-02T08:23:02Z</time>
      </trkpt>
      <trkpt lat="45.67389" lon="5.98553">
        <ele>1412.31</ele>
        <time>2011-10-02T08:23:11Z</time>
      </trkpt>
      <trkpt lat="45.67388" lon="5.98552">
        <ele>1412.31</ele>
        <time>2011-10-02T08:23:12Z</time>
      </trkpt>
      <trkpt lat="45.67386" lon="5.9854">
        <ele>1413.28</ele>
        <time>2011-10-02T08:23:24Z</time>
      </trkpt>
      <trkpt lat="45.67382" lon="5.98509">
        <ele>1415.2</ele>
        <time>2011-10-02T08:23:34Z</time>
      </trkpt>
      <trkpt lat="45.67375" lon="5.98477">
        <ele>1416.64</ele>
        <time>2011-10-02T08:23:48Z</time>
      </trkpt>
      <trkpt lat="45.67367" lon="5.98445">
        <ele>1417.6</ele>
        <time>2011-10-02T08:24:00Z</time>
      </trkpt>
      <trkpt lat="45.67362" lon="5.98405">
        <ele>1416.64</ele>
        <time>2011-10-02T08:24:12Z</time>
      </trkpt>
      <trkpt lat="45.67359" lon="5.98388">
        <ele>1418.56</ele>
        <time>2011-10-02T08:24:23Z</time>
      </trkpt>
      <trkpt lat="45.67357" lon="5.98367">
        <ele>1421.45</ele>
        <time>2011-10-02T08:24:35Z</time>
      </trkpt>
      <trkpt lat="45.67357" lon="5.98365">
        <ele>1421.45</ele>
        <time>2011-10-02T08:24:36Z</time>
      </trkpt>
      <trkpt lat="45.67357" lon="5.98364">
        <ele>1421.45</ele>
        <time>2011-10-02T08:24:37Z</time>
      </trkpt>
      <trkpt lat="45.67354" lon="5.9834">
        <ele>1422.89</ele>
        <time>2011-10-02T08:24:52Z</time>
      </trkpt>
      <trkpt lat="45.67352" lon="5.98322">
        <ele>1425.29</ele>
        <time>2011-10-02T08:25:04Z</time>
      </trkpt>
      <trkpt lat="45.6735" lon="5.98307">
        <ele>1428.66</ele>
        <time>2011-10-02T08:25:17Z</time>
      </trkpt>
      <trkpt lat="45.67346" lon="5.9829">
        <ele>1431.06</ele>
        <time>2011-10-02T08:25:31Z</time>
      </trkpt>
      <trkpt lat="45.67342" lon="5.98281">
        <ele>1431.54</ele>
        <time>2011-10-02T08:25:38Z</time>
      </trkpt>
      <trkpt lat="45.67342" lon="5.98279">
        <ele>1431.54</ele>
        <time>2011-10-02T08:25:39Z</time>
      </trkpt>
      <trkpt lat="45.67342" lon="5.98278">
        <ele>1431.54</ele>
        <time>2011-10-02T08:25:40Z</time>
      </trkpt>
      <trkpt lat="45.67341" lon="5.98276">
        <ele>1432.02</ele>
        <time>2011-10-02T08:25:41Z</time>
      </trkpt>
      <trkpt lat="45.67341" lon="5.98275">
        <ele>1432.02</ele>
        <time>2011-10-02T08:25:42Z</time>
      </trkpt>
      <trkpt lat="45.67337" lon="5.98265">
        <ele>1432.5</ele>
        <time>2011-10-02T08:25:58Z</time>
      </trkpt>
      <trkpt lat="45.67334" lon="5.98255">
        <ele>1432.5</ele>
        <time>2011-10-02T08:26:18Z</time>
      </trkpt>
      <trkpt lat="45.67328" lon="5.98235">
        <ele>1435.87</ele>
        <time>2011-10-02T08:26:33Z</time>
      </trkpt>
      <trkpt lat="45.67324" lon="5.98227">
        <ele>1437.31</ele>
        <time>2011-10-02T08:26:49Z</time>
      </trkpt>
      <trkpt lat="45.67324" lon="5.98227">
        <ele>1437.31</ele>
        <time>2011-10-02T08:27:21Z</time>
      </trkpt>
      <trkpt lat="45.67324" lon="5.98227">
        <ele>1436.83</ele>
        <time>2011-10-02T08:28:02Z</time>
      </trkpt>
      <trkpt lat="45.67324" lon="5.98227">
        <ele>1437.31</ele>
        <time>2011-10-02T08:28:41Z</time>
      </trkpt>
      <trkpt lat="45.67324" lon="5.98226">
        <ele>1437.31</ele>
        <time>2011-10-02T08:29:09Z</time>
      </trkpt>
      <trkpt lat="45.67324" lon="5.98226">
        <ele>1437.79</ele>
        <time>2011-10-02T08:29:45Z</time>
      </trkpt>
      <trkpt lat="45.67324" lon="5.98226">
        <ele>1438.27</ele>
        <time>2011-10-02T08:30:16Z</time>
      </trkpt>
      <trkpt lat="45.67324" lon="5.98226">
        <ele>1437.79</ele>
        <time>2011-10-02T08:30:45Z</time>
      </trkpt>
      <trkpt lat="45.67324" lon="5.98227">
        <ele>1438.27</ele>
        <time>2011-10-02T08:31:12Z</time>
      </trkpt>
      <trkpt lat="45.67325" lon="5.98231">
        <ele>1436.35</ele>
        <time>2011-10-02T08:31:17Z</time>
      </trkpt>
      <trkpt lat="45.67329" lon="5.98243">
        <ele>1434.42</ele>
        <time>2011-10-02T08:31:21Z</time>
      </trkpt>
      <trkpt lat="45.67331" lon="5.9825">
        <ele>1433.94</ele>
        <time>2011-10-02T08:31:22Z</time>
      </trkpt>
      <trkpt lat="45.67334" lon="5.9826">
        <ele>1433.94</ele>
        <time>2011-10-02T08:31:23Z</time>
      </trkpt>
      <trkpt lat="45.67345" lon="5.98303">
        <ele>1430.58</ele>
        <time>2011-10-02T08:31:30Z</time>
      </trkpt>
      <trkpt lat="45.67347" lon="5.98319">
        <ele>1427.7</ele>
        <time>2011-10-02T08:31:33Z</time>
      </trkpt>
      <trkpt lat="45.67348" lon="5.9834">
        <ele>1424.33</ele>
        <time>2011-10-02T08:31:36Z</time>
      </trkpt>
      <trkpt lat="45.6735" lon="5.98349">
        <ele>1424.33</ele>
        <time>2011-10-02T08:31:37Z</time>
      </trkpt>
      <trkpt lat="45.67355" lon="5.98388">
        <ele>1420.49</ele>
        <time>2011-10-02T08:31:42Z</time>
      </trkpt>
      <trkpt lat="45.67357" lon="5.98393">
        <ele>1420</ele>
        <time>2011-10-02T08:31:43Z</time>
      </trkpt>
      <trkpt lat="45.67357" lon="5.98405">
        <ele>1419.52</ele>
        <time>2011-10-02T08:31:45Z</time>
      </trkpt>
      <trkpt lat="45.67357" lon="5.98412">
        <ele>1418.56</ele>
        <time>2011-10-02T08:31:46Z</time>
      </trkpt>
      <trkpt lat="45.67358" lon="5.98419">
        <ele>1418.08</ele>
        <time>2011-10-02T08:31:47Z</time>
      </trkpt>
      <trkpt lat="45.67365" lon="5.98454">
        <ele>1419.04</ele>
        <time>2011-10-02T08:31:56Z</time>
      </trkpt>
      <trkpt lat="45.67378" lon="5.98499">
        <ele>1417.12</ele>
        <time>2011-10-02T08:32:06Z</time>
      </trkpt>
      <trkpt lat="45.6738" lon="5.98514">
        <ele>1416.64</ele>
        <time>2011-10-02T08:32:09Z</time>
      </trkpt>
      <trkpt lat="45.6738" lon="5.9852">
        <ele>1416.64</ele>
        <time>2011-10-02T08:32:10Z</time>
      </trkpt>
      <trkpt lat="45.6738" lon="5.98526">
        <ele>1414.24</ele>
        <time>2011-10-02T08:32:11Z</time>
      </trkpt>
      <trkpt lat="45.6738" lon="5.98532">
        <ele>1413.76</ele>
        <time>2011-10-02T08:32:12Z</time>
      </trkpt>
      <trkpt lat="45.67381" lon="5.98536">
        <ele>1414.72</ele>
        <time>2011-10-02T08:32:13Z</time>
      </trkpt>
      <trkpt lat="45.67382" lon="5.9854">
        <ele>1414.72</ele>
        <time>2011-10-02T08:32:14Z</time>
      </trkpt>
      <trkpt lat="45.67386" lon="5.98569">
        <ele>1411.83</ele>
        <time>2011-10-02T08:32:20Z</time>
      </trkpt>
      <trkpt lat="45.67387" lon="5.98576">
        <ele>1410.39</ele>
        <time>2011-10-02T08:32:21Z</time>
      </trkpt>
      <trkpt lat="45.67389" lon="5.98583">
        <ele>1409.43</ele>
        <time>2011-10-02T08:32:22Z</time>
      </trkpt>
      <trkpt lat="45.67391" lon="5.98589">
        <ele>1408.95</ele>
        <time>2011-10-02T08:32:23Z</time>
      </trkpt>
      <trkpt lat="45.67394" lon="5.98596">
        <ele>1408.47</ele>
        <time>2011-10-02T08:32:24Z</time>
      </trkpt>
      <trkpt lat="45.67395" lon="5.986">
        <ele>1408.47</ele>
        <time>2011-10-02T08:32:25Z</time>
      </trkpt>
      <trkpt lat="45.67398" lon="5.98604">
        <ele>1407.99</ele>
        <time>2011-10-02T08:32:26Z</time>
      </trkpt>
      <trkpt lat="45.67404" lon="5.98611">
        <ele>1407.99</ele>
        <time>2011-10-02T08:32:29Z</time>
      </trkpt>
      <trkpt lat="45.67407" lon="5.98613">
        <ele>1407.99</ele>
        <time>2011-10-02T08:32:30Z</time>
      </trkpt>
      <trkpt lat="45.6741" lon="5.98612">
        <ele>1407.99</ele>
        <time>2011-10-02T08:32:31Z</time>
      </trkpt>
      <trkpt lat="45.67414" lon="5.98611">
        <ele>1407.99</ele>
        <time>2011-10-02T08:32:32Z</time>
      </trkpt>
      <trkpt lat="45.67418" lon="5.98611">
        <ele>1408.47</ele>
        <time>2011-10-02T08:32:33Z</time>
      </trkpt>
      <trkpt lat="45.67427" lon="5.98609">
        <ele>1407.99</ele>
        <time>2011-10-02T08:32:35Z</time>
      </trkpt>
      <trkpt lat="45.67436" lon="5.98604">
        <ele>1407.03</ele>
        <time>2011-10-02T08:32:37Z</time>
      </trkpt>
      <trkpt lat="45.67444" lon="5.98598">
        <ele>1407.03</ele>
        <time>2011-10-02T08:32:39Z</time>
      </trkpt>
      <trkpt lat="45.67448" lon="5.98597">
        <ele>1405.58</ele>
        <time>2011-10-02T08:32:40Z</time>
      </trkpt>
      <trkpt lat="45.67453" lon="5.98599">
        <ele>1406.07</ele>
        <time>2011-10-02T08:32:41Z</time>
      </trkpt>
      <trkpt lat="45.67474" lon="5.98613">
        <ele>1404.62</ele>
        <time>2011-10-02T08:32:45Z</time>
      </trkpt>
      <trkpt lat="45.67478" lon="5.98617">
        <ele>1405.1</ele>
        <time>2011-10-02T08:32:46Z</time>
      </trkpt>
      <trkpt lat="45.67482" lon="5.9862">
        <ele>1405.1</ele>
        <time>2011-10-02T08:32:47Z</time>
      </trkpt>
      <trkpt lat="45.67501" lon="5.9864">
        <ele>1407.51</ele>
        <time>2011-10-02T08:32:56Z</time>
      </trkpt>
      <trkpt lat="45.67518" lon="5.98655">
        <ele>1408.95</ele>
        <time>2011-10-02T08:33:05Z</time>
      </trkpt>
      <trkpt lat="45.67524" lon="5.98654">
        <ele>1410.39</ele>
        <time>2011-10-02T08:33:08Z</time>
      </trkpt>
      <trkpt lat="45.67525" lon="5.98652">
        <ele>1410.87</ele>
        <time>2011-10-02T08:33:09Z</time>
      </trkpt>
      <trkpt lat="45.67526" lon="5.98651">
        <ele>1411.35</ele>
        <time>2011-10-02T08:33:10Z</time>
      </trkpt>
      <trkpt lat="45.67542" lon="5.9863">
        <ele>1413.76</ele>
        <time>2011-10-02T08:33:21Z</time>
      </trkpt>
      <trkpt lat="45.67547" lon="5.98626">
        <ele>1415.2</ele>
        <time>2011-10-02T08:33:26Z</time>
      </trkpt>
      <trkpt lat="45.67548" lon="5.98625">
        <ele>1415.68</ele>
        <time>2011-10-02T08:33:27Z</time>
      </trkpt>
      <trkpt lat="45.67549" lon="5.98625">
        <ele>1416.16</ele>
        <time>2011-10-02T08:33:28Z</time>
      </trkpt>
      <trkpt lat="45.6755" lon="5.98623">
        <ele>1416.16</ele>
        <time>2011-10-02T08:33:30Z</time>
      </trkpt>
      <trkpt lat="45.67556" lon="5.98619">
        <ele>1416.64</ele>
        <time>2011-10-02T08:33:38Z</time>
      </trkpt>
      <trkpt lat="45.67557" lon="5.98617">
        <ele>1416.16</ele>
        <time>2011-10-02T08:33:39Z</time>
      </trkpt>
      <trkpt lat="45.67559" lon="5.98615">
        <ele>1416.16</ele>
        <time>2011-10-02T08:33:40Z</time>
      </trkpt>
      <trkpt lat="45.67579" lon="5.98604">
        <ele>1417.6</ele>
        <time>2011-10-02T08:33:50Z</time>
      </trkpt>
      <trkpt lat="45.67599" lon="5.98604">
        <ele>1420.49</ele>
        <time>2011-10-02T08:34:00Z</time>
      </trkpt>
      <trkpt lat="45.6761" lon="5.98594">
        <ele>1421.45</ele>
        <time>2011-10-02T08:34:09Z</time>
      </trkpt>
      <trkpt lat="45.67611" lon="5.98593">
        <ele>1421.93</ele>
        <time>2011-10-02T08:34:10Z</time>
      </trkpt>
      <trkpt lat="45.67613" lon="5.98592">
        <ele>1422.41</ele>
        <time>2011-10-02T08:34:11Z</time>
      </trkpt>
      <trkpt lat="45.67614" lon="5.98591">
        <ele>1422.41</ele>
        <time>2011-10-02T08:34:12Z</time>
      </trkpt>
      <trkpt lat="45.67616" lon="5.9859">
        <ele>1423.37</ele>
        <time>2011-10-02T08:34:13Z</time>
      </trkpt>
      <trkpt lat="45.67619" lon="5.98586">
        <ele>1424.33</ele>
        <time>2011-10-02T08:34:17Z</time>
      </trkpt>
      <trkpt lat="45.6762" lon="5.98585">
        <ele>1424.33</ele>
        <time>2011-10-02T08:34:18Z</time>
      </trkpt>
      <trkpt lat="45.67621" lon="5.98584">
        <ele>1423.85</ele>
        <time>2011-10-02T08:34:19Z</time>
      </trkpt>
      <trkpt lat="45.67625" lon="5.98583">
        <ele>1424.33</ele>
        <time>2011-10-02T08:34:23Z</time>
      </trkpt>
      <trkpt lat="45.67648" lon="5.98594">
        <ele>1427.21</ele>
        <time>2011-10-02T08:34:36Z</time>
      </trkpt>
      <trkpt lat="45.67661" lon="5.98622">
        <ele>1428.66</ele>
        <time>2011-10-02T08:34:49Z</time>
      </trkpt>
      <trkpt lat="45.67666" lon="5.98667">
        <ele>1429.62</ele>
        <time>2011-10-02T08:35:03Z</time>
      </trkpt>
      <trkpt lat="45.67667" lon="5.9867">
        <ele>1429.14</ele>
        <time>2011-10-02T08:35:14Z</time>
      </trkpt>
      <trkpt lat="45.67667" lon="5.9867">
        <ele>1429.62</ele>
        <time>2011-10-02T08:35:42Z</time>
      </trkpt>
      <trkpt lat="45.67667" lon="5.9867">
        <ele>1429.62</ele>
        <time>2011-10-02T08:36:11Z</time>
      </trkpt>
      <trkpt lat="45.6767" lon="5.98662">
        <ele>1430.1</ele>
        <time>2011-10-02T08:36:16Z</time>
      </trkpt>
      <trkpt lat="45.67679" lon="5.98654">
        <ele>1432.02</ele>
        <time>2011-10-02T08:36:23Z</time>
      </trkpt>
      <trkpt lat="45.67704" lon="5.98637">
        <ele>1434.91</ele>
        <time>2011-10-02T08:36:38Z</time>
      </trkpt>
      <trkpt lat="45.67705" lon="5.98635">
        <ele>1434.91</ele>
        <time>2011-10-02T08:36:40Z</time>
      </trkpt>
      <trkpt lat="45.67712" lon="5.98618">
        <ele>1436.35</ele>
        <time>2011-10-02T08:36:48Z</time>
      </trkpt>
      <trkpt lat="45.67714" lon="5.98618">
        <ele>1435.87</ele>
        <time>2011-10-02T08:36:49Z</time>
      </trkpt>
      <trkpt lat="45.67735" lon="5.98617">
        <ele>1438.75</ele>
        <time>2011-10-02T08:37:04Z</time>
      </trkpt>
      <trkpt lat="45.67746" lon="5.98614">
        <ele>1441.63</ele>
        <time>2011-10-02T08:37:19Z</time>
      </trkpt>
      <trkpt lat="45.67753" lon="5.98609">
        <ele>1442.6</ele>
        <time>2011-10-02T08:37:28Z</time>
      </trkpt>
      <trkpt lat="45.67762" lon="5.98585">
        <ele>1445</ele>
        <time>2011-10-02T08:37:45Z</time>
      </trkpt>
      <trkpt lat="45.67773" lon="5.98566">
        <ele>1447.4</ele>
        <time>2011-10-02T08:38:01Z</time>
      </trkpt>
      <trkpt lat="45.67783" lon="5.98555">
        <ele>1451.25</ele>
        <time>2011-10-02T08:38:16Z</time>
      </trkpt>
      <trkpt lat="45.67793" lon="5.98546">
        <ele>1453.17</ele>
        <time>2011-10-02T08:38:30Z</time>
      </trkpt>
      <trkpt lat="45.67804" lon="5.98541">
        <ele>1456.53</ele>
        <time>2011-10-02T08:38:46Z</time>
      </trkpt>
      <trkpt lat="45.67808" lon="5.9854">
        <ele>1457.02</ele>
        <time>2011-10-02T08:38:52Z</time>
      </trkpt>
      <trkpt lat="45.67826" lon="5.98552">
        <ele>1458.94</ele>
        <time>2011-10-02T08:39:07Z</time>
      </trkpt>
      <trkpt lat="45.67841" lon="5.98555">
        <ele>1460.86</ele>
        <time>2011-10-02T08:39:22Z</time>
      </trkpt>
      <trkpt lat="45.67842" lon="5.98556">
        <ele>1461.34</ele>
        <time>2011-10-02T08:39:43Z</time>
      </trkpt>
      <trkpt lat="45.67844" lon="5.98554">
        <ele>1462.78</ele>
        <time>2011-10-02T08:40:01Z</time>
      </trkpt>
      <trkpt lat="45.67848" lon="5.98557">
        <ele>1463.26</ele>
        <time>2011-10-02T08:40:05Z</time>
      </trkpt>
      <trkpt lat="45.67856" lon="5.98554">
        <ele>1464.71</ele>
        <time>2011-10-02T08:40:12Z</time>
      </trkpt>
      <trkpt lat="45.6787" lon="5.98565">
        <ele>1466.15</ele>
        <time>2011-10-02T08:40:25Z</time>
      </trkpt>
      <trkpt lat="45.67889" lon="5.98583">
        <ele>1466.63</ele>
        <time>2011-10-02T08:40:39Z</time>
      </trkpt>
      <trkpt lat="45.67893" lon="5.98589">
        <ele>1465.67</ele>
        <time>2011-10-02T08:40:56Z</time>
      </trkpt>
      <trkpt lat="45.67908" lon="5.98621">
        <ele>1462.3</ele>
        <time>2011-10-02T08:41:05Z</time>
      </trkpt>
      <trkpt lat="45.67917" lon="5.98648">
        <ele>1462.3</ele>
        <time>2011-10-02T08:41:19Z</time>
      </trkpt>
      <trkpt lat="45.67921" lon="5.98653">
        <ele>1462.78</ele>
        <time>2011-10-02T08:41:32Z</time>
      </trkpt>
      <trkpt lat="45.67921" lon="5.98653">
        <ele>1462.78</ele>
        <time>2011-10-02T08:41:47Z</time>
      </trkpt>
      <trkpt lat="45.67923" lon="5.98655">
        <ele>1462.78</ele>
        <time>2011-10-02T08:41:49Z</time>
      </trkpt>
      <trkpt lat="45.67942" lon="5.98671">
        <ele>1462.3</ele>
        <time>2011-10-02T08:42:02Z</time>
      </trkpt>
      <trkpt lat="45.67949" lon="5.98665">
        <ele>1463.74</ele>
        <time>2011-10-02T08:42:10Z</time>
      </trkpt>
      <trkpt lat="45.67952" lon="5.98663">
        <ele>1463.26</ele>
        <time>2011-10-02T08:42:14Z</time>
      </trkpt>
      <trkpt lat="45.67975" lon="5.98685">
        <ele>1462.78</ele>
        <time>2011-10-02T08:42:25Z</time>
      </trkpt>
      <trkpt lat="45.68013" lon="5.98708">
        <ele>1463.26</ele>
        <time>2011-10-02T08:42:37Z</time>
      </trkpt>
      <trkpt lat="45.68036" lon="5.98715">
        <ele>1461.82</ele>
        <time>2011-10-02T08:42:46Z</time>
      </trkpt>
      <trkpt lat="45.68046" lon="5.9873">
        <ele>1457.98</ele>
        <time>2011-10-02T08:42:52Z</time>
      </trkpt>
      <trkpt lat="45.68074" lon="5.98762">
        <ele>1456.05</ele>
        <time>2011-10-02T08:43:03Z</time>
      </trkpt>
      <trkpt lat="45.68077" lon="5.98762">
        <ele>1455.57</ele>
        <time>2011-10-02T08:43:11Z</time>
      </trkpt>
      <trkpt lat="45.68078" lon="5.98761">
        <ele>1455.57</ele>
        <time>2011-10-02T08:43:45Z</time>
      </trkpt>
      <trkpt lat="45.68085" lon="5.98764">
        <ele>1455.57</ele>
        <time>2011-10-02T08:43:49Z</time>
      </trkpt>
      <trkpt lat="45.68108" lon="5.98783">
        <ele>1455.09</ele>
        <time>2011-10-02T08:43:54Z</time>
      </trkpt>
      <trkpt lat="45.68167" lon="5.98815">
        <ele>1455.57</ele>
        <time>2011-10-02T08:44:05Z</time>
      </trkpt>
      <trkpt lat="45.68178" lon="5.98818">
        <ele>1454.61</ele>
        <time>2011-10-02T08:44:07Z</time>
      </trkpt>
      <trkpt lat="45.6821" lon="5.98814">
        <ele>1451.73</ele>
        <time>2011-10-02T08:44:16Z</time>
      </trkpt>
      <trkpt lat="45.68215" lon="5.9881">
        <ele>1452.21</ele>
        <time>2011-10-02T08:44:29Z</time>
      </trkpt>
      <trkpt lat="45.68215" lon="5.9881">
        <ele>1452.21</ele>
        <time>2011-10-02T08:44:44Z</time>
      </trkpt>
      <trkpt lat="45.68213" lon="5.98814">
        <ele>1451.73</ele>
        <time>2011-10-02T08:44:46Z</time>
      </trkpt>
      <trkpt lat="45.68213" lon="5.98817">
        <ele>1451.25</ele>
        <time>2011-10-02T08:44:47Z</time>
      </trkpt>
      <trkpt lat="45.68214" lon="5.9882">
        <ele>1451.25</ele>
        <time>2011-10-02T08:44:48Z</time>
      </trkpt>
      <trkpt lat="45.68217" lon="5.98823">
        <ele>1449.81</ele>
        <time>2011-10-02T08:44:49Z</time>
      </trkpt>
      <trkpt lat="45.68221" lon="5.98826">
        <ele>1449.81</ele>
        <time>2011-10-02T08:44:50Z</time>
      </trkpt>
      <trkpt lat="45.68224" lon="5.98828">
        <ele>1449.32</ele>
        <time>2011-10-02T08:44:51Z</time>
      </trkpt>
      <trkpt lat="45.68227" lon="5.98831">
        <ele>1448.36</ele>
        <time>2011-10-02T08:44:52Z</time>
      </trkpt>
      <trkpt lat="45.68229" lon="5.98836">
        <ele>1447.4</ele>
        <time>2011-10-02T08:44:53Z</time>
      </trkpt>
      <trkpt lat="45.6823" lon="5.9884">
        <ele>1446.92</ele>
        <time>2011-10-02T08:44:54Z</time>
      </trkpt>
      <trkpt lat="45.68235" lon="5.98854">
        <ele>1443.56</ele>
        <time>2011-10-02T08:44:57Z</time>
      </trkpt>
      <trkpt lat="45.68237" lon="5.98857">
        <ele>1443.56</ele>
        <time>2011-10-02T08:44:58Z</time>
      </trkpt>
      <trkpt lat="45.68238" lon="5.98859">
        <ele>1443.56</ele>
        <time>2011-10-02T08:44:59Z</time>
      </trkpt>
      <trkpt lat="45.68239" lon="5.98859">
        <ele>1443.08</ele>
        <time>2011-10-02T08:45:00Z</time>
      </trkpt>
      <trkpt lat="45.68241" lon="5.98859">
        <ele>1443.08</ele>
        <time>2011-10-02T08:45:14Z</time>
      </trkpt>
      <trkpt lat="45.68241" lon="5.98857">
        <ele>1443.08</ele>
        <time>2011-10-02T08:45:35Z</time>
      </trkpt>
      <trkpt lat="45.68241" lon="5.98853">
        <ele>1442.6</ele>
        <time>2011-10-02T08:45:36Z</time>
      </trkpt>
      <trkpt lat="45.68242" lon="5.98848">
        <ele>1441.63</ele>
        <time>2011-10-02T08:45:37Z</time>
      </trkpt>
      <trkpt lat="45.68243" lon="5.98843">
        <ele>1441.15</ele>
        <time>2011-10-02T08:45:38Z</time>
      </trkpt>
      <trkpt lat="45.68243" lon="5.98838">
        <ele>1441.15</ele>
        <time>2011-10-02T08:45:39Z</time>
      </trkpt>
      <trkpt lat="45.68242" lon="5.98833">
        <ele>1441.15</ele>
        <time>2011-10-02T08:45:40Z</time>
      </trkpt>
      <trkpt lat="45.68242" lon="5.9883">
        <ele>1440.67</ele>
        <time>2011-10-02T08:45:41Z</time>
      </trkpt>
      <trkpt lat="45.6824" lon="5.98827">
        <ele>1439.23</ele>
        <time>2011-10-02T08:45:42Z</time>
      </trkpt>
      <trkpt lat="45.68239" lon="5.98824">
        <ele>1440.19</ele>
        <time>2011-10-02T08:45:43Z</time>
      </trkpt>
      <trkpt lat="45.68238" lon="5.98821">
        <ele>1440.67</ele>
        <time>2011-10-02T08:45:44Z</time>
      </trkpt>
      <trkpt lat="45.68238" lon="5.98818">
        <ele>1440.67</ele>
        <time>2011-10-02T08:45:45Z</time>
      </trkpt>
      <trkpt lat="45.68237" lon="5.98815">
        <ele>1440.19</ele>
        <time>2011-10-02T08:45:46Z</time>
      </trkpt>
      <trkpt lat="45.68236" lon="5.98813">
        <ele>1440.19</ele>
        <time>2011-10-02T08:45:47Z</time>
      </trkpt>
      <trkpt lat="45.68235" lon="5.98809">
        <ele>1440.19</ele>
        <time>2011-10-02T08:45:48Z</time>
      </trkpt>
      <trkpt lat="45.68236" lon="5.98805">
        <ele>1439.23</ele>
        <time>2011-10-02T08:45:49Z</time>
      </trkpt>
      <trkpt lat="45.68235" lon="5.98802">
        <ele>1438.75</ele>
        <time>2011-10-02T08:45:50Z</time>
      </trkpt>
      <trkpt lat="45.68235" lon="5.98798">
        <ele>1438.75</ele>
        <time>2011-10-02T08:45:51Z</time>
      </trkpt>
      <trkpt lat="45.68234" lon="5.98773">
        <ele>1437.79</ele>
        <time>2011-10-02T08:46:00Z</time>
      </trkpt>
      <trkpt lat="45.68235" lon="5.98738">
        <ele>1437.79</ele>
        <time>2011-10-02T08:46:13Z</time>
      </trkpt>
      <trkpt lat="45.6823" lon="5.98711">
        <ele>1439.71</ele>
        <time>2011-10-02T08:46:23Z</time>
      </trkpt>
      <trkpt lat="45.6823" lon="5.98708">
        <ele>1439.71</ele>
        <time>2011-10-02T08:46:24Z</time>
      </trkpt>
      <trkpt lat="45.6823" lon="5.98706">
        <ele>1440.19</ele>
        <time>2011-10-02T08:46:25Z</time>
      </trkpt>
      <trkpt lat="45.68227" lon="5.98683">
        <ele>1439.71</ele>
        <time>2011-10-02T08:46:37Z</time>
      </trkpt>
      <trkpt lat="45.68227" lon="5.98679">
        <ele>1439.71</ele>
        <time>2011-10-02T08:46:49Z</time>
      </trkpt>
      <trkpt lat="45.68227" lon="5.98677">
        <ele>1439.71</ele>
        <time>2011-10-02T08:46:50Z</time>
      </trkpt>
      <trkpt lat="45.68227" lon="5.98674">
        <ele>1439.71</ele>
        <time>2011-10-02T08:46:51Z</time>
      </trkpt>
      <trkpt lat="45.68229" lon="5.98661">
        <ele>1439.23</ele>
        <time>2011-10-02T08:47:03Z</time>
      </trkpt>
      <trkpt lat="45.68228" lon="5.9866">
        <ele>1439.23</ele>
        <time>2011-10-02T08:47:05Z</time>
      </trkpt>
      <trkpt lat="45.68228" lon="5.98658">
        <ele>1439.23</ele>
        <time>2011-10-02T08:47:06Z</time>
      </trkpt>
      <trkpt lat="45.68231" lon="5.98648">
        <ele>1440.19</ele>
        <time>2011-10-02T08:47:18Z</time>
      </trkpt>
      <trkpt lat="45.68231" lon="5.98647">
        <ele>1440.19</ele>
        <time>2011-10-02T08:47:19Z</time>
      </trkpt>
      <trkpt lat="45.68231" lon="5.98645">
        <ele>1440.19</ele>
        <time>2011-10-02T08:47:20Z</time>
      </trkpt>
      <trkpt lat="45.6823" lon="5.9864">
        <ele>1441.15</ele>
        <time>2011-10-02T08:47:24Z</time>
      </trkpt>
      <trkpt lat="45.68229" lon="5.98638">
        <ele>1441.63</ele>
        <time>2011-10-02T08:47:25Z</time>
      </trkpt>
      <trkpt lat="45.68228" lon="5.98637">
        <ele>1441.63</ele>
        <time>2011-10-02T08:47:26Z</time>
      </trkpt>
      <trkpt lat="45.68228" lon="5.98633">
        <ele>1441.63</ele>
        <time>2011-10-02T08:47:28Z</time>
      </trkpt>
      <trkpt lat="45.68227" lon="5.98631">
        <ele>1442.11</ele>
        <time>2011-10-02T08:47:29Z</time>
      </trkpt>
      <trkpt lat="45.6822" lon="5.98604">
        <ele>1443.56</ele>
        <time>2011-10-02T08:47:44Z</time>
      </trkpt>
      <trkpt lat="45.68218" lon="5.98599">
        <ele>1443.56</ele>
        <time>2011-10-02T08:47:57Z</time>
      </trkpt>
      <trkpt lat="45.68216" lon="5.98597">
        <ele>1443.56</ele>
        <time>2011-10-02T08:48:11Z</time>
      </trkpt>
      <trkpt lat="45.68215" lon="5.98595">
        <ele>1444.52</ele>
        <time>2011-10-02T08:48:35Z</time>
      </trkpt>
      <trkpt lat="45.68214" lon="5.98593">
        <ele>1444.52</ele>
        <time>2011-10-02T08:48:36Z</time>
      </trkpt>
      <trkpt lat="45.6822" lon="5.98587">
        <ele>1441.15</ele>
        <time>2011-10-02T08:48:44Z</time>
      </trkpt>
      <trkpt lat="45.68223" lon="5.98585">
        <ele>1438.75</ele>
        <time>2011-10-02T08:48:49Z</time>
      </trkpt>
      <trkpt lat="45.68224" lon="5.98575">
        <ele>1438.75</ele>
        <time>2011-10-02T08:48:57Z</time>
      </trkpt>
      <trkpt lat="45.68206" lon="5.98526">
        <ele>1440.19</ele>
        <time>2011-10-02T08:49:09Z</time>
      </trkpt>
      <trkpt lat="45.68176" lon="5.98463">
        <ele>1441.63</ele>
        <time>2011-10-02T08:49:23Z</time>
      </trkpt>
      <trkpt lat="45.68153" lon="5.98416">
        <ele>1443.08</ele>
        <time>2011-10-02T08:49:36Z</time>
      </trkpt>
      <trkpt lat="45.68137" lon="5.98366">
        <ele>1443.08</ele>
        <time>2011-10-02T08:49:49Z</time>
      </trkpt>
      <trkpt lat="45.68134" lon="5.98321">
        <ele>1444.52</ele>
        <time>2011-10-02T08:49:59Z</time>
      </trkpt>
      <trkpt lat="45.68103" lon="5.98254">
        <ele>1447.4</ele>
        <time>2011-10-02T08:50:15Z</time>
      </trkpt>
      <trkpt lat="45.68059" lon="5.98204">
        <ele>1449.81</ele>
        <time>2011-10-02T08:50:30Z</time>
      </trkpt>
      <trkpt lat="45.67996" lon="5.98162">
        <ele>1451.73</ele>
        <time>2011-10-02T08:50:47Z</time>
      </trkpt>
      <trkpt lat="45.67973" lon="5.98148">
        <ele>1452.69</ele>
        <time>2011-10-02T08:50:53Z</time>
      </trkpt>
      <trkpt lat="45.67942" lon="5.98126">
        <ele>1454.13</ele>
        <time>2011-10-02T08:51:02Z</time>
      </trkpt>
      <trkpt lat="45.67939" lon="5.98122">
        <ele>1453.65</ele>
        <time>2011-10-02T08:51:03Z</time>
      </trkpt>
      <trkpt lat="45.67936" lon="5.98118">
        <ele>1454.13</ele>
        <time>2011-10-02T08:51:04Z</time>
      </trkpt>
      <trkpt lat="45.67934" lon="5.98113">
        <ele>1454.13</ele>
        <time>2011-10-02T08:51:05Z</time>
      </trkpt>
      <trkpt lat="45.67932" lon="5.98108">
        <ele>1454.61</ele>
        <time>2011-10-02T08:51:06Z</time>
      </trkpt>
      <trkpt lat="45.6793" lon="5.98103">
        <ele>1454.61</ele>
        <time>2011-10-02T08:51:07Z</time>
      </trkpt>
      <trkpt lat="45.67917" lon="5.98059">
        <ele>1454.61</ele>
        <time>2011-10-02T08:51:19Z</time>
      </trkpt>
      <trkpt lat="45.67915" lon="5.98057">
        <ele>1454.61</ele>
        <time>2011-10-02T08:51:20Z</time>
      </trkpt>
      <trkpt lat="45.67914" lon="5.98055">
        <ele>1454.13</ele>
        <time>2011-10-02T08:51:21Z</time>
      </trkpt>
      <trkpt lat="45.67913" lon="5.98052">
        <ele>1454.13</ele>
        <time>2011-10-02T08:51:22Z</time>
      </trkpt>
      <trkpt lat="45.67911" lon="5.9805">
        <ele>1454.13</ele>
        <time>2011-10-02T08:51:23Z</time>
      </trkpt>
      <trkpt lat="45.67909" lon="5.98047">
        <ele>1454.13</ele>
        <time>2011-10-02T08:51:24Z</time>
      </trkpt>
      <trkpt lat="45.67907" lon="5.98044">
        <ele>1454.13</ele>
        <time>2011-10-02T08:51:25Z</time>
      </trkpt>
      <trkpt lat="45.67904" lon="5.98041">
        <ele>1453.65</ele>
        <time>2011-10-02T08:51:26Z</time>
      </trkpt>
      <trkpt lat="45.67902" lon="5.98038">
        <ele>1453.65</ele>
        <time>2011-10-02T08:51:27Z</time>
      </trkpt>
      <trkpt lat="45.679" lon="5.98035">
        <ele>1453.17</ele>
        <time>2011-10-02T08:51:28Z</time>
      </trkpt>
      <trkpt lat="45.67883" lon="5.98007">
        <ele>1453.17</ele>
        <time>2011-10-02T08:51:38Z</time>
      </trkpt>
      <trkpt lat="45.67885" lon="5.98005">
        <ele>1453.65</ele>
        <time>2011-10-02T08:51:39Z</time>
      </trkpt>
      <trkpt lat="45.67886" lon="5.98004">
        <ele>1453.65</ele>
        <time>2011-10-02T08:51:40Z</time>
      </trkpt>
      <trkpt lat="45.67887" lon="5.98003">
        <ele>1453.65</ele>
        <time>2011-10-02T08:51:41Z</time>
      </trkpt>
      <trkpt lat="45.67887" lon="5.98004">
        <ele>1453.65</ele>
        <time>2011-10-02T08:51:42Z</time>
      </trkpt>
      <trkpt lat="45.67892" lon="5.98006">
        <ele>1454.13</ele>
        <time>2011-10-02T08:51:50Z</time>
      </trkpt>
      <trkpt lat="45.67893" lon="5.98006">
        <ele>1454.13</ele>
        <time>2011-10-02T08:51:51Z</time>
      </trkpt>
      <trkpt lat="45.67894" lon="5.98005">
        <ele>1454.61</ele>
        <time>2011-10-02T08:51:52Z</time>
      </trkpt>
      <trkpt lat="45.67895" lon="5.98005">
        <ele>1454.61</ele>
        <time>2011-10-02T08:51:56Z</time>
      </trkpt>
      <trkpt lat="45.67903" lon="5.97998">
        <ele>1455.09</ele>
        <time>2011-10-02T08:52:02Z</time>
      </trkpt>
      <trkpt lat="45.67918" lon="5.97974">
        <ele>1458.46</ele>
        <time>2011-10-02T08:52:15Z</time>
      </trkpt>
      <trkpt lat="45.67929" lon="5.97952">
        <ele>1459.9</ele>
        <time>2011-10-02T08:52:28Z</time>
      </trkpt>
      <trkpt lat="45.67935" lon="5.97938">
        <ele>1461.82</ele>
        <time>2011-10-02T08:52:41Z</time>
      </trkpt>
      <trkpt lat="45.67943" lon="5.97917">
        <ele>1465.19</ele>
        <time>2011-10-02T08:53:00Z</time>
      </trkpt>
      <trkpt lat="45.67945" lon="5.97913">
        <ele>1466.63</ele>
        <time>2011-10-02T08:53:15Z</time>
      </trkpt>
      <trkpt lat="45.6795" lon="5.97902">
        <ele>1469.03</ele>
        <time>2011-10-02T08:53:33Z</time>
      </trkpt>
      <trkpt lat="45.67953" lon="5.97895">
        <ele>1471.44</ele>
        <time>2011-10-02T08:53:47Z</time>
      </trkpt>
      <trkpt lat="45.6796" lon="5.97888">
        <ele>1474.32</ele>
        <time>2011-10-02T08:54:00Z</time>
      </trkpt>
      <trkpt lat="45.67963" lon="5.97875">
        <ele>1477.68</ele>
        <time>2011-10-02T08:54:14Z</time>
      </trkpt>
      <trkpt lat="45.67968" lon="5.97867">
        <ele>1480.57</ele>
        <time>2011-10-02T08:54:29Z</time>
      </trkpt>
      <trkpt lat="45.67971" lon="5.97857">
        <ele>1482.97</ele>
        <time>2011-10-02T08:54:42Z</time>
      </trkpt>
      <trkpt lat="45.67973" lon="5.9785">
        <ele>1483.93</ele>
        <time>2011-10-02T08:54:57Z</time>
      </trkpt>
      <trkpt lat="45.67975" lon="5.97847">
        <ele>1483.93</ele>
        <time>2011-10-02T08:55:11Z</time>
      </trkpt>
      <trkpt lat="45.67983" lon="5.97823">
        <ele>1488.26</ele>
        <time>2011-10-02T08:55:26Z</time>
      </trkpt>
      <trkpt lat="45.67988" lon="5.97812">
        <ele>1489.7</ele>
        <time>2011-10-02T08:55:33Z</time>
      </trkpt>
      <trkpt lat="45.67998" lon="5.97793">
        <ele>1492.58</ele>
        <time>2011-10-02T08:55:49Z</time>
      </trkpt>
      <trkpt lat="45.68" lon="5.97786">
        <ele>1493.55</ele>
        <time>2011-10-02T08:56:03Z</time>
      </trkpt>
      <trkpt lat="45.68" lon="5.97786">
        <ele>1493.55</ele>
        <time>2011-10-02T08:56:08Z</time>
      </trkpt>
      <trkpt lat="45.68003" lon="5.97776">
        <ele>1494.51</ele>
        <time>2011-10-02T08:56:13Z</time>
      </trkpt>
      <trkpt lat="45.68015" lon="5.97747">
        <ele>1497.39</ele>
        <time>2011-10-02T08:56:28Z</time>
      </trkpt>
      <trkpt lat="45.68023" lon="5.97731">
        <ele>1498.83</ele>
        <time>2011-10-02T08:56:38Z</time>
      </trkpt>
      <trkpt lat="45.68028" lon="5.97718">
        <ele>1501.24</ele>
        <time>2011-10-02T08:56:46Z</time>
      </trkpt>
      <trkpt lat="45.68029" lon="5.97715">
        <ele>1501.24</ele>
        <time>2011-10-02T08:56:48Z</time>
      </trkpt>
      <trkpt lat="45.68032" lon="5.97707">
        <ele>1502.2</ele>
        <time>2011-10-02T08:56:53Z</time>
      </trkpt>
      <trkpt lat="45.68034" lon="5.97705">
        <ele>1502.68</ele>
        <time>2011-10-02T08:56:55Z</time>
      </trkpt>
      <trkpt lat="45.68036" lon="5.97699">
        <ele>1503.16</ele>
        <time>2011-10-02T08:56:59Z</time>
      </trkpt>
      <trkpt lat="45.68039" lon="5.97693">
        <ele>1504.12</ele>
        <time>2011-10-02T08:57:03Z</time>
      </trkpt>
      <trkpt lat="45.68044" lon="5.97682">
        <ele>1504.6</ele>
        <time>2011-10-02T08:57:09Z</time>
      </trkpt>
      <trkpt lat="45.68054" lon="5.97653">
        <ele>1507.48</ele>
        <time>2011-10-02T08:57:25Z</time>
      </trkpt>
      <trkpt lat="45.68055" lon="5.97652">
        <ele>1507.48</ele>
        <time>2011-10-02T08:57:26Z</time>
      </trkpt>
      <trkpt lat="45.6806" lon="5.97643">
        <ele>1507.97</ele>
        <time>2011-10-02T08:57:31Z</time>
      </trkpt>
      <trkpt lat="45.68071" lon="5.97616">
        <ele>1510.37</ele>
        <time>2011-10-02T08:57:49Z</time>
      </trkpt>
      <trkpt lat="45.6807" lon="5.97616">
        <ele>1509.41</ele>
        <time>2011-10-02T08:58:15Z</time>
      </trkpt>
      <trkpt lat="45.6807" lon="5.97617">
        <ele>1510.37</ele>
        <time>2011-10-02T08:58:35Z</time>
      </trkpt>
      <trkpt lat="45.6807" lon="5.97617">
        <ele>1509.89</ele>
        <time>2011-10-02T08:59:12Z</time>
      </trkpt>
      <trkpt lat="45.68071" lon="5.97616">
        <ele>1509.41</ele>
        <time>2011-10-02T08:59:33Z</time>
      </trkpt>
      <trkpt lat="45.6807" lon="5.97617">
        <ele>1509.89</ele>
        <time>2011-10-02T09:00:14Z</time>
      </trkpt>
      <trkpt lat="45.68071" lon="5.97617">
        <ele>1510.37</ele>
        <time>2011-10-02T09:00:57Z</time>
      </trkpt>
      <trkpt lat="45.68071" lon="5.97617">
        <ele>1510.85</ele>
        <time>2011-10-02T09:00:58Z</time>
      </trkpt>
      <trkpt lat="45.68078" lon="5.97629">
        <ele>1509.41</ele>
        <time>2011-10-02T09:01:02Z</time>
      </trkpt>
      <trkpt lat="45.68109" lon="5.97667">
        <ele>1506.52</ele>
        <time>2011-10-02T09:01:14Z</time>
      </trkpt>
      <trkpt lat="45.6812" lon="5.97678">
        <ele>1504.12</ele>
        <time>2011-10-02T09:01:17Z</time>
      </trkpt>
      <trkpt lat="45.68124" lon="5.97681">
        <ele>1502.2</ele>
        <time>2011-10-02T09:01:18Z</time>
      </trkpt>
      <trkpt lat="45.68128" lon="5.97683">
        <ele>1503.64</ele>
        <time>2011-10-02T09:01:19Z</time>
      </trkpt>
      <trkpt lat="45.68131" lon="5.97684">
        <ele>1503.16</ele>
        <time>2011-10-02T09:01:20Z</time>
      </trkpt>
      <trkpt lat="45.68136" lon="5.97684">
        <ele>1502.2</ele>
        <time>2011-10-02T09:01:21Z</time>
      </trkpt>
      <trkpt lat="45.6814" lon="5.97685">
        <ele>1501.72</ele>
        <time>2011-10-02T09:01:22Z</time>
      </trkpt>
      <trkpt lat="45.68144" lon="5.97688">
        <ele>1501.24</ele>
        <time>2011-10-02T09:01:23Z</time>
      </trkpt>
      <trkpt lat="45.68148" lon="5.97691">
        <ele>1501.24</ele>
        <time>2011-10-02T09:01:24Z</time>
      </trkpt>
      <trkpt lat="45.6815" lon="5.97694">
        <ele>1500.76</ele>
        <time>2011-10-02T09:01:25Z</time>
      </trkpt>
      <trkpt lat="45.68157" lon="5.97705">
        <ele>1502.2</ele>
        <time>2011-10-02T09:01:29Z</time>
      </trkpt>
      <trkpt lat="45.68156" lon="5.97714">
        <ele>1500.76</ele>
        <time>2011-10-02T09:01:37Z</time>
      </trkpt>
      <trkpt lat="45.68158" lon="5.97722">
        <ele>1499.31</ele>
        <time>2011-10-02T09:01:45Z</time>
      </trkpt>
      <trkpt lat="45.68184" lon="5.97736">
        <ele>1499.79</ele>
        <time>2011-10-02T09:01:56Z</time>
      </trkpt>
      <trkpt lat="45.68203" lon="5.97747">
        <ele>1499.79</ele>
        <time>2011-10-02T09:02:02Z</time>
      </trkpt>
      <trkpt lat="45.68201" lon="5.97746">
        <ele>1500.27</ele>
        <time>2011-10-02T09:02:08Z</time>
      </trkpt>
      <trkpt lat="45.68201" lon="5.97746">
        <ele>1500.27</ele>
        <time>2011-10-02T09:02:12Z</time>
      </trkpt>
      <trkpt lat="45.68213" lon="5.97752">
        <ele>1500.27</ele>
        <time>2011-10-02T09:02:18Z</time>
      </trkpt>
      <trkpt lat="45.68219" lon="5.9776">
        <ele>1500.27</ele>
        <time>2011-10-02T09:02:20Z</time>
      </trkpt>
      <trkpt lat="45.68222" lon="5.97764">
        <ele>1500.27</ele>
        <time>2011-10-02T09:02:21Z</time>
      </trkpt>
      <trkpt lat="45.68254" lon="5.97815">
        <ele>1503.64</ele>
        <time>2011-10-02T09:02:34Z</time>
      </trkpt>
      <trkpt lat="45.68282" lon="5.97877">
        <ele>1504.6</ele>
        <time>2011-10-02T09:02:48Z</time>
      </trkpt>
      <trkpt lat="45.68319" lon="5.97939">
        <ele>1507.97</ele>
        <time>2011-10-02T09:03:04Z</time>
      </trkpt>
      <trkpt lat="45.68351" lon="5.97929">
        <ele>1510.85</ele>
        <time>2011-10-02T09:03:17Z</time>
      </trkpt>
      <trkpt lat="45.68396" lon="5.97903">
        <ele>1512.29</ele>
        <time>2011-10-02T09:03:31Z</time>
      </trkpt>
      <trkpt lat="45.684" lon="5.97901">
        <ele>1512.29</ele>
        <time>2011-10-02T09:03:32Z</time>
      </trkpt>
      <trkpt lat="45.68404" lon="5.97898">
        <ele>1511.81</ele>
        <time>2011-10-02T09:03:33Z</time>
      </trkpt>
      <trkpt lat="45.68408" lon="5.97894">
        <ele>1511.81</ele>
        <time>2011-10-02T09:03:34Z</time>
      </trkpt>
      <trkpt lat="45.68411" lon="5.9789">
        <ele>1511.81</ele>
        <time>2011-10-02T09:03:35Z</time>
      </trkpt>
      <trkpt lat="45.68413" lon="5.97885">
        <ele>1511.81</ele>
        <time>2011-10-02T09:03:36Z</time>
      </trkpt>
      <trkpt lat="45.68438" lon="5.97874">
        <ele>1509.41</ele>
        <time>2011-10-02T09:03:43Z</time>
      </trkpt>
      <trkpt lat="45.68455" lon="5.97873">
        <ele>1506.04</ele>
        <time>2011-10-02T09:03:47Z</time>
      </trkpt>
      <trkpt lat="45.68465" lon="5.97872">
        <ele>1505.56</ele>
        <time>2011-10-02T09:03:49Z</time>
      </trkpt>
      <trkpt lat="45.68496" lon="5.97861">
        <ele>1502.68</ele>
        <time>2011-10-02T09:03:54Z</time>
      </trkpt>
      <trkpt lat="45.68513" lon="5.97853">
        <ele>1502.2</ele>
        <time>2011-10-02T09:03:56Z</time>
      </trkpt>
      <trkpt lat="45.68535" lon="5.97837">
        <ele>1501.72</ele>
        <time>2011-10-02T09:03:57Z</time>
      </trkpt>
      <trkpt lat="45.68545" lon="5.97826">
        <ele>1501.72</ele>
        <time>2011-10-02T09:03:58Z</time>
      </trkpt>
      <trkpt lat="45.68551" lon="5.97817">
        <ele>1501.72</ele>
        <time>2011-10-02T09:03:59Z</time>
      </trkpt>
      <trkpt lat="45.68555" lon="5.9781">
        <ele>1502.2</ele>
        <time>2011-10-02T09:04:00Z</time>
      </trkpt>
      <trkpt lat="45.68559" lon="5.97805">
        <ele>1503.16</ele>
        <time>2011-10-02T09:04:01Z</time>
      </trkpt>
      <trkpt lat="45.68563" lon="5.97799">
        <ele>1503.16</ele>
        <time>2011-10-02T09:04:02Z</time>
      </trkpt>
      <trkpt lat="45.68567" lon="5.97796">
        <ele>1503.16</ele>
        <time>2011-10-02T09:04:03Z</time>
      </trkpt>
      <trkpt lat="45.6857" lon="5.97793">
        <ele>1503.64</ele>
        <time>2011-10-02T09:04:04Z</time>
      </trkpt>
      <trkpt lat="45.68612" lon="5.97777">
        <ele>1505.56</ele>
        <time>2011-10-02T09:04:15Z</time>
      </trkpt>
      <trkpt lat="45.68632" lon="5.97771">
        <ele>1506.04</ele>
        <time>2011-10-02T09:04:26Z</time>
      </trkpt>
      <trkpt lat="45.68632" lon="5.97771">
        <ele>1505.56</ele>
        <time>2011-10-02T09:04:36Z</time>
      </trkpt>
      <trkpt lat="45.68633" lon="5.97772">
        <ele>1506.52</ele>
        <time>2011-10-02T09:04:38Z</time>
      </trkpt>
      <trkpt lat="45.68634" lon="5.97773">
        <ele>1507.48</ele>
        <time>2011-10-02T09:04:39Z</time>
      </trkpt>
      <trkpt lat="45.68636" lon="5.97774">
        <ele>1507.48</ele>
        <time>2011-10-02T09:04:40Z</time>
      </trkpt>
      <trkpt lat="45.68639" lon="5.97777">
        <ele>1507.48</ele>
        <time>2011-10-02T09:04:43Z</time>
      </trkpt>
      <trkpt lat="45.6864" lon="5.97778">
        <ele>1507.97</ele>
        <time>2011-10-02T09:04:44Z</time>
      </trkpt>
      <trkpt lat="45.68641" lon="5.97779">
        <ele>1507.48</ele>
        <time>2011-10-02T09:04:45Z</time>
      </trkpt>
      <trkpt lat="45.68643" lon="5.97781">
        <ele>1507.97</ele>
        <time>2011-10-02T09:04:46Z</time>
      </trkpt>
      <trkpt lat="45.68645" lon="5.97783">
        <ele>1508.45</ele>
        <time>2011-10-02T09:04:47Z</time>
      </trkpt>
      <trkpt lat="45.68647" lon="5.97784">
        <ele>1508.45</ele>
        <time>2011-10-02T09:04:48Z</time>
      </trkpt>
      <trkpt lat="45.68649" lon="5.97786">
        <ele>1508.45</ele>
        <time>2011-10-02T09:04:49Z</time>
      </trkpt>
      <trkpt lat="45.6865" lon="5.97787">
        <ele>1508.93</ele>
        <time>2011-10-02T09:04:50Z</time>
      </trkpt>
      <trkpt lat="45.68652" lon="5.97788">
        <ele>1508.93</ele>
        <time>2011-10-02T09:04:51Z</time>
      </trkpt>
      <trkpt lat="45.68653" lon="5.9779">
        <ele>1508.93</ele>
        <time>2011-10-02T09:04:52Z</time>
      </trkpt>
      <trkpt lat="45.68654" lon="5.97792">
        <ele>1508.93</ele>
        <time>2011-10-02T09:04:53Z</time>
      </trkpt>
      <trkpt lat="45.68655" lon="5.97794">
        <ele>1508.93</ele>
        <time>2011-10-02T09:04:54Z</time>
      </trkpt>
      <trkpt lat="45.68655" lon="5.97795">
        <ele>1508.93</ele>
        <time>2011-10-02T09:04:55Z</time>
      </trkpt>
      <trkpt lat="45.68655" lon="5.97795">
        <ele>1508.45</ele>
        <time>2011-10-02T09:05:23Z</time>
      </trkpt>
      <trkpt lat="45.68654" lon="5.97796">
        <ele>1508.45</ele>
        <time>2011-10-02T09:05:50Z</time>
      </trkpt>
      <trkpt lat="45.68654" lon="5.97796">
        <ele>1507.97</ele>
        <time>2011-10-02T09:06:35Z</time>
      </trkpt>
      <trkpt lat="45.68653" lon="5.97796">
        <ele>1508.45</ele>
        <time>2011-10-02T09:07:10Z</time>
      </trkpt>
      <trkpt lat="45.68652" lon="5.97806">
        <ele>1509.41</ele>
        <time>2011-10-02T09:07:19Z</time>
      </trkpt>
      <trkpt lat="45.68651" lon="5.97809">
        <ele>1508.93</ele>
        <time>2011-10-02T09:07:20Z</time>
      </trkpt>
      <trkpt lat="45.68642" lon="5.97837">
        <ele>1508.93</ele>
        <time>2011-10-02T09:07:34Z</time>
      </trkpt>
      <trkpt lat="45.68643" lon="5.97837">
        <ele>1509.41</ele>
        <time>2011-10-02T09:07:49Z</time>
      </trkpt>
      <trkpt lat="45.68643" lon="5.97837">
        <ele>1508.45</ele>
        <time>2011-10-02T09:08:06Z</time>
      </trkpt>
      <trkpt lat="45.68643" lon="5.97836">
        <ele>1508.93</ele>
        <time>2011-10-02T09:08:08Z</time>
      </trkpt>
      <trkpt lat="45.68644" lon="5.97834">
        <ele>1508.93</ele>
        <time>2011-10-02T09:08:09Z</time>
      </trkpt>
      <trkpt lat="45.68644" lon="5.9783">
        <ele>1508.93</ele>
        <time>2011-10-02T09:08:10Z</time>
      </trkpt>
      <trkpt lat="45.68645" lon="5.97825">
        <ele>1508.93</ele>
        <time>2011-10-02T09:08:11Z</time>
      </trkpt>
      <trkpt lat="45.68646" lon="5.97821">
        <ele>1509.41</ele>
        <time>2011-10-02T09:08:12Z</time>
      </trkpt>
      <trkpt lat="45.68647" lon="5.97816">
        <ele>1508.93</ele>
        <time>2011-10-02T09:08:13Z</time>
      </trkpt>
      <trkpt lat="45.68648" lon="5.9781">
        <ele>1509.41</ele>
        <time>2011-10-02T09:08:14Z</time>
      </trkpt>
      <trkpt lat="45.68648" lon="5.97803">
        <ele>1508.93</ele>
        <time>2011-10-02T09:08:15Z</time>
      </trkpt>
      <trkpt lat="45.68648" lon="5.97796">
        <ele>1508.93</ele>
        <time>2011-10-02T09:08:16Z</time>
      </trkpt>
      <trkpt lat="45.68647" lon="5.97789">
        <ele>1507.97</ele>
        <time>2011-10-02T09:08:17Z</time>
      </trkpt>
      <trkpt lat="45.68645" lon="5.97782">
        <ele>1507.48</ele>
        <time>2011-10-02T09:08:18Z</time>
      </trkpt>
      <trkpt lat="45.68638" lon="5.97766">
        <ele>1506.04</ele>
        <time>2011-10-02T09:08:21Z</time>
      </trkpt>
      <trkpt lat="45.68626" lon="5.97764">
        <ele>1504.6</ele>
        <time>2011-10-02T09:08:23Z</time>
      </trkpt>
      <trkpt lat="45.68573" lon="5.97788">
        <ele>1503.16</ele>
        <time>2011-10-02T09:08:33Z</time>
      </trkpt>
      <trkpt lat="45.68553" lon="5.97801">
        <ele>1502.68</ele>
        <time>2011-10-02T09:08:45Z</time>
      </trkpt>
      <trkpt lat="45.68553" lon="5.97802">
        <ele>1502.68</ele>
        <time>2011-10-02T09:08:46Z</time>
      </trkpt>
      <trkpt lat="45.68546" lon="5.97833">
        <ele>1501.72</ele>
        <time>2011-10-02T09:09:00Z</time>
      </trkpt>
      <trkpt lat="45.68545" lon="5.97833">
        <ele>1501.24</ele>
        <time>2011-10-02T09:09:14Z</time>
      </trkpt>
      <trkpt lat="45.68543" lon="5.97835">
        <ele>1501.72</ele>
        <time>2011-10-02T09:09:24Z</time>
      </trkpt>
      <trkpt lat="45.68516" lon="5.97852">
        <ele>1502.2</ele>
        <time>2011-10-02T09:09:37Z</time>
      </trkpt>
      <trkpt lat="45.6851" lon="5.97853">
        <ele>1502.68</ele>
        <time>2011-10-02T09:09:51Z</time>
      </trkpt>
      <trkpt lat="45.68508" lon="5.97853">
        <ele>1501.72</ele>
        <time>2011-10-02T09:10:11Z</time>
      </trkpt>
      <trkpt lat="45.68507" lon="5.97852">
        <ele>1502.2</ele>
        <time>2011-10-02T09:10:45Z</time>
      </trkpt>
      <trkpt lat="45.68508" lon="5.97852">
        <ele>1501.72</ele>
        <time>2011-10-02T09:11:22Z</time>
      </trkpt>
      <trkpt lat="45.68508" lon="5.97852">
        <ele>1501.72</ele>
        <time>2011-10-02T09:12:01Z</time>
      </trkpt>
      <trkpt lat="45.68508" lon="5.97852">
        <ele>1501.72</ele>
        <time>2011-10-02T09:12:38Z</time>
      </trkpt>
      <trkpt lat="45.68512" lon="5.97855">
        <ele>1503.16</ele>
        <time>2011-10-02T09:13:09Z</time>
      </trkpt>
      <trkpt lat="45.68521" lon="5.9785">
        <ele>1502.2</ele>
        <time>2011-10-02T09:13:14Z</time>
      </trkpt>
      <trkpt lat="45.68563" lon="5.97801">
        <ele>1502.68</ele>
        <time>2011-10-02T09:13:26Z</time>
      </trkpt>
      <trkpt lat="45.68586" lon="5.97784">
        <ele>1505.08</ele>
        <time>2011-10-02T09:13:37Z</time>
      </trkpt>
      <trkpt lat="45.68586" lon="5.97785">
        <ele>1504.6</ele>
        <time>2011-10-02T09:13:52Z</time>
      </trkpt>
      <trkpt lat="45.68588" lon="5.97785">
        <ele>1504.12</ele>
        <time>2011-10-02T09:14:04Z</time>
      </trkpt>
      <trkpt lat="45.6859" lon="5.97785">
        <ele>1504.12</ele>
        <time>2011-10-02T09:14:05Z</time>
      </trkpt>
      <trkpt lat="45.68591" lon="5.97785">
        <ele>1505.08</ele>
        <time>2011-10-02T09:14:06Z</time>
      </trkpt>
      <trkpt lat="45.68588" lon="5.9779">
        <ele>1504.12</ele>
        <time>2011-10-02T09:14:14Z</time>
      </trkpt>
      <trkpt lat="45.68585" lon="5.97791">
        <ele>1503.16</ele>
        <time>2011-10-02T09:14:15Z</time>
      </trkpt>
      <trkpt lat="45.68582" lon="5.97792">
        <ele>1502.68</ele>
        <time>2011-10-02T09:14:16Z</time>
      </trkpt>
      <trkpt lat="45.68581" lon="5.97794">
        <ele>1502.2</ele>
        <time>2011-10-02T09:14:17Z</time>
      </trkpt>
      <trkpt lat="45.68576" lon="5.97797">
        <ele>1502.2</ele>
        <time>2011-10-02T09:14:18Z</time>
      </trkpt>
      <trkpt lat="45.68506" lon="5.97853">
        <ele>1502.68</ele>
        <time>2011-10-02T09:14:31Z</time>
      </trkpt>
      <trkpt lat="45.68509" lon="5.97858">
        <ele>1502.2</ele>
        <time>2011-10-02T09:14:44Z</time>
      </trkpt>
      <trkpt lat="45.68509" lon="5.97858">
        <ele>1502.2</ele>
        <time>2011-10-02T09:15:20Z</time>
      </trkpt>
      <trkpt lat="45.68509" lon="5.97858">
        <ele>1502.68</ele>
        <time>2011-10-02T09:16:01Z</time>
      </trkpt>
      <trkpt lat="45.68509" lon="5.97858">
        <ele>1503.64</ele>
        <time>2011-10-02T09:16:21Z</time>
      </trkpt>
      <trkpt lat="45.68514" lon="5.97855">
        <ele>1503.16</ele>
        <time>2011-10-02T09:16:37Z</time>
      </trkpt>
      <trkpt lat="45.68516" lon="5.97854">
        <ele>1502.68</ele>
        <time>2011-10-02T09:16:38Z</time>
      </trkpt>
      <trkpt lat="45.68519" lon="5.97852">
        <ele>1502.68</ele>
        <time>2011-10-02T09:16:39Z</time>
      </trkpt>
      <trkpt lat="45.68524" lon="5.97848">
        <ele>1502.2</ele>
        <time>2011-10-02T09:16:40Z</time>
      </trkpt>
      <trkpt lat="45.68529" lon="5.97844">
        <ele>1502.2</ele>
        <time>2011-10-02T09:16:41Z</time>
      </trkpt>
      <trkpt lat="45.68535" lon="5.97839">
        <ele>1502.68</ele>
        <time>2011-10-02T09:16:42Z</time>
      </trkpt>
      <trkpt lat="45.6854" lon="5.97834">
        <ele>1502.2</ele>
        <time>2011-10-02T09:16:43Z</time>
      </trkpt>
      <trkpt lat="45.68546" lon="5.97828">
        <ele>1502.2</ele>
        <time>2011-10-02T09:16:44Z</time>
      </trkpt>
      <trkpt lat="45.68551" lon="5.97822">
        <ele>1502.68</ele>
        <time>2011-10-02T09:16:45Z</time>
      </trkpt>
      <trkpt lat="45.68555" lon="5.97817">
        <ele>1503.16</ele>
        <time>2011-10-02T09:16:46Z</time>
      </trkpt>
      <trkpt lat="45.68559" lon="5.97812">
        <ele>1503.16</ele>
        <time>2011-10-02T09:16:47Z</time>
      </trkpt>
      <trkpt lat="45.68561" lon="5.97809">
        <ele>1503.64</ele>
        <time>2011-10-02T09:16:48Z</time>
      </trkpt>
      <trkpt lat="45.68583" lon="5.9779">
        <ele>1505.08</ele>
        <time>2011-10-02T09:16:54Z</time>
      </trkpt>
      <trkpt lat="45.68631" lon="5.97778">
        <ele>1507.97</ele>
        <time>2011-10-02T09:17:05Z</time>
      </trkpt>
      <trkpt lat="45.68635" lon="5.97779">
        <ele>1508.93</ele>
        <time>2011-10-02T09:17:06Z</time>
      </trkpt>
      <trkpt lat="45.68639" lon="5.9778">
        <ele>1508.93</ele>
        <time>2011-10-02T09:17:07Z</time>
      </trkpt>
      <trkpt lat="45.68643" lon="5.97782">
        <ele>1508.93</ele>
        <time>2011-10-02T09:17:08Z</time>
      </trkpt>
      <trkpt lat="45.68646" lon="5.97785">
        <ele>1509.41</ele>
        <time>2011-10-02T09:17:09Z</time>
      </trkpt>
      <trkpt lat="45.68649" lon="5.97789">
        <ele>1509.41</ele>
        <time>2011-10-02T09:17:10Z</time>
      </trkpt>
      <trkpt lat="45.68661" lon="5.97832">
        <ele>1510.37</ele>
        <time>2011-10-02T09:17:18Z</time>
      </trkpt>
      <trkpt lat="45.68655" lon="5.9786">
        <ele>1508.93</ele>
        <time>2011-10-02T09:17:23Z</time>
      </trkpt>
      <trkpt lat="45.68639" lon="5.97921">
        <ele>1507</ele>
        <time>2011-10-02T09:17:34Z</time>
      </trkpt>
      <trkpt lat="45.68629" lon="5.97939">
        <ele>1508.45</ele>
        <time>2011-10-02T09:17:46Z</time>
      </trkpt>
      <trkpt lat="45.68628" lon="5.9794">
        <ele>1508.93</ele>
        <time>2011-10-02T09:17:47Z</time>
      </trkpt>
      <trkpt lat="45.68621" lon="5.97953">
        <ele>1509.41</ele>
        <time>2011-10-02T09:18:02Z</time>
      </trkpt>
      <trkpt lat="45.68619" lon="5.97957">
        <ele>1508.93</ele>
        <time>2011-10-02T09:18:04Z</time>
      </trkpt>
      <trkpt lat="45.6859" lon="5.98013">
        <ele>1510.37</ele>
        <time>2011-10-02T09:18:17Z</time>
      </trkpt>
      <trkpt lat="45.68551" lon="5.98063">
        <ele>1509.89</ele>
        <time>2011-10-02T09:18:29Z</time>
      </trkpt>
      <trkpt lat="45.68523" lon="5.98106">
        <ele>1511.33</ele>
        <time>2011-10-02T09:18:37Z</time>
      </trkpt>
      <trkpt lat="45.68501" lon="5.98152">
        <ele>1510.37</ele>
        <time>2011-10-02T09:18:50Z</time>
      </trkpt>
      <trkpt lat="45.68502" lon="5.98152">
        <ele>1509.89</ele>
        <time>2011-10-02T09:19:06Z</time>
      </trkpt>
      <trkpt lat="45.68503" lon="5.98154">
        <ele>1508.93</ele>
        <time>2011-10-02T09:19:07Z</time>
      </trkpt>
      <trkpt lat="45.68504" lon="5.98156">
        <ele>1508.45</ele>
        <time>2011-10-02T09:19:08Z</time>
      </trkpt>
      <trkpt lat="45.68505" lon="5.98159">
        <ele>1507.97</ele>
        <time>2011-10-02T09:19:09Z</time>
      </trkpt>
      <trkpt lat="45.68505" lon="5.98162">
        <ele>1507</ele>
        <time>2011-10-02T09:19:10Z</time>
      </trkpt>
      <trkpt lat="45.68507" lon="5.98174">
        <ele>1502.2</ele>
        <time>2011-10-02T09:19:14Z</time>
      </trkpt>
      <trkpt lat="45.68512" lon="5.98189">
        <ele>1499.31</ele>
        <time>2011-10-02T09:19:17Z</time>
      </trkpt>
      <trkpt lat="45.6852" lon="5.98217">
        <ele>1495.47</ele>
        <time>2011-10-02T09:19:22Z</time>
      </trkpt>
      <trkpt lat="45.68524" lon="5.98228">
        <ele>1494.51</ele>
        <time>2011-10-02T09:19:24Z</time>
      </trkpt>
      <trkpt lat="45.68543" lon="5.98274">
        <ele>1492.58</ele>
        <time>2011-10-02T09:19:35Z</time>
      </trkpt>
      <trkpt lat="45.68543" lon="5.98284">
        <ele>1491.62</ele>
        <time>2011-10-02T09:19:41Z</time>
      </trkpt>
      <trkpt lat="45.68543" lon="5.98286">
        <ele>1491.14</ele>
        <time>2011-10-02T09:19:59Z</time>
      </trkpt>
      <trkpt lat="45.68543" lon="5.98286">
        <ele>1490.66</ele>
        <time>2011-10-02T09:20:40Z</time>
      </trkpt>
      <trkpt lat="45.68543" lon="5.98286">
        <ele>1491.62</ele>
        <time>2011-10-02T09:20:57Z</time>
      </trkpt>
      <trkpt lat="45.68542" lon="5.98294">
        <ele>1492.1</ele>
        <time>2011-10-02T09:21:25Z</time>
      </trkpt>
      <trkpt lat="45.68543" lon="5.98297">
        <ele>1492.58</ele>
        <time>2011-10-02T09:21:26Z</time>
      </trkpt>
      <trkpt lat="45.68543" lon="5.983">
        <ele>1493.06</ele>
        <time>2011-10-02T09:21:27Z</time>
      </trkpt>
      <trkpt lat="45.68543" lon="5.98302">
        <ele>1492.58</ele>
        <time>2011-10-02T09:21:28Z</time>
      </trkpt>
      <trkpt lat="45.68543" lon="5.98304">
        <ele>1492.58</ele>
        <time>2011-10-02T09:21:29Z</time>
      </trkpt>
      <trkpt lat="45.68543" lon="5.98306">
        <ele>1492.58</ele>
        <time>2011-10-02T09:21:30Z</time>
      </trkpt>
      <trkpt lat="45.68546" lon="5.98354">
        <ele>1493.06</ele>
        <time>2011-10-02T09:21:41Z</time>
      </trkpt>
      <trkpt lat="45.6853" lon="5.98397">
        <ele>1489.7</ele>
        <time>2011-10-02T09:21:50Z</time>
      </trkpt>
      <trkpt lat="45.68539" lon="5.98423">
        <ele>1489.7</ele>
        <time>2011-10-02T09:22:02Z</time>
      </trkpt>
      <trkpt lat="45.68541" lon="5.98423">
        <ele>1490.18</ele>
        <time>2011-10-02T09:22:03Z</time>
      </trkpt>
      <trkpt lat="45.68554" lon="5.98416">
        <ele>1493.06</ele>
        <time>2011-10-02T09:22:13Z</time>
      </trkpt>
      <trkpt lat="45.68565" lon="5.98417">
        <ele>1494.03</ele>
        <time>2011-10-02T09:22:22Z</time>
      </trkpt>
      <trkpt lat="45.68569" lon="5.98413">
        <ele>1494.51</ele>
        <time>2011-10-02T09:22:26Z</time>
      </trkpt>
      <trkpt lat="45.68577" lon="5.98427">
        <ele>1495.95</ele>
        <time>2011-10-02T09:22:37Z</time>
      </trkpt>
      <trkpt lat="45.68576" lon="5.98431">
        <ele>1495.95</ele>
        <time>2011-10-02T09:22:52Z</time>
      </trkpt>
      <trkpt lat="45.68576" lon="5.98431">
        <ele>1495.47</ele>
        <time>2011-10-02T09:23:18Z</time>
      </trkpt>
      <trkpt lat="45.68576" lon="5.98432">
        <ele>1495.47</ele>
        <time>2011-10-02T09:23:53Z</time>
      </trkpt>
      <trkpt lat="45.68576" lon="5.98432">
        <ele>1495.47</ele>
        <time>2011-10-02T09:24:25Z</time>
      </trkpt>
      <trkpt lat="45.68576" lon="5.98432">
        <ele>1495.47</ele>
        <time>2011-10-02T09:25:04Z</time>
      </trkpt>
      <trkpt lat="45.68576" lon="5.98432">
        <ele>1495.95</ele>
        <time>2011-10-02T09:25:45Z</time>
      </trkpt>
      <trkpt lat="45.68573" lon="5.98429">
        <ele>1495.47</ele>
        <time>2011-10-02T09:26:16Z</time>
      </trkpt>
      <trkpt lat="45.68563" lon="5.98422">
        <ele>1494.03</ele>
        <time>2011-10-02T09:26:20Z</time>
      </trkpt>
      <trkpt lat="45.68543" lon="5.98418">
        <ele>1490.66</ele>
        <time>2011-10-02T09:26:24Z</time>
      </trkpt>
      <trkpt lat="45.68527" lon="5.98417">
        <ele>1487.3</ele>
        <time>2011-10-02T09:26:27Z</time>
      </trkpt>
      <trkpt lat="45.68506" lon="5.98421">
        <ele>1483.93</ele>
        <time>2011-10-02T09:26:32Z</time>
      </trkpt>
      <trkpt lat="45.68501" lon="5.9842">
        <ele>1483.93</ele>
        <time>2011-10-02T09:26:42Z</time>
      </trkpt>
      <trkpt lat="45.68501" lon="5.9842">
        <ele>1483.93</ele>
        <time>2011-10-02T09:26:43Z</time>
      </trkpt>
      <trkpt lat="45.68487" lon="5.98423">
        <ele>1479.13</ele>
        <time>2011-10-02T09:26:49Z</time>
      </trkpt>
      <trkpt lat="45.68484" lon="5.98425">
        <ele>1479.13</ele>
        <time>2011-10-02T09:26:50Z</time>
      </trkpt>
      <trkpt lat="45.68481" lon="5.98429">
        <ele>1478.65</ele>
        <time>2011-10-02T09:26:51Z</time>
      </trkpt>
      <trkpt lat="45.68473" lon="5.98438">
        <ele>1477.2</ele>
        <time>2011-10-02T09:26:54Z</time>
      </trkpt>
      <trkpt lat="45.68451" lon="5.9845">
        <ele>1475.28</ele>
        <time>2011-10-02T09:26:57Z</time>
      </trkpt>
      <trkpt lat="45.68434" lon="5.98459">
        <ele>1473.36</ele>
        <time>2011-10-02T09:27:00Z</time>
      </trkpt>
      <trkpt lat="45.6842" lon="5.98481">
        <ele>1469.99</ele>
        <time>2011-10-02T09:27:04Z</time>
      </trkpt>
      <trkpt lat="45.68415" lon="5.98512">
        <ele>1466.15</ele>
        <time>2011-10-02T09:27:08Z</time>
      </trkpt>
      <trkpt lat="45.68406" lon="5.98542">
        <ele>1462.3</ele>
        <time>2011-10-02T09:27:12Z</time>
      </trkpt>
      <trkpt lat="45.68404" lon="5.98573">
        <ele>1459.9</ele>
        <time>2011-10-02T09:27:15Z</time>
      </trkpt>
      <trkpt lat="45.68403" lon="5.98583">
        <ele>1459.42</ele>
        <time>2011-10-02T09:27:16Z</time>
      </trkpt>
      <trkpt lat="45.68402" lon="5.98592">
        <ele>1458.46</ele>
        <time>2011-10-02T09:27:17Z</time>
      </trkpt>
      <trkpt lat="45.68401" lon="5.986">
        <ele>1457.98</ele>
        <time>2011-10-02T09:27:18Z</time>
      </trkpt>
      <trkpt lat="45.684" lon="5.98607">
        <ele>1457.02</ele>
        <time>2011-10-02T09:27:19Z</time>
      </trkpt>
      <trkpt lat="45.68399" lon="5.98614">
        <ele>1456.05</ele>
        <time>2011-10-02T09:27:21Z</time>
      </trkpt>
      <trkpt lat="45.68399" lon="5.98617">
        <ele>1456.05</ele>
        <time>2011-10-02T09:27:34Z</time>
      </trkpt>
      <trkpt lat="45.68399" lon="5.98617">
        <ele>1456.05</ele>
        <time>2011-10-02T09:27:42Z</time>
      </trkpt>
      <trkpt lat="45.68399" lon="5.9862">
        <ele>1456.53</ele>
        <time>2011-10-02T09:27:43Z</time>
      </trkpt>
      <trkpt lat="45.68399" lon="5.98625">
        <ele>1455.57</ele>
        <time>2011-10-02T09:27:44Z</time>
      </trkpt>
      <trkpt lat="45.684" lon="5.98629">
        <ele>1455.09</ele>
        <time>2011-10-02T09:27:45Z</time>
      </trkpt>
      <trkpt lat="45.68401" lon="5.98633">
        <ele>1455.09</ele>
        <time>2011-10-02T09:27:46Z</time>
      </trkpt>
      <trkpt lat="45.68401" lon="5.98637">
        <ele>1454.61</ele>
        <time>2011-10-02T09:27:47Z</time>
      </trkpt>
      <trkpt lat="45.68402" lon="5.98647">
        <ele>1454.13</ele>
        <time>2011-10-02T09:27:49Z</time>
      </trkpt>
      <trkpt lat="45.68406" lon="5.98682">
        <ele>1450.29</ele>
        <time>2011-10-02T09:27:54Z</time>
      </trkpt>
      <trkpt lat="45.68407" lon="5.98694">
        <ele>1448.36</ele>
        <time>2011-10-02T09:27:57Z</time>
      </trkpt>
      <trkpt lat="45.68403" lon="5.9871">
        <ele>1445.96</ele>
        <time>2011-10-02T09:28:01Z</time>
      </trkpt>
      <trkpt lat="45.68388" lon="5.98736">
        <ele>1442.11</ele>
        <time>2011-10-02T09:28:06Z</time>
      </trkpt>
      <trkpt lat="45.68381" lon="5.98748">
        <ele>1438.27</ele>
        <time>2011-10-02T09:28:09Z</time>
      </trkpt>
      <trkpt lat="45.68375" lon="5.98755">
        <ele>1437.31</ele>
        <time>2011-10-02T09:28:11Z</time>
      </trkpt>
      <trkpt lat="45.68369" lon="5.98768">
        <ele>1434.42</ele>
        <time>2011-10-02T09:28:14Z</time>
      </trkpt>
      <trkpt lat="45.6837" lon="5.98771">
        <ele>1433.46</ele>
        <time>2011-10-02T09:28:18Z</time>
      </trkpt>
      <trkpt lat="45.68369" lon="5.98773">
        <ele>1432.98</ele>
        <time>2011-10-02T09:28:20Z</time>
      </trkpt>
      <trkpt lat="45.68372" lon="5.98777">
        <ele>1432.98</ele>
        <time>2011-10-02T09:28:24Z</time>
      </trkpt>
      <trkpt lat="45.68395" lon="5.98802">
        <ele>1433.94</ele>
        <time>2011-10-02T09:28:37Z</time>
      </trkpt>
      <trkpt lat="45.68403" lon="5.9882">
        <ele>1433.94</ele>
        <time>2011-10-02T09:28:49Z</time>
      </trkpt>
      <trkpt lat="45.68403" lon="5.9882">
        <ele>1433.94</ele>
        <time>2011-10-02T09:29:21Z</time>
      </trkpt>
      <trkpt lat="45.68403" lon="5.9882">
        <ele>1434.42</ele>
        <time>2011-10-02T09:29:56Z</time>
      </trkpt>
      <trkpt lat="45.68403" lon="5.9882">
        <ele>1433.94</ele>
        <time>2011-10-02T09:30:04Z</time>
      </trkpt>
      <trkpt lat="45.68387" lon="5.98832">
        <ele>1432.02</ele>
        <time>2011-10-02T09:30:10Z</time>
      </trkpt>
      <trkpt lat="45.6838" lon="5.9884">
        <ele>1431.06</ele>
        <time>2011-10-02T09:30:12Z</time>
      </trkpt>
      <trkpt lat="45.68363" lon="5.98857">
        <ele>1429.14</ele>
        <time>2011-10-02T09:30:16Z</time>
      </trkpt>
      <trkpt lat="45.6835" lon="5.98866">
        <ele>1428.18</ele>
        <time>2011-10-02T09:30:20Z</time>
      </trkpt>
      <trkpt lat="45.68334" lon="5.98871">
        <ele>1427.21</ele>
        <time>2011-10-02T09:30:25Z</time>
      </trkpt>
      <trkpt lat="45.6833" lon="5.98875">
        <ele>1427.21</ele>
        <time>2011-10-02T09:30:35Z</time>
      </trkpt>
      <trkpt lat="45.6833" lon="5.98875">
        <ele>1427.21</ele>
        <time>2011-10-02T09:31:05Z</time>
      </trkpt>
      <trkpt lat="45.68314" lon="5.98854">
        <ele>1426.25</ele>
        <time>2011-10-02T09:31:16Z</time>
      </trkpt>
      <trkpt lat="45.68311" lon="5.98855">
        <ele>1425.77</ele>
        <time>2011-10-02T09:31:27Z</time>
      </trkpt>
      <trkpt lat="45.68311" lon="5.98855">
        <ele>1425.29</ele>
        <time>2011-10-02T09:32:02Z</time>
      </trkpt>
      <trkpt lat="45.68311" lon="5.98855">
        <ele>1425.77</ele>
        <time>2011-10-02T09:32:40Z</time>
      </trkpt>
      <trkpt lat="45.68309" lon="5.98854">
        <ele>1426.25</ele>
        <time>2011-10-02T09:33:03Z</time>
      </trkpt>
      <trkpt lat="45.68303" lon="5.98847">
        <ele>1425.77</ele>
        <time>2011-10-02T09:33:09Z</time>
      </trkpt>
      <trkpt lat="45.68295" lon="5.98854">
        <ele>1426.25</ele>
        <time>2011-10-02T09:33:14Z</time>
      </trkpt>
      <trkpt lat="45.68282" lon="5.98888">
        <ele>1427.21</ele>
        <time>2011-10-02T09:33:21Z</time>
      </trkpt>
      <trkpt lat="45.68276" lon="5.98905">
        <ele>1427.7</ele>
        <time>2011-10-02T09:33:26Z</time>
      </trkpt>
      <trkpt lat="45.68276" lon="5.98906">
        <ele>1427.21</ele>
        <time>2011-10-02T09:33:42Z</time>
      </trkpt>
      <trkpt lat="45.68277" lon="5.98909">
        <ele>1427.7</ele>
        <time>2011-10-02T09:33:48Z</time>
      </trkpt>
      <trkpt lat="45.68279" lon="5.98909">
        <ele>1427.7</ele>
        <time>2011-10-02T09:33:49Z</time>
      </trkpt>
      <trkpt lat="45.68302" lon="5.98917">
        <ele>1429.62</ele>
        <time>2011-10-02T09:34:00Z</time>
      </trkpt>
      <trkpt lat="45.68312" lon="5.98935">
        <ele>1432.5</ele>
        <time>2011-10-02T09:34:10Z</time>
      </trkpt>
      <trkpt lat="45.68314" lon="5.98942">
        <ele>1432.98</ele>
        <time>2011-10-02T09:34:15Z</time>
      </trkpt>
      <trkpt lat="45.68315" lon="5.98944">
        <ele>1433.46</ele>
        <time>2011-10-02T09:34:16Z</time>
      </trkpt>
      <trkpt lat="45.68315" lon="5.98946">
        <ele>1433.46</ele>
        <time>2011-10-02T09:34:17Z</time>
      </trkpt>
      <trkpt lat="45.68316" lon="5.98947">
        <ele>1433.94</ele>
        <time>2011-10-02T09:34:18Z</time>
      </trkpt>
      <trkpt lat="45.68317" lon="5.98949">
        <ele>1433.46</ele>
        <time>2011-10-02T09:34:19Z</time>
      </trkpt>
      <trkpt lat="45.68319" lon="5.98951">
        <ele>1433.46</ele>
        <time>2011-10-02T09:34:21Z</time>
      </trkpt>
      <trkpt lat="45.6832" lon="5.98955">
        <ele>1433.46</ele>
        <time>2011-10-02T09:34:29Z</time>
      </trkpt>
      <trkpt lat="45.6832" lon="5.98959">
        <ele>1432.98</ele>
        <time>2011-10-02T09:34:30Z</time>
      </trkpt>
      <trkpt lat="45.68319" lon="5.98963">
        <ele>1433.46</ele>
        <time>2011-10-02T09:34:31Z</time>
      </trkpt>
      <trkpt lat="45.6832" lon="5.98967">
        <ele>1432.98</ele>
        <time>2011-10-02T09:34:32Z</time>
      </trkpt>
      <trkpt lat="45.6832" lon="5.98972">
        <ele>1433.46</ele>
        <time>2011-10-02T09:34:33Z</time>
      </trkpt>
      <trkpt lat="45.68321" lon="5.98976">
        <ele>1432.98</ele>
        <time>2011-10-02T09:34:34Z</time>
      </trkpt>
      <trkpt lat="45.68323" lon="5.9898">
        <ele>1432.98</ele>
        <time>2011-10-02T09:34:35Z</time>
      </trkpt>
      <trkpt lat="45.68325" lon="5.98983">
        <ele>1432.98</ele>
        <time>2011-10-02T09:34:36Z</time>
      </trkpt>
      <trkpt lat="45.68351" lon="5.99026">
        <ele>1432.98</ele>
        <time>2011-10-02T09:34:47Z</time>
      </trkpt>
      <trkpt lat="45.68377" lon="5.99079">
        <ele>1433.94</ele>
        <time>2011-10-02T09:35:00Z</time>
      </trkpt>
      <trkpt lat="45.68392" lon="5.99107">
        <ele>1435.87</ele>
        <time>2011-10-02T09:35:13Z</time>
      </trkpt>
      <trkpt lat="45.68395" lon="5.99115">
        <ele>1434.42</ele>
        <time>2011-10-02T09:35:15Z</time>
      </trkpt>
      <trkpt lat="45.68418" lon="5.99142">
        <ele>1433.94</ele>
        <time>2011-10-02T09:35:25Z</time>
      </trkpt>
      <trkpt lat="45.68447" lon="5.99158">
        <ele>1433.46</ele>
        <time>2011-10-02T09:35:36Z</time>
      </trkpt>
      <trkpt lat="45.68464" lon="5.99191">
        <ele>1433.94</ele>
        <time>2011-10-02T09:35:46Z</time>
      </trkpt>
      <trkpt lat="45.68484" lon="5.99233">
        <ele>1432.02</ele>
        <time>2011-10-02T09:35:56Z</time>
      </trkpt>
      <trkpt lat="45.68484" lon="5.9924">
        <ele>1431.06</ele>
        <time>2011-10-02T09:35:57Z</time>
      </trkpt>
      <trkpt lat="45.6849" lon="5.99281">
        <ele>1428.66</ele>
        <time>2011-10-02T09:36:08Z</time>
      </trkpt>
      <trkpt lat="45.68491" lon="5.99284">
        <ele>1428.66</ele>
        <time>2011-10-02T09:36:09Z</time>
      </trkpt>
      <trkpt lat="45.68492" lon="5.99286">
        <ele>1429.14</ele>
        <time>2011-10-02T09:36:10Z</time>
      </trkpt>
      <trkpt lat="45.68493" lon="5.99289">
        <ele>1429.14</ele>
        <time>2011-10-02T09:36:11Z</time>
      </trkpt>
      <trkpt lat="45.68494" lon="5.99291">
        <ele>1429.62</ele>
        <time>2011-10-02T09:36:12Z</time>
      </trkpt>
      <trkpt lat="45.68495" lon="5.99293">
        <ele>1429.14</ele>
        <time>2011-10-02T09:36:13Z</time>
      </trkpt>
      <trkpt lat="45.68515" lon="5.99316">
        <ele>1431.06</ele>
        <time>2011-10-02T09:36:24Z</time>
      </trkpt>
      <trkpt lat="45.68537" lon="5.99348">
        <ele>1431.54</ele>
        <time>2011-10-02T09:36:36Z</time>
      </trkpt>
      <trkpt lat="45.68551" lon="5.99377">
        <ele>1428.66</ele>
        <time>2011-10-02T09:36:46Z</time>
      </trkpt>
      <trkpt lat="45.68568" lon="5.99401">
        <ele>1428.18</ele>
        <time>2011-10-02T09:36:58Z</time>
      </trkpt>
      <trkpt lat="45.68576" lon="5.99408">
        <ele>1428.66</ele>
        <time>2011-10-02T09:37:04Z</time>
      </trkpt>
      <trkpt lat="45.68578" lon="5.99409">
        <ele>1428.66</ele>
        <time>2011-10-02T09:37:05Z</time>
      </trkpt>
      <trkpt lat="45.68579" lon="5.99411">
        <ele>1428.66</ele>
        <time>2011-10-02T09:37:06Z</time>
      </trkpt>
      <trkpt lat="45.68586" lon="5.9942">
        <ele>1429.62</ele>
        <time>2011-10-02T09:37:17Z</time>
      </trkpt>
      <trkpt lat="45.68592" lon="5.99427">
        <ele>1431.06</ele>
        <time>2011-10-02T09:37:31Z</time>
      </trkpt>
      <trkpt lat="45.68595" lon="5.99436">
        <ele>1432.98</ele>
        <time>2011-10-02T09:37:43Z</time>
      </trkpt>
      <trkpt lat="45.68595" lon="5.99436">
        <ele>1432.5</ele>
        <time>2011-10-02T09:38:12Z</time>
      </trkpt>
      <trkpt lat="45.68595" lon="5.99436">
        <ele>1432.5</ele>
        <time>2011-10-02T09:38:48Z</time>
      </trkpt>
      <trkpt lat="45.68595" lon="5.99436">
        <ele>1432.5</ele>
        <time>2011-10-02T09:39:24Z</time>
      </trkpt>
      <trkpt lat="45.68595" lon="5.99436">
        <ele>1432.98</ele>
        <time>2011-10-02T09:39:59Z</time>
      </trkpt>
      <trkpt lat="45.68595" lon="5.99436">
        <ele>1432.98</ele>
        <time>2011-10-02T09:40:29Z</time>
      </trkpt>
      <trkpt lat="45.68595" lon="5.99436">
        <ele>1432.98</ele>
        <time>2011-10-02T09:41:00Z</time>
      </trkpt>
      <trkpt lat="45.68595" lon="5.99436">
        <ele>1433.46</ele>
        <time>2011-10-02T09:41:34Z</time>
      </trkpt>
      <trkpt lat="45.68595" lon="5.99436">
        <ele>1432.98</ele>
        <time>2011-10-02T09:42:11Z</time>
      </trkpt>
      <trkpt lat="45.68595" lon="5.99436">
        <ele>1433.46</ele>
        <time>2011-10-02T09:42:47Z</time>
      </trkpt>
      <trkpt lat="45.68595" lon="5.99436">
        <ele>1432.98</ele>
        <time>2011-10-02T09:43:20Z</time>
      </trkpt>
      <trkpt lat="45.68595" lon="5.99436">
        <ele>1433.46</ele>
        <time>2011-10-02T09:43:56Z</time>
      </trkpt>
      <trkpt lat="45.68595" lon="5.99436">
        <ele>1433.46</ele>
        <time>2011-10-02T09:44:34Z</time>
      </trkpt>
      <trkpt lat="45.68596" lon="5.99436">
        <ele>1433.46</ele>
        <time>2011-10-02T09:45:14Z</time>
      </trkpt>
      <trkpt lat="45.68596" lon="5.99436">
        <ele>1433.46</ele>
        <time>2011-10-02T09:45:44Z</time>
      </trkpt>
      <trkpt lat="45.68596" lon="5.99436">
        <ele>1433.94</ele>
        <time>2011-10-02T09:46:14Z</time>
      </trkpt>
      <trkpt lat="45.68596" lon="5.99436">
        <ele>1433.94</ele>
        <time>2011-10-02T09:46:39Z</time>
      </trkpt>
      <trkpt lat="45.68591" lon="5.99428">
        <ele>1432.98</ele>
        <time>2011-10-02T09:46:48Z</time>
      </trkpt>
      <trkpt lat="45.6859" lon="5.99426">
        <ele>1432.5</ele>
        <time>2011-10-02T09:46:49Z</time>
      </trkpt>
      <trkpt lat="45.68589" lon="5.99425">
        <ele>1432.02</ele>
        <time>2011-10-02T09:46:50Z</time>
      </trkpt>
      <trkpt lat="45.68588" lon="5.99423">
        <ele>1432.02</ele>
        <time>2011-10-02T09:46:51Z</time>
      </trkpt>
      <trkpt lat="45.68587" lon="5.99422">
        <ele>1432.02</ele>
        <time>2011-10-02T09:46:52Z</time>
      </trkpt>
      <trkpt lat="45.68586" lon="5.99421">
        <ele>1431.06</ele>
        <time>2011-10-02T09:46:53Z</time>
      </trkpt>
      <trkpt lat="45.68578" lon="5.99411">
        <ele>1430.1</ele>
        <time>2011-10-02T09:47:06Z</time>
      </trkpt>
      <trkpt lat="45.68553" lon="5.99381">
        <ele>1429.14</ele>
        <time>2011-10-02T09:47:20Z</time>
      </trkpt>
      <trkpt lat="45.68541" lon="5.99362">
        <ele>1428.66</ele>
        <time>2011-10-02T09:47:30Z</time>
      </trkpt>
      <trkpt lat="45.68541" lon="5.99361">
        <ele>1430.1</ele>
        <time>2011-10-02T09:47:39Z</time>
      </trkpt>
      <trkpt lat="45.6854" lon="5.99359">
        <ele>1430.58</ele>
        <time>2011-10-02T09:47:41Z</time>
      </trkpt>
      <trkpt lat="45.68539" lon="5.99358">
        <ele>1431.06</ele>
        <time>2011-10-02T09:47:42Z</time>
      </trkpt>
      <trkpt lat="45.68538" lon="5.99357">
        <ele>1430.58</ele>
        <time>2011-10-02T09:47:43Z</time>
      </trkpt>
      <trkpt lat="45.68537" lon="5.99355">
        <ele>1431.06</ele>
        <time>2011-10-02T09:47:44Z</time>
      </trkpt>
      <trkpt lat="45.68536" lon="5.99354">
        <ele>1431.54</ele>
        <time>2011-10-02T09:47:45Z</time>
      </trkpt>
      <trkpt lat="45.68536" lon="5.99352">
        <ele>1431.54</ele>
        <time>2011-10-02T09:47:46Z</time>
      </trkpt>
      <trkpt lat="45.68527" lon="5.99334">
        <ele>1433.46</ele>
        <time>2011-10-02T09:48:01Z</time>
      </trkpt>
      <trkpt lat="45.68525" lon="5.99332">
        <ele>1433.46</ele>
        <time>2011-10-02T09:48:09Z</time>
      </trkpt>
      <trkpt lat="45.68524" lon="5.9933">
        <ele>1433.46</ele>
        <time>2011-10-02T09:48:10Z</time>
      </trkpt>
      <trkpt lat="45.68522" lon="5.99328">
        <ele>1433.46</ele>
        <time>2011-10-02T09:48:11Z</time>
      </trkpt>
      <trkpt lat="45.68521" lon="5.99325">
        <ele>1433.46</ele>
        <time>2011-10-02T09:48:12Z</time>
      </trkpt>
      <trkpt lat="45.68519" lon="5.99323">
        <ele>1432.98</ele>
        <time>2011-10-02T09:48:13Z</time>
      </trkpt>
      <trkpt lat="45.68504" lon="5.99306">
        <ele>1431.54</ele>
        <time>2011-10-02T09:48:18Z</time>
      </trkpt>
      <trkpt lat="45.68483" lon="5.99271">
        <ele>1430.1</ele>
        <time>2011-10-02T09:48:30Z</time>
      </trkpt>
      <trkpt lat="45.68481" lon="5.99248">
        <ele>1432.02</ele>
        <time>2011-10-02T09:48:44Z</time>
      </trkpt>
      <trkpt lat="45.68481" lon="5.9924">
        <ele>1432.02</ele>
        <time>2011-10-02T09:48:51Z</time>
      </trkpt>
      <trkpt lat="45.68481" lon="5.99238">
        <ele>1432.5</ele>
        <time>2011-10-02T09:48:52Z</time>
      </trkpt>
      <trkpt lat="45.68481" lon="5.99235">
        <ele>1432.5</ele>
        <time>2011-10-02T09:48:53Z</time>
      </trkpt>
      <trkpt lat="45.6847" lon="5.99202">
        <ele>1433.46</ele>
        <time>2011-10-02T09:49:07Z</time>
      </trkpt>
      <trkpt lat="45.68449" lon="5.99164">
        <ele>1434.42</ele>
        <time>2011-10-02T09:49:20Z</time>
      </trkpt>
      <trkpt lat="45.68417" lon="5.9914">
        <ele>1434.91</ele>
        <time>2011-10-02T09:49:33Z</time>
      </trkpt>
      <trkpt lat="45.68393" lon="5.99113">
        <ele>1435.87</ele>
        <time>2011-10-02T09:49:44Z</time>
      </trkpt>
      <trkpt lat="45.6837" lon="5.99068">
        <ele>1433.94</ele>
        <time>2011-10-02T09:49:57Z</time>
      </trkpt>
      <trkpt lat="45.68343" lon="5.99009">
        <ele>1433.46</ele>
        <time>2011-10-02T09:50:09Z</time>
      </trkpt>
      <trkpt lat="45.68319" lon="5.98967">
        <ele>1433.46</ele>
        <time>2011-10-02T09:50:21Z</time>
      </trkpt>
      <trkpt lat="45.6831" lon="5.98926">
        <ele>1432.02</ele>
        <time>2011-10-02T09:50:30Z</time>
      </trkpt>
      <trkpt lat="45.68297" lon="5.98905">
        <ele>1428.66</ele>
        <time>2011-10-02T09:50:36Z</time>
      </trkpt>
      <trkpt lat="45.68258" lon="5.98916">
        <ele>1427.21</ele>
        <time>2011-10-02T09:50:47Z</time>
      </trkpt>
      <trkpt lat="45.6825" lon="5.98932">
        <ele>1427.21</ele>
        <time>2011-10-02T09:50:57Z</time>
      </trkpt>
      <trkpt lat="45.68248" lon="5.98935">
        <ele>1426.73</ele>
        <time>2011-10-02T09:51:00Z</time>
      </trkpt>
      <trkpt lat="45.68247" lon="5.98938">
        <ele>1426.73</ele>
        <time>2011-10-02T09:51:01Z</time>
      </trkpt>
      <trkpt lat="45.68233" lon="5.98959">
        <ele>1424.81</ele>
        <time>2011-10-02T09:51:06Z</time>
      </trkpt>
      <trkpt lat="45.6823" lon="5.98965">
        <ele>1424.33</ele>
        <time>2011-10-02T09:51:07Z</time>
      </trkpt>
      <trkpt lat="45.68223" lon="5.9898">
        <ele>1423.37</ele>
        <time>2011-10-02T09:51:09Z</time>
      </trkpt>
      <trkpt lat="45.682" lon="5.99025">
        <ele>1420.49</ele>
        <time>2011-10-02T09:51:14Z</time>
      </trkpt>
      <trkpt lat="45.68166" lon="5.99087">
        <ele>1418.08</ele>
        <time>2011-10-02T09:51:23Z</time>
      </trkpt>
      <trkpt lat="45.68168" lon="5.99084">
        <ele>1418.56</ele>
        <time>2011-10-02T09:51:24Z</time>
      </trkpt>
      <trkpt lat="45.6817" lon="5.99081">
        <ele>1418.56</ele>
        <time>2011-10-02T09:51:36Z</time>
      </trkpt>
      <trkpt lat="45.6817" lon="5.9908">
        <ele>1418.56</ele>
        <time>2011-10-02T09:51:41Z</time>
      </trkpt>
      <trkpt lat="45.6817" lon="5.99082">
        <ele>1419.04</ele>
        <time>2011-10-02T09:51:42Z</time>
      </trkpt>
      <trkpt lat="45.68169" lon="5.99085">
        <ele>1419.04</ele>
        <time>2011-10-02T09:51:43Z</time>
      </trkpt>
      <trkpt lat="45.68141" lon="5.99138">
        <ele>1416.64</ele>
        <time>2011-10-02T09:51:52Z</time>
      </trkpt>
      <trkpt lat="45.68137" lon="5.99146">
        <ele>1416.64</ele>
        <time>2011-10-02T09:51:53Z</time>
      </trkpt>
      <trkpt lat="45.68111" lon="5.99188">
        <ele>1413.76</ele>
        <time>2011-10-02T09:51:59Z</time>
      </trkpt>
      <trkpt lat="45.68094" lon="5.99229">
        <ele>1410.87</ele>
        <time>2011-10-02T09:52:04Z</time>
      </trkpt>
      <trkpt lat="45.68088" lon="5.99234">
        <ele>1410.39</ele>
        <time>2011-10-02T09:52:05Z</time>
      </trkpt>
      <trkpt lat="45.68083" lon="5.99237">
        <ele>1409.91</ele>
        <time>2011-10-02T09:52:06Z</time>
      </trkpt>
      <trkpt lat="45.68078" lon="5.99239">
        <ele>1409.43</ele>
        <time>2011-10-02T09:52:07Z</time>
      </trkpt>
      <trkpt lat="45.68068" lon="5.99244">
        <ele>1409.91</ele>
        <time>2011-10-02T09:52:14Z</time>
      </trkpt>
      <trkpt lat="45.68067" lon="5.99244">
        <ele>1409.43</ele>
        <time>2011-10-02T09:52:20Z</time>
      </trkpt>
      <trkpt lat="45.68066" lon="5.99247">
        <ele>1409.43</ele>
        <time>2011-10-02T09:52:21Z</time>
      </trkpt>
      <trkpt lat="45.68067" lon="5.99251">
        <ele>1409.43</ele>
        <time>2011-10-02T09:52:22Z</time>
      </trkpt>
      <trkpt lat="45.68071" lon="5.99265">
        <ele>1408.47</ele>
        <time>2011-10-02T09:52:25Z</time>
      </trkpt>
      <trkpt lat="45.6807" lon="5.99293">
        <ele>1406.07</ele>
        <time>2011-10-02T09:52:29Z</time>
      </trkpt>
      <trkpt lat="45.68066" lon="5.99307">
        <ele>1405.1</ele>
        <time>2011-10-02T09:52:31Z</time>
      </trkpt>
      <trkpt lat="45.68066" lon="5.99314">
        <ele>1405.1</ele>
        <time>2011-10-02T09:52:32Z</time>
      </trkpt>
      <trkpt lat="45.68067" lon="5.99318">
        <ele>1404.62</ele>
        <time>2011-10-02T09:52:33Z</time>
      </trkpt>
      <trkpt lat="45.68067" lon="5.99322">
        <ele>1404.62</ele>
        <time>2011-10-02T09:52:34Z</time>
      </trkpt>
      <trkpt lat="45.68067" lon="5.99325">
        <ele>1404.62</ele>
        <time>2011-10-02T09:52:35Z</time>
      </trkpt>
      <trkpt lat="45.68066" lon="5.99328">
        <ele>1403.66</ele>
        <time>2011-10-02T09:52:46Z</time>
      </trkpt>
      <trkpt lat="45.68066" lon="5.99328">
        <ele>1403.18</ele>
        <time>2011-10-02T09:53:15Z</time>
      </trkpt>
      <trkpt lat="45.68067" lon="5.99329">
        <ele>1403.18</ele>
        <time>2011-10-02T09:53:44Z</time>
      </trkpt>
      <trkpt lat="45.68068" lon="5.99335">
        <ele>1402.7</ele>
        <time>2011-10-02T09:54:00Z</time>
      </trkpt>
      <trkpt lat="45.68067" lon="5.99339">
        <ele>1402.7</ele>
        <time>2011-10-02T09:54:01Z</time>
      </trkpt>
      <trkpt lat="45.68066" lon="5.99343">
        <ele>1402.7</ele>
        <time>2011-10-02T09:54:02Z</time>
      </trkpt>
      <trkpt lat="45.68064" lon="5.99348">
        <ele>1403.18</ele>
        <time>2011-10-02T09:54:03Z</time>
      </trkpt>
      <trkpt lat="45.68062" lon="5.99354">
        <ele>1402.7</ele>
        <time>2011-10-02T09:54:04Z</time>
      </trkpt>
      <trkpt lat="45.68059" lon="5.99359">
        <ele>1402.22</ele>
        <time>2011-10-02T09:54:05Z</time>
      </trkpt>
      <trkpt lat="45.6805" lon="5.99377">
        <ele>1401.74</ele>
        <time>2011-10-02T09:54:08Z</time>
      </trkpt>
      <trkpt lat="45.68046" lon="5.99384">
        <ele>1403.18</ele>
        <time>2011-10-02T09:54:09Z</time>
      </trkpt>
      <trkpt lat="45.68044" lon="5.9939">
        <ele>1403.18</ele>
        <time>2011-10-02T09:54:10Z</time>
      </trkpt>
      <trkpt lat="45.68042" lon="5.99396">
        <ele>1403.66</ele>
        <time>2011-10-02T09:54:11Z</time>
      </trkpt>
      <trkpt lat="45.68041" lon="5.99401">
        <ele>1403.66</ele>
        <time>2011-10-02T09:54:12Z</time>
      </trkpt>
      <trkpt lat="45.6804" lon="5.99406">
        <ele>1403.66</ele>
        <time>2011-10-02T09:54:13Z</time>
      </trkpt>
      <trkpt lat="45.6804" lon="5.9941">
        <ele>1403.66</ele>
        <time>2011-10-02T09:54:14Z</time>
      </trkpt>
      <trkpt lat="45.6804" lon="5.99415">
        <ele>1403.66</ele>
        <time>2011-10-02T09:54:15Z</time>
      </trkpt>
      <trkpt lat="45.68041" lon="5.9942">
        <ele>1403.66</ele>
        <time>2011-10-02T09:54:16Z</time>
      </trkpt>
      <trkpt lat="45.68041" lon="5.99425">
        <ele>1403.18</ele>
        <time>2011-10-02T09:54:17Z</time>
      </trkpt>
      <trkpt lat="45.68041" lon="5.99451">
        <ele>1400.3</ele>
        <time>2011-10-02T09:54:20Z</time>
      </trkpt>
      <trkpt lat="45.68042" lon="5.99472">
        <ele>1396.45</ele>
        <time>2011-10-02T09:54:22Z</time>
      </trkpt>
      <trkpt lat="45.68045" lon="5.99544">
        <ele>1393.09</ele>
        <time>2011-10-02T09:54:28Z</time>
      </trkpt>
      <trkpt lat="45.68047" lon="5.99554">
        <ele>1394.05</ele>
        <time>2011-10-02T09:54:29Z</time>
      </trkpt>
      <trkpt lat="45.68054" lon="5.99582">
        <ele>1394.05</ele>
        <time>2011-10-02T09:54:32Z</time>
      </trkpt>
      <trkpt lat="45.68055" lon="5.99589">
        <ele>1394.05</ele>
        <time>2011-10-02T09:54:33Z</time>
      </trkpt>
      <trkpt lat="45.68055" lon="5.99596">
        <ele>1394.05</ele>
        <time>2011-10-02T09:54:34Z</time>
      </trkpt>
      <trkpt lat="45.68055" lon="5.99604">
        <ele>1393.57</ele>
        <time>2011-10-02T09:54:35Z</time>
      </trkpt>
      <trkpt lat="45.68053" lon="5.99612">
        <ele>1392.61</ele>
        <time>2011-10-02T09:54:36Z</time>
      </trkpt>
      <trkpt lat="45.68052" lon="5.9962">
        <ele>1391.65</ele>
        <time>2011-10-02T09:54:37Z</time>
      </trkpt>
      <trkpt lat="45.68048" lon="5.99649">
        <ele>1389.24</ele>
        <time>2011-10-02T09:54:40Z</time>
      </trkpt>
      <trkpt lat="45.68049" lon="5.99659">
        <ele>1388.76</ele>
        <time>2011-10-02T09:54:41Z</time>
      </trkpt>
      <trkpt lat="45.6805" lon="5.99669">
        <ele>1388.76</ele>
        <time>2011-10-02T09:54:42Z</time>
      </trkpt>
      <trkpt lat="45.68051" lon="5.9968">
        <ele>1387.8</ele>
        <time>2011-10-02T09:54:43Z</time>
      </trkpt>
      <trkpt lat="45.6805" lon="5.9969">
        <ele>1386.84</ele>
        <time>2011-10-02T09:54:44Z</time>
      </trkpt>
      <trkpt lat="45.68049" lon="5.997">
        <ele>1385.88</ele>
        <time>2011-10-02T09:54:45Z</time>
      </trkpt>
      <trkpt lat="45.68047" lon="5.99705">
        <ele>1386.84</ele>
        <time>2011-10-02T09:54:46Z</time>
      </trkpt>
      <trkpt lat="45.68044" lon="5.99707">
        <ele>1386.84</ele>
        <time>2011-10-02T09:54:47Z</time>
      </trkpt>
      <trkpt lat="45.68042" lon="5.99708">
        <ele>1386.36</ele>
        <time>2011-10-02T09:54:48Z</time>
      </trkpt>
      <trkpt lat="45.6804" lon="5.99708">
        <ele>1386.36</ele>
        <time>2011-10-02T09:54:49Z</time>
      </trkpt>
      <trkpt lat="45.68037" lon="5.99708">
        <ele>1385.88</ele>
        <time>2011-10-02T09:54:50Z</time>
      </trkpt>
      <trkpt lat="45.68034" lon="5.99709">
        <ele>1384.92</ele>
        <time>2011-10-02T09:54:51Z</time>
      </trkpt>
      <trkpt lat="45.6803" lon="5.9971">
        <ele>1384.44</ele>
        <time>2011-10-02T09:54:52Z</time>
      </trkpt>
      <trkpt lat="45.68026" lon="5.99711">
        <ele>1382.99</ele>
        <time>2011-10-02T09:54:53Z</time>
      </trkpt>
      <trkpt lat="45.68022" lon="5.99713">
        <ele>1382.99</ele>
        <time>2011-10-02T09:54:54Z</time>
      </trkpt>
      <trkpt lat="45.68018" lon="5.99715">
        <ele>1383.96</ele>
        <time>2011-10-02T09:54:55Z</time>
      </trkpt>
      <trkpt lat="45.68004" lon="5.99726">
        <ele>1384.92</ele>
        <time>2011-10-02T09:54:58Z</time>
      </trkpt>
      <trkpt lat="45.68" lon="5.9973">
        <ele>1385.88</ele>
        <time>2011-10-02T09:54:59Z</time>
      </trkpt>
      <trkpt lat="45.67998" lon="5.99734">
        <ele>1386.36</ele>
        <time>2011-10-02T09:55:00Z</time>
      </trkpt>
      <trkpt lat="45.67989" lon="5.99753">
        <ele>1384.44</ele>
        <time>2011-10-02T09:55:04Z</time>
      </trkpt>
      <trkpt lat="45.67988" lon="5.99759">
        <ele>1383.96</ele>
        <time>2011-10-02T09:55:05Z</time>
      </trkpt>
      <trkpt lat="45.67987" lon="5.99765">
        <ele>1383.47</ele>
        <time>2011-10-02T09:55:06Z</time>
      </trkpt>
      <trkpt lat="45.67987" lon="5.99779">
        <ele>1383.96</ele>
        <time>2011-10-02T09:55:08Z</time>
      </trkpt>
      <trkpt lat="45.67986" lon="5.99786">
        <ele>1383.96</ele>
        <time>2011-10-02T09:55:09Z</time>
      </trkpt>
      <trkpt lat="45.67985" lon="5.99793">
        <ele>1384.44</ele>
        <time>2011-10-02T09:55:10Z</time>
      </trkpt>
      <trkpt lat="45.67982" lon="5.998">
        <ele>1384.44</ele>
        <time>2011-10-02T09:55:11Z</time>
      </trkpt>
      <trkpt lat="45.6798" lon="5.99806">
        <ele>1384.44</ele>
        <time>2011-10-02T09:55:12Z</time>
      </trkpt>
      <trkpt lat="45.67978" lon="5.99812">
        <ele>1384.92</ele>
        <time>2011-10-02T09:55:13Z</time>
      </trkpt>
      <trkpt lat="45.67966" lon="5.99881">
        <ele>1383.96</ele>
        <time>2011-10-02T09:55:24Z</time>
      </trkpt>
      <trkpt lat="45.6796" lon="5.99935">
        <ele>1384.92</ele>
        <time>2011-10-02T09:55:31Z</time>
      </trkpt>
      <trkpt lat="45.67961" lon="5.99941">
        <ele>1384.92</ele>
        <time>2011-10-02T09:55:32Z</time>
      </trkpt>
      <trkpt lat="45.67961" lon="5.99948">
        <ele>1384.44</ele>
        <time>2011-10-02T09:55:33Z</time>
      </trkpt>
      <trkpt lat="45.67961" lon="5.99954">
        <ele>1384.92</ele>
        <time>2011-10-02T09:55:34Z</time>
      </trkpt>
      <trkpt lat="45.67961" lon="5.99961">
        <ele>1385.4</ele>
        <time>2011-10-02T09:55:35Z</time>
      </trkpt>
      <trkpt lat="45.67962" lon="5.99967">
        <ele>1385.4</ele>
        <time>2011-10-02T09:55:36Z</time>
      </trkpt>
      <trkpt lat="45.67965" lon="5.99972">
        <ele>1385.4</ele>
        <time>2011-10-02T09:55:37Z</time>
      </trkpt>
      <trkpt lat="45.67967" lon="5.99977">
        <ele>1384.92</ele>
        <time>2011-10-02T09:55:38Z</time>
      </trkpt>
      <trkpt lat="45.67969" lon="5.99982">
        <ele>1385.4</ele>
        <time>2011-10-02T09:55:39Z</time>
      </trkpt>
      <trkpt lat="45.67971" lon="5.99985">
        <ele>1385.4</ele>
        <time>2011-10-02T09:55:40Z</time>
      </trkpt>
      <trkpt lat="45.67972" lon="5.99987">
        <ele>1385.4</ele>
        <time>2011-10-02T09:55:41Z</time>
      </trkpt>
      <trkpt lat="45.67971" lon="5.9999">
        <ele>1384.92</ele>
        <time>2011-10-02T09:55:42Z</time>
      </trkpt>
      <trkpt lat="45.6797" lon="5.99991">
        <ele>1384.92</ele>
        <time>2011-10-02T09:55:43Z</time>
      </trkpt>
      <trkpt lat="45.67967" lon="5.99991">
        <ele>1385.4</ele>
        <time>2011-10-02T09:55:44Z</time>
      </trkpt>
      <trkpt lat="45.67965" lon="5.99991">
        <ele>1385.4</ele>
        <time>2011-10-02T09:55:45Z</time>
      </trkpt>
      <trkpt lat="45.67961" lon="5.99993">
        <ele>1385.4</ele>
        <time>2011-10-02T09:55:46Z</time>
      </trkpt>
      <trkpt lat="45.67959" lon="5.99995">
        <ele>1385.4</ele>
        <time>2011-10-02T09:55:47Z</time>
      </trkpt>
      <trkpt lat="45.67956" lon="5.99997">
        <ele>1385.4</ele>
        <time>2011-10-02T09:55:48Z</time>
      </trkpt>
      <trkpt lat="45.67954" lon="5.99999">
        <ele>1385.4</ele>
        <time>2011-10-02T09:55:49Z</time>
      </trkpt>
      <trkpt lat="45.67943" lon="6.00012">
        <ele>1382.03</ele>
        <time>2011-10-02T09:55:54Z</time>
      </trkpt>
      <trkpt lat="45.67942" lon="6.00017">
        <ele>1382.51</ele>
        <time>2011-10-02T09:56:04Z</time>
      </trkpt>
      <trkpt lat="45.6795" lon="6.00041">
        <ele>1382.03</ele>
        <time>2011-10-02T09:56:15Z</time>
      </trkpt>
      <trkpt lat="45.67954" lon="6.00048">
        <ele>1381.07</ele>
        <time>2011-10-02T09:56:17Z</time>
      </trkpt>
      <trkpt lat="45.67956" lon="6.00067">
        <ele>1380.59</ele>
        <time>2011-10-02T09:56:21Z</time>
      </trkpt>
      <trkpt lat="45.67958" lon="6.00078">
        <ele>1378.67</ele>
        <time>2011-10-02T09:56:23Z</time>
      </trkpt>
      <trkpt lat="45.67963" lon="6.00094">
        <ele>1377.23</ele>
        <time>2011-10-02T09:56:26Z</time>
      </trkpt>
      <trkpt lat="45.67966" lon="6.00098">
        <ele>1376.75</ele>
        <time>2011-10-02T09:56:27Z</time>
      </trkpt>
      <trkpt lat="45.67968" lon="6.00102">
        <ele>1376.75</ele>
        <time>2011-10-02T09:56:28Z</time>
      </trkpt>
      <trkpt lat="45.67971" lon="6.00107">
        <ele>1375.3</ele>
        <time>2011-10-02T09:56:29Z</time>
      </trkpt>
      <trkpt lat="45.67973" lon="6.00113">
        <ele>1375.3</ele>
        <time>2011-10-02T09:56:30Z</time>
      </trkpt>
      <trkpt lat="45.67975" lon="6.00118">
        <ele>1375.78</ele>
        <time>2011-10-02T09:56:31Z</time>
      </trkpt>
      <trkpt lat="45.67974" lon="6.00121">
        <ele>1374.82</ele>
        <time>2011-10-02T09:56:32Z</time>
      </trkpt>
      <trkpt lat="45.67973" lon="6.00125">
        <ele>1374.34</ele>
        <time>2011-10-02T09:56:33Z</time>
      </trkpt>
      <trkpt lat="45.67972" lon="6.00128">
        <ele>1373.86</ele>
        <time>2011-10-02T09:56:34Z</time>
      </trkpt>
      <trkpt lat="45.67971" lon="6.00131">
        <ele>1373.86</ele>
        <time>2011-10-02T09:56:35Z</time>
      </trkpt>
      <trkpt lat="45.67971" lon="6.00133">
        <ele>1372.9</ele>
        <time>2011-10-02T09:56:36Z</time>
      </trkpt>
      <trkpt lat="45.67972" lon="6.00135">
        <ele>1372.42</ele>
        <time>2011-10-02T09:56:37Z</time>
      </trkpt>
      <trkpt lat="45.67973" lon="6.00136">
        <ele>1371.94</ele>
        <time>2011-10-02T09:56:38Z</time>
      </trkpt>
      <trkpt lat="45.67973" lon="6.00139">
        <ele>1371.46</ele>
        <time>2011-10-02T09:56:39Z</time>
      </trkpt>
      <trkpt lat="45.67973" lon="6.00141">
        <ele>1370.98</ele>
        <time>2011-10-02T09:56:40Z</time>
      </trkpt>
      <trkpt lat="45.67974" lon="6.00143">
        <ele>1370.5</ele>
        <time>2011-10-02T09:56:41Z</time>
      </trkpt>
      <trkpt lat="45.67976" lon="6.00146">
        <ele>1369.54</ele>
        <time>2011-10-02T09:56:42Z</time>
      </trkpt>
      <trkpt lat="45.67987" lon="6.00158">
        <ele>1367.13</ele>
        <time>2011-10-02T09:56:45Z</time>
      </trkpt>
      <trkpt lat="45.6799" lon="6.00164">
        <ele>1366.65</ele>
        <time>2011-10-02T09:56:46Z</time>
      </trkpt>
      <trkpt lat="45.67995" lon="6.00176">
        <ele>1366.17</ele>
        <time>2011-10-02T09:56:48Z</time>
      </trkpt>
      <trkpt lat="45.67999" lon="6.00187">
        <ele>1365.21</ele>
        <time>2011-10-02T09:56:50Z</time>
      </trkpt>
      <trkpt lat="45.68" lon="6.0019">
        <ele>1365.21</ele>
        <time>2011-10-02T09:56:51Z</time>
      </trkpt>
      <trkpt lat="45.68002" lon="6.00193">
        <ele>1364.25</ele>
        <time>2011-10-02T09:56:52Z</time>
      </trkpt>
      <trkpt lat="45.68007" lon="6.00214">
        <ele>1360.4</ele>
        <time>2011-10-02T09:56:57Z</time>
      </trkpt>
      <trkpt lat="45.68012" lon="6.00231">
        <ele>1356.56</ele>
        <time>2011-10-02T09:57:01Z</time>
      </trkpt>
      <trkpt lat="45.68015" lon="6.00236">
        <ele>1355.6</ele>
        <time>2011-10-02T09:57:02Z</time>
      </trkpt>
      <trkpt lat="45.68018" lon="6.0024">
        <ele>1355.12</ele>
        <time>2011-10-02T09:57:03Z</time>
      </trkpt>
      <trkpt lat="45.68021" lon="6.00244">
        <ele>1353.19</ele>
        <time>2011-10-02T09:57:04Z</time>
      </trkpt>
      <trkpt lat="45.68023" lon="6.00248">
        <ele>1352.71</ele>
        <time>2011-10-02T09:57:05Z</time>
      </trkpt>
      <trkpt lat="45.68026" lon="6.00252">
        <ele>1352.23</ele>
        <time>2011-10-02T09:57:06Z</time>
      </trkpt>
      <trkpt lat="45.68027" lon="6.00256">
        <ele>1351.75</ele>
        <time>2011-10-02T09:57:07Z</time>
      </trkpt>
      <trkpt lat="45.68028" lon="6.0026">
        <ele>1351.27</ele>
        <time>2011-10-02T09:57:08Z</time>
      </trkpt>
      <trkpt lat="45.68028" lon="6.00264">
        <ele>1351.27</ele>
        <time>2011-10-02T09:57:09Z</time>
      </trkpt>
      <trkpt lat="45.68028" lon="6.00268">
        <ele>1351.27</ele>
        <time>2011-10-02T09:57:10Z</time>
      </trkpt>
      <trkpt lat="45.68029" lon="6.00294">
        <ele>1351.27</ele>
        <time>2011-10-02T09:57:20Z</time>
      </trkpt>
      <trkpt lat="45.68029" lon="6.00294">
        <ele>1351.27</ele>
        <time>2011-10-02T09:57:21Z</time>
      </trkpt>
      <trkpt lat="45.68029" lon="6.00297">
        <ele>1350.79</ele>
        <time>2011-10-02T09:57:22Z</time>
      </trkpt>
      <trkpt lat="45.68029" lon="6.00302">
        <ele>1350.79</ele>
        <time>2011-10-02T09:57:23Z</time>
      </trkpt>
      <trkpt lat="45.68028" lon="6.00307">
        <ele>1350.79</ele>
        <time>2011-10-02T09:57:24Z</time>
      </trkpt>
      <trkpt lat="45.68028" lon="6.00312">
        <ele>1351.27</ele>
        <time>2011-10-02T09:57:25Z</time>
      </trkpt>
      <trkpt lat="45.68029" lon="6.00318">
        <ele>1350.31</ele>
        <time>2011-10-02T09:57:26Z</time>
      </trkpt>
      <trkpt lat="45.68028" lon="6.00331">
        <ele>1350.79</ele>
        <time>2011-10-02T09:57:28Z</time>
      </trkpt>
      <trkpt lat="45.68027" lon="6.00338">
        <ele>1350.31</ele>
        <time>2011-10-02T09:57:29Z</time>
      </trkpt>
      <trkpt lat="45.68025" lon="6.00345">
        <ele>1349.83</ele>
        <time>2011-10-02T09:57:30Z</time>
      </trkpt>
      <trkpt lat="45.68022" lon="6.00352">
        <ele>1349.35</ele>
        <time>2011-10-02T09:57:31Z</time>
      </trkpt>
      <trkpt lat="45.68018" lon="6.00359">
        <ele>1349.35</ele>
        <time>2011-10-02T09:57:32Z</time>
      </trkpt>
      <trkpt lat="45.68012" lon="6.00375">
        <ele>1348.87</ele>
        <time>2011-10-02T09:57:34Z</time>
      </trkpt>
      <trkpt lat="45.6801" lon="6.00384">
        <ele>1348.39</ele>
        <time>2011-10-02T09:57:35Z</time>
      </trkpt>
      <trkpt lat="45.6801" lon="6.00393">
        <ele>1348.39</ele>
        <time>2011-10-02T09:57:36Z</time>
      </trkpt>
      <trkpt lat="45.68013" lon="6.00448">
        <ele>1346.46</ele>
        <time>2011-10-02T09:57:42Z</time>
      </trkpt>
      <trkpt lat="45.68017" lon="6.00477">
        <ele>1345.5</ele>
        <time>2011-10-02T09:57:45Z</time>
      </trkpt>
      <trkpt lat="45.68017" lon="6.00487">
        <ele>1344.54</ele>
        <time>2011-10-02T09:57:46Z</time>
      </trkpt>
      <trkpt lat="45.68016" lon="6.0054">
        <ele>1341.18</ele>
        <time>2011-10-02T09:57:51Z</time>
      </trkpt>
      <trkpt lat="45.68017" lon="6.00561">
        <ele>1340.7</ele>
        <time>2011-10-02T09:57:53Z</time>
      </trkpt>
      <trkpt lat="45.68018" lon="6.00571">
        <ele>1341.18</ele>
        <time>2011-10-02T09:57:54Z</time>
      </trkpt>
      <trkpt lat="45.68021" lon="6.0058">
        <ele>1341.18</ele>
        <time>2011-10-02T09:57:55Z</time>
      </trkpt>
      <trkpt lat="45.68023" lon="6.00588">
        <ele>1341.18</ele>
        <time>2011-10-02T09:57:56Z</time>
      </trkpt>
      <trkpt lat="45.68027" lon="6.00596">
        <ele>1341.18</ele>
        <time>2011-10-02T09:57:57Z</time>
      </trkpt>
      <trkpt lat="45.68031" lon="6.00604">
        <ele>1341.18</ele>
        <time>2011-10-02T09:57:58Z</time>
      </trkpt>
      <trkpt lat="45.68042" lon="6.00626">
        <ele>1341.18</ele>
        <time>2011-10-02T09:58:01Z</time>
      </trkpt>
      <trkpt lat="45.68045" lon="6.00634">
        <ele>1342.14</ele>
        <time>2011-10-02T09:58:02Z</time>
      </trkpt>
      <trkpt lat="45.68047" lon="6.00641">
        <ele>1342.14</ele>
        <time>2011-10-02T09:58:03Z</time>
      </trkpt>
      <trkpt lat="45.68049" lon="6.00655">
        <ele>1343.1</ele>
        <time>2011-10-02T09:58:05Z</time>
      </trkpt>
      <trkpt lat="45.68049" lon="6.00662">
        <ele>1343.1</ele>
        <time>2011-10-02T09:58:06Z</time>
      </trkpt>
      <trkpt lat="45.68048" lon="6.00669">
        <ele>1343.1</ele>
        <time>2011-10-02T09:58:07Z</time>
      </trkpt>
      <trkpt lat="45.68047" lon="6.00675">
        <ele>1343.58</ele>
        <time>2011-10-02T09:58:08Z</time>
      </trkpt>
      <trkpt lat="45.68046" lon="6.0068">
        <ele>1343.58</ele>
        <time>2011-10-02T09:58:09Z</time>
      </trkpt>
      <trkpt lat="45.68044" lon="6.00687">
        <ele>1343.58</ele>
        <time>2011-10-02T09:58:10Z</time>
      </trkpt>
      <trkpt lat="45.68034" lon="6.00718">
        <ele>1343.58</ele>
        <time>2011-10-02T09:58:15Z</time>
      </trkpt>
      <trkpt lat="45.68033" lon="6.00725">
        <ele>1343.58</ele>
        <time>2011-10-02T09:58:16Z</time>
      </trkpt>
      <trkpt lat="45.68033" lon="6.00733">
        <ele>1344.06</ele>
        <time>2011-10-02T09:58:17Z</time>
      </trkpt>
      <trkpt lat="45.68035" lon="6.00769">
        <ele>1344.06</ele>
        <time>2011-10-02T09:58:22Z</time>
      </trkpt>
      <trkpt lat="45.68035" lon="6.00775">
        <ele>1345.02</ele>
        <time>2011-10-02T09:58:23Z</time>
      </trkpt>
      <trkpt lat="45.68034" lon="6.0078">
        <ele>1345.5</ele>
        <time>2011-10-02T09:58:24Z</time>
      </trkpt>
      <trkpt lat="45.68032" lon="6.00785">
        <ele>1345.5</ele>
        <time>2011-10-02T09:58:25Z</time>
      </trkpt>
      <trkpt lat="45.6803" lon="6.0079">
        <ele>1345.5</ele>
        <time>2011-10-02T09:58:26Z</time>
      </trkpt>
      <trkpt lat="45.68028" lon="6.00794">
        <ele>1345.98</ele>
        <time>2011-10-02T09:58:27Z</time>
      </trkpt>
      <trkpt lat="45.67997" lon="6.00834">
        <ele>1347.43</ele>
        <time>2011-10-02T09:58:37Z</time>
      </trkpt>
      <trkpt lat="45.67968" lon="6.00882">
        <ele>1349.83</ele>
        <time>2011-10-02T09:58:48Z</time>
      </trkpt>
      <trkpt lat="45.67954" lon="6.00919">
        <ele>1350.79</ele>
        <time>2011-10-02T09:58:55Z</time>
      </trkpt>
      <trkpt lat="45.67953" lon="6.00924">
        <ele>1350.31</ele>
        <time>2011-10-02T09:58:56Z</time>
      </trkpt>
      <trkpt lat="45.67949" lon="6.00936">
        <ele>1350.31</ele>
        <time>2011-10-02T09:58:58Z</time>
      </trkpt>
      <trkpt lat="45.67947" lon="6.00949">
        <ele>1350.31</ele>
        <time>2011-10-02T09:59:00Z</time>
      </trkpt>
      <trkpt lat="45.67945" lon="6.00956">
        <ele>1349.83</ele>
        <time>2011-10-02T09:59:01Z</time>
      </trkpt>
      <trkpt lat="45.67941" lon="6.00979">
        <ele>1349.83</ele>
        <time>2011-10-02T09:59:04Z</time>
      </trkpt>
      <trkpt lat="45.6794" lon="6.00986">
        <ele>1350.31</ele>
        <time>2011-10-02T09:59:05Z</time>
      </trkpt>
      <trkpt lat="45.67938" lon="6.00994">
        <ele>1349.83</ele>
        <time>2011-10-02T09:59:06Z</time>
      </trkpt>
      <trkpt lat="45.67938" lon="6.01002">
        <ele>1349.83</ele>
        <time>2011-10-02T09:59:07Z</time>
      </trkpt>
      <trkpt lat="45.67939" lon="6.0101">
        <ele>1349.83</ele>
        <time>2011-10-02T09:59:08Z</time>
      </trkpt>
      <trkpt lat="45.67939" lon="6.01018">
        <ele>1350.31</ele>
        <time>2011-10-02T09:59:09Z</time>
      </trkpt>
      <trkpt lat="45.67941" lon="6.01025">
        <ele>1349.83</ele>
        <time>2011-10-02T09:59:10Z</time>
      </trkpt>
      <trkpt lat="45.67943" lon="6.01033">
        <ele>1349.83</ele>
        <time>2011-10-02T09:59:11Z</time>
      </trkpt>
      <trkpt lat="45.67947" lon="6.01039">
        <ele>1350.31</ele>
        <time>2011-10-02T09:59:12Z</time>
      </trkpt>
      <trkpt lat="45.67951" lon="6.01044">
        <ele>1350.31</ele>
        <time>2011-10-02T09:59:13Z</time>
      </trkpt>
      <trkpt lat="45.67956" lon="6.01048">
        <ele>1349.83</ele>
        <time>2011-10-02T09:59:14Z</time>
      </trkpt>
      <trkpt lat="45.67961" lon="6.01052">
        <ele>1349.35</ele>
        <time>2011-10-02T09:59:15Z</time>
      </trkpt>
      <trkpt lat="45.67993" lon="6.0107">
        <ele>1348.39</ele>
        <time>2011-10-02T09:59:21Z</time>
      </trkpt>
      <trkpt lat="45.67998" lon="6.01075">
        <ele>1348.87</ele>
        <time>2011-10-02T09:59:22Z</time>
      </trkpt>
      <trkpt lat="45.68029" lon="6.01104">
        <ele>1348.39</ele>
        <time>2011-10-02T09:59:28Z</time>
      </trkpt>
      <trkpt lat="45.68035" lon="6.0111">
        <ele>1347.43</ele>
        <time>2011-10-02T09:59:29Z</time>
      </trkpt>
      <trkpt lat="45.6804" lon="6.01115">
        <ele>1348.39</ele>
        <time>2011-10-02T09:59:30Z</time>
      </trkpt>
      <trkpt lat="45.68054" lon="6.01131">
        <ele>1347.91</ele>
        <time>2011-10-02T09:59:33Z</time>
      </trkpt>
      <trkpt lat="45.6807" lon="6.01158">
        <ele>1347.91</ele>
        <time>2011-10-02T09:59:37Z</time>
      </trkpt>
      <trkpt lat="45.68072" lon="6.01166">
        <ele>1348.39</ele>
        <time>2011-10-02T09:59:38Z</time>
      </trkpt>
      <trkpt lat="45.68073" lon="6.01174">
        <ele>1348.39</ele>
        <time>2011-10-02T09:59:39Z</time>
      </trkpt>
      <trkpt lat="45.68074" lon="6.01183">
        <ele>1347.91</ele>
        <time>2011-10-02T09:59:40Z</time>
      </trkpt>
      <trkpt lat="45.68074" lon="6.01192">
        <ele>1347.91</ele>
        <time>2011-10-02T09:59:41Z</time>
      </trkpt>
      <trkpt lat="45.68067" lon="6.01297">
        <ele>1348.39</ele>
        <time>2011-10-02T09:59:53Z</time>
      </trkpt>
      <trkpt lat="45.68068" lon="6.01321">
        <ele>1348.87</ele>
        <time>2011-10-02T09:59:56Z</time>
      </trkpt>
      <trkpt lat="45.68069" lon="6.01329">
        <ele>1349.35</ele>
        <time>2011-10-02T09:59:57Z</time>
      </trkpt>
      <trkpt lat="45.6807" lon="6.01335">
        <ele>1349.83</ele>
        <time>2011-10-02T09:59:58Z</time>
      </trkpt>
      <trkpt lat="45.68072" lon="6.01361">
        <ele>1349.83</ele>
        <time>2011-10-02T10:00:02Z</time>
      </trkpt>
      <trkpt lat="45.68074" lon="6.01418">
        <ele>1350.31</ele>
        <time>2011-10-02T10:00:10Z</time>
      </trkpt>
      <trkpt lat="45.68076" lon="6.01455">
        <ele>1350.31</ele>
        <time>2011-10-02T10:00:15Z</time>
      </trkpt>
      <trkpt lat="45.68076" lon="6.01463">
        <ele>1350.79</ele>
        <time>2011-10-02T10:00:16Z</time>
      </trkpt>
      <trkpt lat="45.68078" lon="6.01495">
        <ele>1350.31</ele>
        <time>2011-10-02T10:00:20Z</time>
      </trkpt>
      <trkpt lat="45.68078" lon="6.01536">
        <ele>1350.79</ele>
        <time>2011-10-02T10:00:25Z</time>
      </trkpt>
      <trkpt lat="45.68077" lon="6.01568">
        <ele>1350.79</ele>
        <time>2011-10-02T10:00:29Z</time>
      </trkpt>
      <trkpt lat="45.68076" lon="6.01576">
        <ele>1350.79</ele>
        <time>2011-10-02T10:00:30Z</time>
      </trkpt>
      <trkpt lat="45.68074" lon="6.01584">
        <ele>1351.27</ele>
        <time>2011-10-02T10:00:31Z</time>
      </trkpt>
      <trkpt lat="45.68045" lon="6.01695">
        <ele>1349.83</ele>
        <time>2011-10-02T10:00:44Z</time>
      </trkpt>
      <trkpt lat="45.68044" lon="6.01704">
        <ele>1349.83</ele>
        <time>2011-10-02T10:00:45Z</time>
      </trkpt>
      <trkpt lat="45.68036" lon="6.01768">
        <ele>1350.31</ele>
        <time>2011-10-02T10:00:52Z</time>
      </trkpt>
      <trkpt lat="45.68036" lon="6.01778">
        <ele>1350.31</ele>
        <time>2011-10-02T10:00:53Z</time>
      </trkpt>
      <trkpt lat="45.68034" lon="6.01805">
        <ele>1350.31</ele>
        <time>2011-10-02T10:00:56Z</time>
      </trkpt>
      <trkpt lat="45.68029" lon="6.01822">
        <ele>1350.31</ele>
        <time>2011-10-02T10:00:58Z</time>
      </trkpt>
      <trkpt lat="45.68026" lon="6.01829">
        <ele>1350.31</ele>
        <time>2011-10-02T10:00:59Z</time>
      </trkpt>
      <trkpt lat="45.68012" lon="6.01859">
        <ele>1348.87</ele>
        <time>2011-10-02T10:01:03Z</time>
      </trkpt>
      <trkpt lat="45.6801" lon="6.01868">
        <ele>1348.87</ele>
        <time>2011-10-02T10:01:04Z</time>
      </trkpt>
      <trkpt lat="45.6801" lon="6.01877">
        <ele>1348.87</ele>
        <time>2011-10-02T10:01:05Z</time>
      </trkpt>
      <trkpt lat="45.6801" lon="6.01885">
        <ele>1349.35</ele>
        <time>2011-10-02T10:01:06Z</time>
      </trkpt>
      <trkpt lat="45.68012" lon="6.01893">
        <ele>1349.83</ele>
        <time>2011-10-02T10:01:07Z</time>
      </trkpt>
      <trkpt lat="45.68013" lon="6.01901">
        <ele>1350.31</ele>
        <time>2011-10-02T10:01:08Z</time>
      </trkpt>
      <trkpt lat="45.68025" lon="6.01963">
        <ele>1351.75</ele>
        <time>2011-10-02T10:01:16Z</time>
      </trkpt>
      <trkpt lat="45.68026" lon="6.01976">
        <ele>1352.23</ele>
        <time>2011-10-02T10:01:18Z</time>
      </trkpt>
      <trkpt lat="45.68026" lon="6.01983">
        <ele>1352.23</ele>
        <time>2011-10-02T10:01:19Z</time>
      </trkpt>
      <trkpt lat="45.68029" lon="6.02046">
        <ele>1355.12</ele>
        <time>2011-10-02T10:01:32Z</time>
      </trkpt>
      <trkpt lat="45.68044" lon="6.02107">
        <ele>1357.52</ele>
        <time>2011-10-02T10:01:46Z</time>
      </trkpt>
      <trkpt lat="45.6808" lon="6.02135">
        <ele>1359.92</ele>
        <time>2011-10-02T10:01:58Z</time>
      </trkpt>
      <trkpt lat="45.68127" lon="6.02172">
        <ele>1361.36</ele>
        <time>2011-10-02T10:02:12Z</time>
      </trkpt>
      <trkpt lat="45.68167" lon="6.02232">
        <ele>1362.33</ele>
        <time>2011-10-02T10:02:26Z</time>
      </trkpt>
      <trkpt lat="45.68213" lon="6.02288">
        <ele>1364.73</ele>
        <time>2011-10-02T10:02:41Z</time>
      </trkpt>
      <trkpt lat="45.68247" lon="6.02354">
        <ele>1365.69</ele>
        <time>2011-10-02T10:02:54Z</time>
      </trkpt>
      <trkpt lat="45.68287" lon="6.02404">
        <ele>1364.25</ele>
        <time>2011-10-02T10:03:04Z</time>
      </trkpt>
      <trkpt lat="45.68293" lon="6.02407">
        <ele>1363.77</ele>
        <time>2011-10-02T10:03:05Z</time>
      </trkpt>
      <trkpt lat="45.68342" lon="6.02433">
        <ele>1360.88</ele>
        <time>2011-10-02T10:03:12Z</time>
      </trkpt>
      <trkpt lat="45.68365" lon="6.02452">
        <ele>1358.96</ele>
        <time>2011-10-02T10:03:15Z</time>
      </trkpt>
      <trkpt lat="45.68373" lon="6.02459">
        <ele>1358.48</ele>
        <time>2011-10-02T10:03:16Z</time>
      </trkpt>
      <trkpt lat="45.6838" lon="6.02466">
        <ele>1358.48</ele>
        <time>2011-10-02T10:03:17Z</time>
      </trkpt>
      <trkpt lat="45.68388" lon="6.02473">
        <ele>1358</ele>
        <time>2011-10-02T10:03:18Z</time>
      </trkpt>
      <trkpt lat="45.68396" lon="6.02478">
        <ele>1356.56</ele>
        <time>2011-10-02T10:03:19Z</time>
      </trkpt>
      <trkpt lat="45.68405" lon="6.02482">
        <ele>1356.56</ele>
        <time>2011-10-02T10:03:20Z</time>
      </trkpt>
      <trkpt lat="45.6846" lon="6.02506">
        <ele>1354.63</ele>
        <time>2011-10-02T10:03:26Z</time>
      </trkpt>
      <trkpt lat="45.68469" lon="6.02512">
        <ele>1354.15</ele>
        <time>2011-10-02T10:03:27Z</time>
      </trkpt>
      <trkpt lat="45.68477" lon="6.02521">
        <ele>1353.67</ele>
        <time>2011-10-02T10:03:28Z</time>
      </trkpt>
      <trkpt lat="45.68504" lon="6.02559">
        <ele>1350.79</ele>
        <time>2011-10-02T10:03:32Z</time>
      </trkpt>
      <trkpt lat="45.68504" lon="6.02574">
        <ele>1349.83</ele>
        <time>2011-10-02T10:03:33Z</time>
      </trkpt>
      <trkpt lat="45.68505" lon="6.0259">
        <ele>1349.83</ele>
        <time>2011-10-02T10:03:34Z</time>
      </trkpt>
      <trkpt lat="45.68506" lon="6.02634">
        <ele>1347.91</ele>
        <time>2011-10-02T10:03:37Z</time>
      </trkpt>
      <trkpt lat="45.68505" lon="6.02734">
        <ele>1345.02</ele>
        <time>2011-10-02T10:03:44Z</time>
      </trkpt>
      <trkpt lat="45.68501" lon="6.0276">
        <ele>1343.58</ele>
        <time>2011-10-02T10:03:46Z</time>
      </trkpt>
      <trkpt lat="45.68498" lon="6.02772">
        <ele>1343.1</ele>
        <time>2011-10-02T10:03:47Z</time>
      </trkpt>
      <trkpt lat="45.68496" lon="6.02784">
        <ele>1343.1</ele>
        <time>2011-10-02T10:03:48Z</time>
      </trkpt>
      <trkpt lat="45.68484" lon="6.02832">
        <ele>1341.66</ele>
        <time>2011-10-02T10:03:52Z</time>
      </trkpt>
      <trkpt lat="45.6848" lon="6.02841">
        <ele>1341.18</ele>
        <time>2011-10-02T10:03:53Z</time>
      </trkpt>
      <trkpt lat="45.68476" lon="6.0285">
        <ele>1341.66</ele>
        <time>2011-10-02T10:03:54Z</time>
      </trkpt>
      <trkpt lat="45.6847" lon="6.02858">
        <ele>1341.18</ele>
        <time>2011-10-02T10:03:55Z</time>
      </trkpt>
      <trkpt lat="45.68465" lon="6.02864">
        <ele>1340.22</ele>
        <time>2011-10-02T10:03:56Z</time>
      </trkpt>
      <trkpt lat="45.68449" lon="6.02882">
        <ele>1340.22</ele>
        <time>2011-10-02T10:03:59Z</time>
      </trkpt>
      <trkpt lat="45.68445" lon="6.02889">
        <ele>1339.25</ele>
        <time>2011-10-02T10:04:00Z</time>
      </trkpt>
      <trkpt lat="45.68442" lon="6.02898">
        <ele>1338.77</ele>
        <time>2011-10-02T10:04:01Z</time>
      </trkpt>
      <trkpt lat="45.68435" lon="6.02939">
        <ele>1337.33</ele>
        <time>2011-10-02T10:04:05Z</time>
      </trkpt>
      <trkpt lat="45.68437" lon="6.02949">
        <ele>1337.33</ele>
        <time>2011-10-02T10:04:06Z</time>
      </trkpt>
      <trkpt lat="45.68441" lon="6.02959">
        <ele>1336.85</ele>
        <time>2011-10-02T10:04:07Z</time>
      </trkpt>
      <trkpt lat="45.68446" lon="6.02967">
        <ele>1336.37</ele>
        <time>2011-10-02T10:04:08Z</time>
      </trkpt>
      <trkpt lat="45.68452" lon="6.02973">
        <ele>1335.41</ele>
        <time>2011-10-02T10:04:09Z</time>
      </trkpt>
      <trkpt lat="45.68458" lon="6.02978">
        <ele>1334.93</ele>
        <time>2011-10-02T10:04:10Z</time>
      </trkpt>
      <trkpt lat="45.68465" lon="6.02984">
        <ele>1334.93</ele>
        <time>2011-10-02T10:04:11Z</time>
      </trkpt>
      <trkpt lat="45.68471" lon="6.02992">
        <ele>1334.45</ele>
        <time>2011-10-02T10:04:12Z</time>
      </trkpt>
      <trkpt lat="45.68476" lon="6.03001">
        <ele>1333.97</ele>
        <time>2011-10-02T10:04:13Z</time>
      </trkpt>
      <trkpt lat="45.6848" lon="6.03011">
        <ele>1333.49</ele>
        <time>2011-10-02T10:04:14Z</time>
      </trkpt>
      <trkpt lat="45.68482" lon="6.03022">
        <ele>1333.01</ele>
        <time>2011-10-02T10:04:15Z</time>
      </trkpt>
      <trkpt lat="45.68484" lon="6.03034">
        <ele>1332.52</ele>
        <time>2011-10-02T10:04:16Z</time>
      </trkpt>
      <trkpt lat="45.68486" lon="6.0307">
        <ele>1331.08</ele>
        <time>2011-10-02T10:04:19Z</time>
      </trkpt>
      <trkpt lat="45.68485" lon="6.03108">
        <ele>1329.64</ele>
        <time>2011-10-02T10:04:22Z</time>
      </trkpt>
      <trkpt lat="45.68483" lon="6.03121">
        <ele>1328.2</ele>
        <time>2011-10-02T10:04:23Z</time>
      </trkpt>
      <trkpt lat="45.68481" lon="6.03135">
        <ele>1327.72</ele>
        <time>2011-10-02T10:04:24Z</time>
      </trkpt>
      <trkpt lat="45.6848" lon="6.03162">
        <ele>1326.76</ele>
        <time>2011-10-02T10:04:26Z</time>
      </trkpt>
      <trkpt lat="45.6848" lon="6.03202">
        <ele>1325.31</ele>
        <time>2011-10-02T10:04:29Z</time>
      </trkpt>
      <trkpt lat="45.68478" lon="6.03213">
        <ele>1326.28</ele>
        <time>2011-10-02T10:04:30Z</time>
      </trkpt>
      <trkpt lat="45.68477" lon="6.03223">
        <ele>1326.28</ele>
        <time>2011-10-02T10:04:31Z</time>
      </trkpt>
      <trkpt lat="45.6847" lon="6.03241">
        <ele>1324.35</ele>
        <time>2011-10-02T10:04:33Z</time>
      </trkpt>
      <trkpt lat="45.68465" lon="6.0325">
        <ele>1323.87</ele>
        <time>2011-10-02T10:04:34Z</time>
      </trkpt>
      <trkpt lat="45.68454" lon="6.0327">
        <ele>1322.91</ele>
        <time>2011-10-02T10:04:36Z</time>
      </trkpt>
      <trkpt lat="45.68444" lon="6.03289">
        <ele>1321.95</ele>
        <time>2011-10-02T10:04:38Z</time>
      </trkpt>
      <trkpt lat="45.68438" lon="6.03298">
        <ele>1321.47</ele>
        <time>2011-10-02T10:04:39Z</time>
      </trkpt>
      <trkpt lat="45.6843" lon="6.03305">
        <ele>1320.99</ele>
        <time>2011-10-02T10:04:40Z</time>
      </trkpt>
      <trkpt lat="45.68422" lon="6.0331">
        <ele>1320.99</ele>
        <time>2011-10-02T10:04:41Z</time>
      </trkpt>
      <trkpt lat="45.68413" lon="6.03311">
        <ele>1320.51</ele>
        <time>2011-10-02T10:04:42Z</time>
      </trkpt>
      <trkpt lat="45.68403" lon="6.03311">
        <ele>1320.03</ele>
        <time>2011-10-02T10:04:43Z</time>
      </trkpt>
      <trkpt lat="45.68393" lon="6.0331">
        <ele>1318.59</ele>
        <time>2011-10-02T10:04:44Z</time>
      </trkpt>
      <trkpt lat="45.68335" lon="6.03304">
        <ele>1317.62</ele>
        <time>2011-10-02T10:04:50Z</time>
      </trkpt>
      <trkpt lat="45.68326" lon="6.03299">
        <ele>1317.62</ele>
        <time>2011-10-02T10:04:51Z</time>
      </trkpt>
      <trkpt lat="45.68318" lon="6.03293">
        <ele>1317.14</ele>
        <time>2011-10-02T10:04:52Z</time>
      </trkpt>
      <trkpt lat="45.68311" lon="6.03284">
        <ele>1316.18</ele>
        <time>2011-10-02T10:04:53Z</time>
      </trkpt>
      <trkpt lat="45.68304" lon="6.03274">
        <ele>1315.7</ele>
        <time>2011-10-02T10:04:54Z</time>
      </trkpt>
      <trkpt lat="45.68299" lon="6.03263">
        <ele>1314.74</ele>
        <time>2011-10-02T10:04:55Z</time>
      </trkpt>
      <trkpt lat="45.68294" lon="6.03251">
        <ele>1314.74</ele>
        <time>2011-10-02T10:04:56Z</time>
      </trkpt>
      <trkpt lat="45.68289" lon="6.03239">
        <ele>1314.74</ele>
        <time>2011-10-02T10:04:57Z</time>
      </trkpt>
      <trkpt lat="45.68271" lon="6.03187">
        <ele>1312.82</ele>
        <time>2011-10-02T10:05:01Z</time>
      </trkpt>
      <trkpt lat="45.68265" lon="6.03176">
        <ele>1312.82</ele>
        <time>2011-10-02T10:05:02Z</time>
      </trkpt>
      <trkpt lat="45.68259" lon="6.03167">
        <ele>1311.86</ele>
        <time>2011-10-02T10:05:03Z</time>
      </trkpt>
      <trkpt lat="45.68253" lon="6.03159">
        <ele>1311.38</ele>
        <time>2011-10-02T10:05:04Z</time>
      </trkpt>
      <trkpt lat="45.68248" lon="6.03155">
        <ele>1311.38</ele>
        <time>2011-10-02T10:05:05Z</time>
      </trkpt>
      <trkpt lat="45.68244" lon="6.03155">
        <ele>1310.9</ele>
        <time>2011-10-02T10:05:06Z</time>
      </trkpt>
      <trkpt lat="45.68238" lon="6.03157">
        <ele>1310.41</ele>
        <time>2011-10-02T10:05:07Z</time>
      </trkpt>
      <trkpt lat="45.68229" lon="6.03161">
        <ele>1310.41</ele>
        <time>2011-10-02T10:05:08Z</time>
      </trkpt>
      <trkpt lat="45.68218" lon="6.03166">
        <ele>1308.97</ele>
        <time>2011-10-02T10:05:09Z</time>
      </trkpt>
      <trkpt lat="45.68207" lon="6.03168">
        <ele>1308.49</ele>
        <time>2011-10-02T10:05:10Z</time>
      </trkpt>
      <trkpt lat="45.68184" lon="6.03174">
        <ele>1308.49</ele>
        <time>2011-10-02T10:05:12Z</time>
      </trkpt>
      <trkpt lat="45.68175" lon="6.0318">
        <ele>1308.01</ele>
        <time>2011-10-02T10:05:13Z</time>
      </trkpt>
      <trkpt lat="45.68167" lon="6.03188">
        <ele>1308.01</ele>
        <time>2011-10-02T10:05:14Z</time>
      </trkpt>
      <trkpt lat="45.6816" lon="6.03198">
        <ele>1308.01</ele>
        <time>2011-10-02T10:05:15Z</time>
      </trkpt>
      <trkpt lat="45.68152" lon="6.03208">
        <ele>1307.53</ele>
        <time>2011-10-02T10:05:16Z</time>
      </trkpt>
      <trkpt lat="45.68142" lon="6.03217">
        <ele>1307.05</ele>
        <time>2011-10-02T10:05:17Z</time>
      </trkpt>
      <trkpt lat="45.68131" lon="6.03223">
        <ele>1306.09</ele>
        <time>2011-10-02T10:05:18Z</time>
      </trkpt>
      <trkpt lat="45.68121" lon="6.03229">
        <ele>1306.09</ele>
        <time>2011-10-02T10:05:19Z</time>
      </trkpt>
      <trkpt lat="45.68111" lon="6.03235">
        <ele>1305.61</ele>
        <time>2011-10-02T10:05:20Z</time>
      </trkpt>
      <trkpt lat="45.68101" lon="6.03244">
        <ele>1305.13</ele>
        <time>2011-10-02T10:05:21Z</time>
      </trkpt>
      <trkpt lat="45.68092" lon="6.03255">
        <ele>1305.61</ele>
        <time>2011-10-02T10:05:22Z</time>
      </trkpt>
      <trkpt lat="45.68085" lon="6.03266">
        <ele>1305.61</ele>
        <time>2011-10-02T10:05:23Z</time>
      </trkpt>
      <trkpt lat="45.68079" lon="6.03278">
        <ele>1305.61</ele>
        <time>2011-10-02T10:05:24Z</time>
      </trkpt>
      <trkpt lat="45.68073" lon="6.03291">
        <ele>1305.61</ele>
        <time>2011-10-02T10:05:25Z</time>
      </trkpt>
      <trkpt lat="45.68068" lon="6.03302">
        <ele>1305.61</ele>
        <time>2011-10-02T10:05:26Z</time>
      </trkpt>
      <trkpt lat="45.68061" lon="6.03311">
        <ele>1305.61</ele>
        <time>2011-10-02T10:05:27Z</time>
      </trkpt>
      <trkpt lat="45.68055" lon="6.03319">
        <ele>1306.57</ele>
        <time>2011-10-02T10:05:28Z</time>
      </trkpt>
      <trkpt lat="45.68047" lon="6.03325">
        <ele>1307.05</ele>
        <time>2011-10-02T10:05:29Z</time>
      </trkpt>
      <trkpt lat="45.68039" lon="6.03329">
        <ele>1307.53</ele>
        <time>2011-10-02T10:05:30Z</time>
      </trkpt>
      <trkpt lat="45.6803" lon="6.0333">
        <ele>1307.53</ele>
        <time>2011-10-02T10:05:31Z</time>
      </trkpt>
      <trkpt lat="45.68022" lon="6.03328">
        <ele>1307.05</ele>
        <time>2011-10-02T10:05:32Z</time>
      </trkpt>
      <trkpt lat="45.68014" lon="6.03324">
        <ele>1306.09</ele>
        <time>2011-10-02T10:05:33Z</time>
      </trkpt>
      <trkpt lat="45.68005" lon="6.03319">
        <ele>1305.61</ele>
        <time>2011-10-02T10:05:34Z</time>
      </trkpt>
      <trkpt lat="45.67963" lon="6.033">
        <ele>1304.17</ele>
        <time>2011-10-02T10:05:39Z</time>
      </trkpt>
      <trkpt lat="45.67954" lon="6.033">
        <ele>1304.65</ele>
        <time>2011-10-02T10:05:40Z</time>
      </trkpt>
      <trkpt lat="45.67946" lon="6.033">
        <ele>1305.61</ele>
        <time>2011-10-02T10:05:41Z</time>
      </trkpt>
      <trkpt lat="45.67938" lon="6.03299">
        <ele>1305.61</ele>
        <time>2011-10-02T10:05:42Z</time>
      </trkpt>
      <trkpt lat="45.6793" lon="6.03298">
        <ele>1306.09</ele>
        <time>2011-10-02T10:05:43Z</time>
      </trkpt>
      <trkpt lat="45.67921" lon="6.03296">
        <ele>1305.61</ele>
        <time>2011-10-02T10:05:44Z</time>
      </trkpt>
      <trkpt lat="45.67914" lon="6.03294">
        <ele>1306.09</ele>
        <time>2011-10-02T10:05:45Z</time>
      </trkpt>
      <trkpt lat="45.67884" lon="6.03281">
        <ele>1306.57</ele>
        <time>2011-10-02T10:05:49Z</time>
      </trkpt>
      <trkpt lat="45.67876" lon="6.03279">
        <ele>1307.05</ele>
        <time>2011-10-02T10:05:50Z</time>
      </trkpt>
      <trkpt lat="45.67868" lon="6.0328">
        <ele>1305.61</ele>
        <time>2011-10-02T10:05:51Z</time>
      </trkpt>
      <trkpt lat="45.67853" lon="6.03281">
        <ele>1307.53</ele>
        <time>2011-10-02T10:05:53Z</time>
      </trkpt>
      <trkpt lat="45.67848" lon="6.0328">
        <ele>1308.01</ele>
        <time>2011-10-02T10:05:54Z</time>
      </trkpt>
      <trkpt lat="45.6782" lon="6.0326">
        <ele>1309.93</ele>
        <time>2011-10-02T10:06:04Z</time>
      </trkpt>
      <trkpt lat="45.67819" lon="6.03261">
        <ele>1309.93</ele>
        <time>2011-10-02T10:06:17Z</time>
      </trkpt>
      <trkpt lat="45.67819" lon="6.03261">
        <ele>1309.93</ele>
        <time>2011-10-02T10:06:35Z</time>
      </trkpt>
      <trkpt lat="45.67817" lon="6.0326">
        <ele>1309.93</ele>
        <time>2011-10-02T10:06:46Z</time>
      </trkpt>
      <trkpt lat="45.67816" lon="6.0326">
        <ele>1309.93</ele>
        <time>2011-10-02T10:06:47Z</time>
      </trkpt>
      <trkpt lat="45.67808" lon="6.03259">
        <ele>1310.41</ele>
        <time>2011-10-02T10:07:01Z</time>
      </trkpt>
      <trkpt lat="45.67797" lon="6.03257">
        <ele>1310.41</ele>
        <time>2011-10-02T10:07:15Z</time>
      </trkpt>
      <trkpt lat="45.67786" lon="6.03255">
        <ele>1311.38</ele>
        <time>2011-10-02T10:07:32Z</time>
      </trkpt>
      <trkpt lat="45.67786" lon="6.03255">
        <ele>1310.41</ele>
        <time>2011-10-02T10:07:58Z</time>
      </trkpt>
      <trkpt lat="45.67786" lon="6.03255">
        <ele>1311.38</ele>
        <time>2011-10-02T10:08:24Z</time>
      </trkpt>
      <trkpt lat="45.67786" lon="6.03255">
        <ele>1310.9</ele>
        <time>2011-10-02T10:08:52Z</time>
      </trkpt>
      <trkpt lat="45.67786" lon="6.03255">
        <ele>1310.9</ele>
        <time>2011-10-02T10:09:15Z</time>
      </trkpt>
      <trkpt lat="45.67786" lon="6.03255">
        <ele>1311.38</ele>
        <time>2011-10-02T10:09:34Z</time>
      </trkpt>
      <trkpt lat="45.67786" lon="6.03255">
        <ele>1310.9</ele>
        <time>2011-10-02T10:10:04Z</time>
      </trkpt>
      <trkpt lat="45.67786" lon="6.03256">
        <ele>1312.82</ele>
        <time>2011-10-02T10:10:26Z</time>
      </trkpt>
      <trkpt lat="45.67786" lon="6.03256">
        <ele>1310.41</ele>
        <time>2011-10-02T10:10:29Z</time>
      </trkpt>
      <trkpt lat="45.67781" lon="6.03261">
        <ele>1312.34</ele>
        <time>2011-10-02T10:16:46Z</time>
      </trkpt>
      <trkpt lat="45.6778" lon="6.03262">
        <ele>1312.34</ele>
        <time>2011-10-02T10:16:47Z</time>
      </trkpt>
      <trkpt lat="45.67785" lon="6.03258">
        <ele>1310.41</ele>
        <time>2011-10-02T10:16:52Z</time>
      </trkpt>
      <trkpt lat="45.67785" lon="6.03259">
        <ele>1308.01</ele>
        <time>2011-10-02T10:17:01Z</time>
      </trkpt>
      <trkpt lat="45.67785" lon="6.03259">
        <ele>1307.05</ele>
        <time>2011-10-02T10:17:06Z</time>
      </trkpt>
    </trkseg>
  </trk>
</gpx>